<?xml version="1.0" encoding="UTF-8" standalone="no" ?>
<gpx xmlns="http://www.topografix.com/GPX/1/1" xmlns:xsi="http://www.w3.org/2001/XMLSchema-instance" xsi:schemaLocation="http://www.topografix.com/GPX/1/1 http://www.topografix.com/GPX/1/1/gpx.xsd" version="1.1" creator="VisuGPX - https://www.visugpx.com">
  <metadata>
    <name>Trail des Balcons de la Drôme</name>
    <desc><![CDATA[Les nouveaux Balcons sont arrivés ! L\' Envolée, \"sage\" petite course de montagne, grandit et devient Trail, proposant 2 parcours empruntant chemins et sentiers de Piégros-La-Clastre, dominant la vallée de la Drôme]]></desc>
  </metadata>
  <trk>
    <name><![CDATA[SportyPalTrack]]></name>
    <desc><![CDATA[The track description]]></desc>
    <trkseg>
      <trkpt lat="44.69926" lon="5.09752">
        <ele>238.0195178761</ele>
        <time>2012-09-29T07:49:15Z</time>
      </trkpt>
      <trkpt lat="44.69924" lon="5.0975">
        <ele>237.93498638477</ele>
        <time>2012-09-29T07:49:20Z</time>
      </trkpt>
      <trkpt lat="44.699" lon="5.09766">
        <ele>237.50974639851</ele>
        <time>2012-09-29T07:49:26Z</time>
      </trkpt>
      <trkpt lat="44.69876" lon="5.09768">
        <ele>238.0195178761</ele>
        <time>2012-09-29T07:49:31Z</time>
      </trkpt>
      <trkpt lat="44.69882" lon="5.09747">
        <ele>239.88924036653</ele>
        <time>2012-09-29T07:49:37Z</time>
      </trkpt>
      <trkpt lat="44.69872" lon="5.09717">
        <ele>239.29431564118</ele>
        <time>2012-09-29T07:49:42Z</time>
      </trkpt>
      <trkpt lat="44.69865" lon="5.097">
        <ele>234.11208345958</ele>
        <time>2012-09-29T07:49:48Z</time>
      </trkpt>
      <trkpt lat="44.6987" lon="5.0968">
        <ele>236.74539547276</ele>
        <time>2012-09-29T07:49:53Z</time>
      </trkpt>
      <trkpt lat="44.69877" lon="5.09671">
        <ele>243.4589874198</ele>
        <time>2012-09-29T07:49:59Z</time>
      </trkpt>
      <trkpt lat="44.69881" lon="5.09652">
        <ele>240.39912893332</ele>
        <time>2012-09-29T07:50:05Z</time>
      </trkpt>
      <trkpt lat="44.69886" lon="5.09634">
        <ele>244.81956062479</ele>
        <time>2012-09-29T07:50:10Z</time>
      </trkpt>
      <trkpt lat="44.69896" lon="5.09618">
        <ele>243.37389266857</ele>
        <time>2012-09-29T07:50:16Z</time>
      </trkpt>
      <trkpt lat="44.69908" lon="5.09592">
        <ele>244.30945446166</ele>
        <time>2012-09-29T07:50:22Z</time>
      </trkpt>
      <trkpt lat="44.69919" lon="5.09577">
        <ele>242.77876781808</ele>
        <time>2012-09-29T07:50:27Z</time>
      </trkpt>
      <trkpt lat="44.69925" lon="5.09556">
        <ele>245.83984830979</ele>
        <time>2012-09-29T07:50:33Z</time>
      </trkpt>
      <trkpt lat="44.69926" lon="5.09529">
        <ele>241.92894521306</ele>
        <time>2012-09-29T07:50:38Z</time>
      </trkpt>
      <trkpt lat="44.69927" lon="5.09507">
        <ele>245.9249633189</ele>
        <time>2012-09-29T07:50:43Z</time>
      </trkpt>
      <trkpt lat="44.69929" lon="5.09485">
        <ele>244.98925562814</ele>
        <time>2012-09-29T07:50:49Z</time>
      </trkpt>
      <trkpt lat="44.69934" lon="5.09465">
        <ele>239.37937689169</ele>
        <time>2012-09-29T07:50:54Z</time>
      </trkpt>
      <trkpt lat="44.69935" lon="5.09452">
        <ele>247.5402050705</ele>
        <time>2012-09-29T07:50:59Z</time>
      </trkpt>
      <trkpt lat="44.69939" lon="5.09432">
        <ele>246.3500298372</ele>
        <time>2012-09-29T07:51:06Z</time>
      </trkpt>
      <trkpt lat="44.69934" lon="5.09411">
        <ele>240.90904259484</ele>
        <time>2012-09-29T07:51:12Z</time>
      </trkpt>
      <trkpt lat="44.69935" lon="5.09389">
        <ele>245.58450747832</ele>
        <time>2012-09-29T07:51:18Z</time>
      </trkpt>
      <trkpt lat="44.69941" lon="5.09365">
        <ele>239.80417493004</ele>
        <time>2012-09-29T07:51:24Z</time>
      </trkpt>
      <trkpt lat="44.69942" lon="5.09335">
        <ele>235.47091125139</ele>
        <time>2012-09-29T07:51:30Z</time>
      </trkpt>
      <trkpt lat="44.69947" lon="5.09312">
        <ele>243.62917901916</ele>
        <time>2012-09-29T07:51:35Z</time>
      </trkpt>
      <trkpt lat="44.69956" lon="5.09288">
        <ele>245.83984830979</ele>
        <time>2012-09-29T07:51:42Z</time>
      </trkpt>
      <trkpt lat="44.69963" lon="5.09265">
        <ele>243.119131464</ele>
        <time>2012-09-29T07:51:48Z</time>
      </trkpt>
      <trkpt lat="44.6997" lon="5.09238">
        <ele>239.54950148774</ele>
        <time>2012-09-29T07:51:54Z</time>
      </trkpt>
      <trkpt lat="44.69975" lon="5.09215">
        <ele>234.53666560172</ele>
        <time>2012-09-29T07:51:59Z</time>
      </trkpt>
      <trkpt lat="44.6998" lon="5.09192">
        <ele>240.05937333477</ele>
        <time>2012-09-29T07:52:05Z</time>
      </trkpt>
      <trkpt lat="44.69976" lon="5.09165">
        <ele>236.83043580029</ele>
        <time>2012-09-29T07:52:12Z</time>
      </trkpt>
      <trkpt lat="44.69968" lon="5.09138">
        <ele>243.62917901916</ele>
        <time>2012-09-29T07:52:17Z</time>
      </trkpt>
      <trkpt lat="44.69959" lon="5.0912">
        <ele>244.22435272456</ele>
        <time>2012-09-29T07:52:24Z</time>
      </trkpt>
      <trkpt lat="44.6994" lon="5.09114">
        <ele>237.17008553235</ele>
        <time>2012-09-29T07:52:30Z</time>
      </trkpt>
      <trkpt lat="44.69921" lon="5.09109">
        <ele>246.5197499127</ele>
        <time>2012-09-29T07:52:35Z</time>
      </trkpt>
      <trkpt lat="44.69905" lon="5.09104">
        <ele>243.96905170761</ele>
        <time>2012-09-29T07:52:40Z</time>
      </trkpt>
      <trkpt lat="44.69892" lon="5.09103">
        <ele>239.46443884054</ele>
        <time>2012-09-29T07:52:46Z</time>
      </trkpt>
      <trkpt lat="44.69874" lon="5.09105">
        <ele>240.39912893332</ele>
        <time>2012-09-29T07:52:51Z</time>
      </trkpt>
      <trkpt lat="44.69855" lon="5.09105">
        <ele>241.41898135383</ele>
        <time>2012-09-29T07:52:57Z</time>
      </trkpt>
      <trkpt lat="44.69838" lon="5.09108">
        <ele>248.47614321721</ele>
        <time>2012-09-29T07:53:03Z</time>
      </trkpt>
      <trkpt lat="44.69823" lon="5.09111">
        <ele>244.13925168652</ele>
        <time>2012-09-29T07:53:09Z</time>
      </trkpt>
      <trkpt lat="44.69811" lon="5.09113">
        <ele>240.99411710323</ele>
        <time>2012-09-29T07:53:14Z</time>
      </trkpt>
      <trkpt lat="44.698" lon="5.09109">
        <ele>250.68784721758</ele>
        <time>2012-09-29T07:53:20Z</time>
      </trkpt>
      <trkpt lat="44.69789" lon="5.09104">
        <ele>253.32537640669</ele>
        <time>2012-09-29T07:53:25Z</time>
      </trkpt>
      <trkpt lat="44.69777" lon="5.09097">
        <ele>250.85763838008</ele>
        <time>2012-09-29T07:53:32Z</time>
      </trkpt>
      <trkpt lat="44.69759" lon="5.09093">
        <ele>249.7517092241</ele>
        <time>2012-09-29T07:53:38Z</time>
      </trkpt>
      <trkpt lat="44.69744" lon="5.09092">
        <ele>255.11215301955</ele>
        <time>2012-09-29T07:53:44Z</time>
      </trkpt>
      <trkpt lat="44.69731" lon="5.09093">
        <ele>255.79318302648</ele>
        <time>2012-09-29T07:53:49Z</time>
      </trkpt>
      <trkpt lat="44.6972" lon="5.09093">
        <ele>260.64584400079</ele>
        <time>2012-09-29T07:53:54Z</time>
      </trkpt>
      <trkpt lat="44.69713" lon="5.0909">
        <ele>262.09340502265</ele>
        <time>2012-09-29T07:54:01Z</time>
      </trkpt>
      <trkpt lat="44.69702" lon="5.0908">
        <ele>265.41550389796</ele>
        <time>2012-09-29T07:54:07Z</time>
      </trkpt>
      <trkpt lat="44.69689" lon="5.09066">
        <ele>260.04972598627</ele>
        <time>2012-09-29T07:54:12Z</time>
      </trkpt>
      <trkpt lat="44.69676" lon="5.09055">
        <ele>268.2273833552</ele>
        <time>2012-09-29T07:54:18Z</time>
      </trkpt>
      <trkpt lat="44.69669" lon="5.09052">
        <ele>259.02803768727</ele>
        <time>2012-09-29T07:54:23Z</time>
      </trkpt>
      <trkpt lat="44.69657" lon="5.09057">
        <ele>262.94540356955</ele>
        <time>2012-09-29T07:54:28Z</time>
      </trkpt>
      <trkpt lat="44.69646" lon="5.09064">
        <ele>270.44278973213</ele>
        <time>2012-09-29T07:54:34Z</time>
      </trkpt>
      <trkpt lat="44.69635" lon="5.09062">
        <ele>273.25603499923</ele>
        <time>2012-09-29T07:54:41Z</time>
      </trkpt>
      <trkpt lat="44.69624" lon="5.09058">
        <ele>271.03950638492</ele>
        <time>2012-09-29T07:54:47Z</time>
      </trkpt>
      <trkpt lat="44.69621" lon="5.09047">
        <ele>272.82986272073</ele>
        <time>2012-09-29T07:54:52Z</time>
      </trkpt>
      <trkpt lat="44.69614" lon="5.09039">
        <ele>272.31837507792</ele>
        <time>2012-09-29T07:54:58Z</time>
      </trkpt>
      <trkpt lat="44.69603" lon="5.09037">
        <ele>274.36447728609</ele>
        <time>2012-09-29T07:55:03Z</time>
      </trkpt>
      <trkpt lat="44.69589" lon="5.09038">
        <ele>273.59740176124</ele>
        <time>2012-09-29T07:55:08Z</time>
      </trkpt>
      <trkpt lat="44.6957" lon="5.09041">
        <ele>273.42671697326</ele>
        <time>2012-09-29T07:55:14Z</time>
      </trkpt>
      <trkpt lat="44.69553" lon="5.09044">
        <ele>272.48904159415</ele>
        <time>2012-09-29T07:55:20Z</time>
      </trkpt>
      <trkpt lat="44.69547" lon="5.09043">
        <ele>275.72911711362</ele>
        <time>2012-09-29T07:55:25Z</time>
      </trkpt>
      <trkpt lat="44.69558" lon="5.09038">
        <ele>281.01762451282</ele>
        <time>2012-09-29T07:55:31Z</time>
      </trkpt>
      <trkpt lat="44.69565" lon="5.09034">
        <ele>279.3966321599</ele>
        <time>2012-09-29T07:55:37Z</time>
      </trkpt>
      <trkpt lat="44.69572" lon="5.09024">
        <ele>283.23576997497</ele>
        <time>2012-09-29T07:55:43Z</time>
      </trkpt>
      <trkpt lat="44.69582" lon="5.09013">
        <ele>278.62866304982</ele>
        <time>2012-09-29T07:55:48Z</time>
      </trkpt>
      <trkpt lat="44.69589" lon="5.09">
        <ele>285.96704903509</ele>
        <time>2012-09-29T07:55:54Z</time>
      </trkpt>
      <trkpt lat="44.69583" lon="5.08985">
        <ele>282.29720571151</ele>
        <time>2012-09-29T07:55:59Z</time>
      </trkpt>
      <trkpt lat="44.69575" lon="5.08974">
        <ele>284.34528144857</ele>
        <time>2012-09-29T07:56:05Z</time>
      </trkpt>
      <trkpt lat="44.69575" lon="5.08974">
        <ele>282.98002621581</ele>
        <time>2012-09-29T07:56:10Z</time>
      </trkpt>
      <trkpt lat="44.69574" lon="5.08975">
        <ele>291.17582407449</ele>
        <time>2012-09-29T07:56:16Z</time>
      </trkpt>
      <trkpt lat="44.69567" lon="5.08976">
        <ele>289.12587519655</ele>
        <time>2012-09-29T07:56:22Z</time>
      </trkpt>
      <trkpt lat="44.69553" lon="5.08974">
        <ele>292.54216094767</ele>
        <time>2012-09-29T07:56:28Z</time>
      </trkpt>
      <trkpt lat="44.69542" lon="5.08973">
        <ele>290.06558014962</ele>
        <time>2012-09-29T07:56:34Z</time>
      </trkpt>
      <trkpt lat="44.69533" lon="5.08961">
        <ele>293.48165479208</ele>
        <time>2012-09-29T07:56:41Z</time>
      </trkpt>
      <trkpt lat="44.69523" lon="5.08948">
        <ele>299.20700732956</ele>
        <time>2012-09-29T07:56:46Z</time>
      </trkpt>
      <trkpt lat="44.69512" lon="5.0894">
        <ele>300.31771081596</ele>
        <time>2012-09-29T07:56:51Z</time>
      </trkpt>
      <trkpt lat="44.695" lon="5.08932">
        <ele>294.25072683646</ele>
        <time>2012-09-29T07:56:58Z</time>
      </trkpt>
      <trkpt lat="44.69488" lon="5.08928">
        <ele>296.30116973603</ele>
        <time>2012-09-29T07:57:03Z</time>
      </trkpt>
      <trkpt lat="44.69484" lon="5.08918">
        <ele>299.63426712889</ele>
        <time>2012-09-29T07:57:09Z</time>
      </trkpt>
      <trkpt lat="44.69491" lon="5.0891">
        <ele>305.61932366959</ele>
        <time>2012-09-29T07:57:14Z</time>
      </trkpt>
      <trkpt lat="44.69499" lon="5.0891">
        <ele>302.71168485422</ele>
        <time>2012-09-29T07:57:19Z</time>
      </trkpt>
      <trkpt lat="44.69505" lon="5.08915">
        <ele>302.02756120155</ele>
        <time>2012-09-29T07:57:25Z</time>
      </trkpt>
      <trkpt lat="44.69512" lon="5.08918">
        <ele>308.52725778163</ele>
        <time>2012-09-29T07:57:31Z</time>
      </trkpt>
      <trkpt lat="44.69523" lon="5.08921">
        <ele>310.4097586827</ele>
        <time>2012-09-29T07:57:37Z</time>
      </trkpt>
      <trkpt lat="44.69531" lon="5.08926">
        <ele>307.58639682941</ele>
        <time>2012-09-29T07:57:43Z</time>
      </trkpt>
      <trkpt lat="44.69538" lon="5.08918">
        <ele>310.751830994</ele>
        <time>2012-09-29T07:57:48Z</time>
      </trkpt>
      <trkpt lat="44.6954" lon="5.08897">
        <ele>307.58639682941</ele>
        <time>2012-09-29T07:57:53Z</time>
      </trkpt>
      <trkpt lat="44.69542" lon="5.08878">
        <ele>309.63948458847</ele>
        <time>2012-09-29T07:57:58Z</time>
      </trkpt>
      <trkpt lat="44.69542" lon="5.08867">
        <ele>313.57605707432</ele>
        <time>2012-09-29T07:58:03Z</time>
      </trkpt>
      <trkpt lat="44.69547" lon="5.08858">
        <ele>317.17130972502</ele>
        <time>2012-09-29T07:58:10Z</time>
      </trkpt>
      <trkpt lat="44.69555" lon="5.08849">
        <ele>320.42540884715</ele>
        <time>2012-09-29T07:58:15Z</time>
      </trkpt>
      <trkpt lat="44.69558" lon="5.08842">
        <ele>317.08560685034</ele>
        <time>2012-09-29T07:58:20Z</time>
      </trkpt>
      <trkpt lat="44.6956" lon="5.08841">
        <ele>319.05486196045</ele>
        <time>2012-09-29T07:58:26Z</time>
      </trkpt>
      <trkpt lat="44.69566" lon="5.08843">
        <ele>320.76781256893</ele>
        <time>2012-09-29T07:58:32Z</time>
      </trkpt>
      <trkpt lat="44.69575" lon="5.08841">
        <ele>323.25227803411</ele>
        <time>2012-09-29T07:58:38Z</time>
      </trkpt>
      <trkpt lat="44.69585" lon="5.08837">
        <ele>329.50791068547</ele>
        <time>2012-09-29T07:58:44Z</time>
      </trkpt>
      <trkpt lat="44.69594" lon="5.08829">
        <ele>326.33673160718</ele>
        <time>2012-09-29T07:58:49Z</time>
      </trkpt>
      <trkpt lat="44.69603" lon="5.0882">
        <ele>327.96509585214</ele>
        <time>2012-09-29T07:58:54Z</time>
      </trkpt>
      <trkpt lat="44.69613" lon="5.08803">
        <ele>329.85061528345</ele>
        <time>2012-09-29T07:59:00Z</time>
      </trkpt>
      <trkpt lat="44.69624" lon="5.08789">
        <ele>331.47953304428</ele>
        <time>2012-09-29T07:59:06Z</time>
      </trkpt>
      <trkpt lat="44.69636" lon="5.08782">
        <ele>330.87932050963</ele>
        <time>2012-09-29T07:59:12Z</time>
      </trkpt>
      <trkpt lat="44.69647" lon="5.08776">
        <ele>331.99395390348</ele>
        <time>2012-09-29T07:59:17Z</time>
      </trkpt>
      <trkpt lat="44.69656" lon="5.08772">
        <ele>332.07978042421</ele>
        <time>2012-09-29T07:59:23Z</time>
      </trkpt>
      <trkpt lat="44.6967" lon="5.08762">
        <ele>337.22543999442</ele>
        <time>2012-09-29T07:59:28Z</time>
      </trkpt>
      <trkpt lat="44.69684" lon="5.08756">
        <ele>335.68147319076</ele>
        <time>2012-09-29T07:59:33Z</time>
      </trkpt>
      <trkpt lat="44.69696" lon="5.08753">
        <ele>337.31130995597</ele>
        <time>2012-09-29T07:59:39Z</time>
      </trkpt>
      <trkpt lat="44.69703" lon="5.0874">
        <ele>335.59614027835</ele>
        <time>2012-09-29T07:59:45Z</time>
      </trkpt>
      <trkpt lat="44.69707" lon="5.08721">
        <ele>343.06098395732</ele>
        <time>2012-09-29T07:59:50Z</time>
      </trkpt>
      <trkpt lat="44.69705" lon="5.08714">
        <ele>339.54208450173</ele>
        <time>2012-09-29T07:59:56Z</time>
      </trkpt>
      <trkpt lat="44.69701" lon="5.08709">
        <ele>341.94515675433</ele>
        <time>2012-09-29T08:00:02Z</time>
      </trkpt>
      <trkpt lat="44.69695" lon="5.08696">
        <ele>348.72736821748</ele>
        <time>2012-09-29T08:00:08Z</time>
      </trkpt>
      <trkpt lat="44.69686" lon="5.08688">
        <ele>346.58055769579</ele>
        <time>2012-09-29T08:00:13Z</time>
      </trkpt>
      <trkpt lat="44.69674" lon="5.08684">
        <ele>349.75795374379</ele>
        <time>2012-09-29T08:00:18Z</time>
      </trkpt>
      <trkpt lat="44.69663" lon="5.08679">
        <ele>352.50685913657</ele>
        <time>2012-09-29T08:00:24Z</time>
      </trkpt>
      <trkpt lat="44.69647" lon="5.08671">
        <ele>350.70266005029</ele>
        <time>2012-09-29T08:00:29Z</time>
      </trkpt>
      <trkpt lat="44.69627" lon="5.08663">
        <ele>352.67885387196</ele>
        <time>2012-09-29T08:00:35Z</time>
      </trkpt>
      <trkpt lat="44.6961" lon="5.08655">
        <ele>350.96060818991</ele>
        <time>2012-09-29T08:00:42Z</time>
      </trkpt>
      <trkpt lat="44.69597" lon="5.08648">
        <ele>351.90542444316</ele>
        <time>2012-09-29T08:00:49Z</time>
      </trkpt>
      <trkpt lat="44.69579" lon="5.08639">
        <ele>354.7409160742</ele>
        <time>2012-09-29T08:00:55Z</time>
      </trkpt>
      <trkpt lat="44.69569" lon="5.08635">
        <ele>354.7409160742</ele>
        <time>2012-09-29T08:01:02Z</time>
      </trkpt>
      <trkpt lat="44.69545" lon="5.08629">
        <ele>351.47599946711</ele>
        <time>2012-09-29T08:01:07Z</time>
      </trkpt>
      <trkpt lat="44.69527" lon="5.08623">
        <ele>352.4208628423</ele>
        <time>2012-09-29T08:01:13Z</time>
      </trkpt>
      <trkpt lat="44.69512" lon="5.08607">
        <ele>356.02965165765</ele>
        <time>2012-09-29T08:01:18Z</time>
      </trkpt>
      <trkpt lat="44.69503" lon="5.08597">
        <ele>350.53122247015</ele>
        <time>2012-09-29T08:01:24Z</time>
      </trkpt>
      <trkpt lat="44.69497" lon="5.08592">
        <ele>354.91294799632</ele>
        <time>2012-09-29T08:01:29Z</time>
      </trkpt>
      <trkpt lat="44.69488" lon="5.08581">
        <ele>354.99844053507</ele>
        <time>2012-09-29T08:01:34Z</time>
      </trkpt>
      <trkpt lat="44.69476" lon="5.08562">
        <ele>350.87462476134</ele>
        <time>2012-09-29T08:01:40Z</time>
      </trkpt>
      <trkpt lat="44.69469" lon="5.08538">
        <ele>344.52012285485</ele>
        <time>2012-09-29T08:01:45Z</time>
      </trkpt>
      <trkpt lat="44.69459" lon="5.08517">
        <ele>349.15667899787</ele>
        <time>2012-09-29T08:01:51Z</time>
      </trkpt>
      <trkpt lat="44.69449" lon="5.08506">
        <ele>343.06098395732</ele>
        <time>2012-09-29T08:01:56Z</time>
      </trkpt>
      <trkpt lat="44.69436" lon="5.08492">
        <ele>341.00072672357</ele>
        <time>2012-09-29T08:02:02Z</time>
      </trkpt>
      <trkpt lat="44.69417" lon="5.08472">
        <ele>343.49005943836</ele>
        <time>2012-09-29T08:02:07Z</time>
      </trkpt>
      <trkpt lat="44.69405" lon="5.08455">
        <ele>347.52497360056</ele>
        <time>2012-09-29T08:02:12Z</time>
      </trkpt>
      <trkpt lat="44.69402" lon="5.08442">
        <ele>344.86332547886</ele>
        <time>2012-09-29T08:02:18Z</time>
      </trkpt>
      <trkpt lat="44.69394" lon="5.08446">
        <ele>348.21211398894</ele>
        <time>2012-09-29T08:02:24Z</time>
      </trkpt>
      <trkpt lat="44.69383" lon="5.08452">
        <ele>350.10133034172</ele>
        <time>2012-09-29T08:02:30Z</time>
      </trkpt>
      <trkpt lat="44.69374" lon="5.08458">
        <ele>352.4208628423</ele>
        <time>2012-09-29T08:02:36Z</time>
      </trkpt>
      <trkpt lat="44.69369" lon="5.08464">
        <ele>352.76485231312</ele>
        <time>2012-09-29T08:02:42Z</time>
      </trkpt>
      <trkpt lat="44.6936" lon="5.0847">
        <ele>354.82693167727</ele>
        <time>2012-09-29T08:02:48Z</time>
      </trkpt>
      <trkpt lat="44.69347" lon="5.08475">
        <ele>361.78975151885</ele>
        <time>2012-09-29T08:02:53Z</time>
      </trkpt>
      <trkpt lat="44.69338" lon="5.08476">
        <ele>360.6719004298</ele>
        <time>2012-09-29T08:03:00Z</time>
      </trkpt>
      <trkpt lat="44.69326" lon="5.08484">
        <ele>363.85363288063</ele>
        <time>2012-09-29T08:03:06Z</time>
      </trkpt>
      <trkpt lat="44.69317" lon="5.08488">
        <ele>367.03634547411</ele>
        <time>2012-09-29T08:03:12Z</time>
      </trkpt>
      <trkpt lat="44.69305" lon="5.08496">
        <ele>368.7572667424</ele>
        <time>2012-09-29T08:03:18Z</time>
      </trkpt>
      <trkpt lat="44.69293" lon="5.085">
        <ele>364.88572818782</ele>
        <time>2012-09-29T08:03:24Z</time>
      </trkpt>
      <trkpt lat="44.69284" lon="5.08507">
        <ele>366.26184064622</ele>
        <time>2012-09-29T08:03:29Z</time>
      </trkpt>
      <trkpt lat="44.69282" lon="5.08497">
        <ele>370.04775190782</ele>
        <time>2012-09-29T08:03:34Z</time>
      </trkpt>
      <trkpt lat="44.69286" lon="5.08483">
        <ele>367.46641763382</ele>
        <time>2012-09-29T08:03:41Z</time>
      </trkpt>
      <trkpt lat="44.69289" lon="5.08476">
        <ele>375.81567495604</ele>
        <time>2012-09-29T08:03:47Z</time>
      </trkpt>
      <trkpt lat="44.69289" lon="5.08466">
        <ele>375.21288190451</ele>
        <time>2012-09-29T08:03:52Z</time>
      </trkpt>
      <trkpt lat="44.69288" lon="5.08446">
        <ele>374.7824871193</ele>
        <time>2012-09-29T08:03:57Z</time>
      </trkpt>
      <trkpt lat="44.69286" lon="5.08425">
        <ele>378.31288470787</ele>
        <time>2012-09-29T08:04:03Z</time>
      </trkpt>
      <trkpt lat="44.69283" lon="5.08403">
        <ele>371.85533244153</ele>
        <time>2012-09-29T08:04:09Z</time>
      </trkpt>
      <trkpt lat="44.69279" lon="5.08383">
        <ele>378.65721167216</ele>
        <time>2012-09-29T08:04:15Z</time>
      </trkpt>
      <trkpt lat="44.69276" lon="5.08373">
        <ele>380.81069838902</ele>
        <time>2012-09-29T08:04:20Z</time>
      </trkpt>
      <trkpt lat="44.69271" lon="5.08363">
        <ele>380.55252968667</ele>
        <time>2012-09-29T08:04:26Z</time>
      </trkpt>
      <trkpt lat="44.69269" lon="5.0835">
        <ele>378.82964231292</ele>
        <time>2012-09-29T08:04:31Z</time>
      </trkpt>
      <trkpt lat="44.69258" lon="5.08331">
        <ele>380.12191234126</ele>
        <time>2012-09-29T08:04:37Z</time>
      </trkpt>
      <trkpt lat="44.69249" lon="5.08312">
        <ele>371.76917495559</ele>
        <time>2012-09-29T08:04:42Z</time>
      </trkpt>
      <trkpt lat="44.69239" lon="5.08289">
        <ele>381.84448946182</ele>
        <time>2012-09-29T08:04:47Z</time>
      </trkpt>
      <trkpt lat="44.69229" lon="5.08271">
        <ele>377.7099459029</ele>
        <time>2012-09-29T08:04:53Z</time>
      </trkpt>
      <trkpt lat="44.69215" lon="5.08255">
        <ele>384.77447694812</ele>
        <time>2012-09-29T08:04:59Z</time>
      </trkpt>
      <trkpt lat="44.69201" lon="5.08254">
        <ele>379.3464257746</ele>
        <time>2012-09-29T08:05:04Z</time>
      </trkpt>
      <trkpt lat="44.69196" lon="5.08246">
        <ele>384.68821162532</ele>
        <time>2012-09-29T08:05:10Z</time>
      </trkpt>
      <trkpt lat="44.69201" lon="5.08228">
        <ele>383.39589606945</ele>
        <time>2012-09-29T08:05:15Z</time>
      </trkpt>
      <trkpt lat="44.69204" lon="5.08209">
        <ele>376.76276700345</ele>
        <time>2012-09-29T08:05:21Z</time>
      </trkpt>
      <trkpt lat="44.69191" lon="5.08182">
        <ele>384.17116080043</ele>
        <time>2012-09-29T08:05:26Z</time>
      </trkpt>
      <trkpt lat="44.69193" lon="5.08153">
        <ele>378.91585871285</ele>
        <time>2012-09-29T08:05:32Z</time>
      </trkpt>
      <trkpt lat="44.6919" lon="5.08119">
        <ele>385.55037123344</ele>
        <time>2012-09-29T08:05:39Z</time>
      </trkpt>
      <trkpt lat="44.69185" lon="5.08096">
        <ele>383.82664995275</ele>
        <time>2012-09-29T08:05:44Z</time>
      </trkpt>
      <trkpt lat="44.69183" lon="5.08076">
        <ele>379.60509007609</ele>
        <time>2012-09-29T08:05:50Z</time>
      </trkpt>
      <trkpt lat="44.69179" lon="5.08057">
        <ele>380.12191234126</ele>
        <time>2012-09-29T08:05:55Z</time>
      </trkpt>
      <trkpt lat="44.69171" lon="5.08034">
        <ele>381.58629491591</ele>
        <time>2012-09-29T08:06:01Z</time>
      </trkpt>
      <trkpt lat="44.69159" lon="5.08024">
        <ele>380.98316498745</ele>
        <time>2012-09-29T08:06:07Z</time>
      </trkpt>
      <trkpt lat="44.69145" lon="5.08025">
        <ele>389.77436271643</ele>
        <time>2012-09-29T08:06:13Z</time>
      </trkpt>
      <trkpt lat="44.69132" lon="5.08026">
        <ele>383.30964226168</ele>
        <time>2012-09-29T08:06:18Z</time>
      </trkpt>
      <trkpt lat="44.69119" lon="5.08017">
        <ele>387.7910603538</ele>
        <time>2012-09-29T08:06:23Z</time>
      </trkpt>
      <trkpt lat="44.69104" lon="5.08013">
        <ele>387.70529598695</ele>
        <time>2012-09-29T08:06:29Z</time>
      </trkpt>
      <trkpt lat="44.69091" lon="5.08009">
        <ele>385.89493959189</ele>
        <time>2012-09-29T08:06:35Z</time>
      </trkpt>
      <trkpt lat="44.69078" lon="5.08005">
        <ele>385.55037123344</ele>
        <time>2012-09-29T08:06:42Z</time>
      </trkpt>
      <trkpt lat="44.69066" lon="5.07998">
        <ele>384.68821162532</ele>
        <time>2012-09-29T08:06:47Z</time>
      </trkpt>
      <trkpt lat="44.69069" lon="5.07981">
        <ele>383.82664995275</ele>
        <time>2012-09-29T08:06:53Z</time>
      </trkpt>
      <trkpt lat="44.69071" lon="5.0797">
        <ele>382.79266045231</ele>
        <time>2012-09-29T08:06:58Z</time>
      </trkpt>
      <trkpt lat="44.6907" lon="5.07961">
        <ele>388.6534790726</ele>
        <time>2012-09-29T08:07:04Z</time>
      </trkpt>
      <trkpt lat="44.69064" lon="5.07952">
        <ele>392.36127930357</ele>
        <time>2012-09-29T08:07:11Z</time>
      </trkpt>
      <trkpt lat="44.6905" lon="5.07933">
        <ele>393.39622744525</ele>
        <time>2012-09-29T08:07:17Z</time>
      </trkpt>
      <trkpt lat="44.69041" lon="5.07923">
        <ele>393.05140868175</ele>
        <time>2012-09-29T08:07:22Z</time>
      </trkpt>
      <trkpt lat="44.69045" lon="5.07912">
        <ele>394.86249383579</ele>
        <time>2012-09-29T08:07:28Z</time>
      </trkpt>
      <trkpt lat="44.6905" lon="5.07897">
        <ele>394.69032178562</ele>
        <time>2012-09-29T08:07:33Z</time>
      </trkpt>
      <trkpt lat="44.69045" lon="5.07881">
        <ele>397.79617816036</ele>
        <time>2012-09-29T08:07:39Z</time>
      </trkpt>
      <trkpt lat="44.69036" lon="5.07871">
        <ele>402.62954396602</ele>
        <time>2012-09-29T08:07:45Z</time>
      </trkpt>
      <trkpt lat="44.69029" lon="5.07856">
        <ele>399.60809592326</ele>
        <time>2012-09-29T08:07:51Z</time>
      </trkpt>
      <trkpt lat="44.69027" lon="5.07837">
        <ele>399.00443915683</ele>
        <time>2012-09-29T08:07:56Z</time>
      </trkpt>
      <trkpt lat="44.69021" lon="5.07818">
        <ele>402.45671542015</ele>
        <time>2012-09-29T08:08:01Z</time>
      </trkpt>
      <trkpt lat="44.69015" lon="5.07802">
        <ele>402.62954396602</ele>
        <time>2012-09-29T08:08:07Z</time>
      </trkpt>
      <trkpt lat="44.69009" lon="5.07791">
        <ele>402.80237540557</ele>
        <time>2012-09-29T08:08:13Z</time>
      </trkpt>
      <trkpt lat="44.69008" lon="5.07788">
        <ele>397.88255306747</ele>
        <time>2012-09-29T08:08:19Z</time>
      </trkpt>
      <trkpt lat="44.69018" lon="5.07784">
        <ele>408.58810207687</ele>
        <time>2012-09-29T08:08:25Z</time>
      </trkpt>
      <trkpt lat="44.69024" lon="5.07781">
        <ele>401.50726386423</ele>
        <time>2012-09-29T08:08:30Z</time>
      </trkpt>
      <trkpt lat="44.69032" lon="5.07773">
        <ele>413.51303098101</ele>
        <time>2012-09-29T08:08:37Z</time>
      </trkpt>
      <trkpt lat="44.69041" lon="5.07762">
        <ele>404.44283738402</ele>
        <time>2012-09-29T08:08:43Z</time>
      </trkpt>
      <trkpt lat="44.69044" lon="5.07755">
        <ele>410.8343248816</ele>
        <time>2012-09-29T08:08:48Z</time>
      </trkpt>
      <trkpt lat="44.69046" lon="5.07752">
        <ele>413.68551727827</ele>
        <time>2012-09-29T08:08:53Z</time>
      </trkpt>
      <trkpt lat="44.6905" lon="5.07744">
        <ele>415.06867678809</ele>
        <time>2012-09-29T08:08:58Z</time>
      </trkpt>
      <trkpt lat="44.69056" lon="5.07733">
        <ele>418.35376416618</ele>
        <time>2012-09-29T08:09:04Z</time>
      </trkpt>
      <trkpt lat="44.69061" lon="5.0772">
        <ele>419.82358050032</ele>
        <time>2012-09-29T08:09:11Z</time>
      </trkpt>
      <trkpt lat="44.69068" lon="5.07701">
        <ele>423.71577866779</ele>
        <time>2012-09-29T08:09:16Z</time>
      </trkpt>
      <trkpt lat="44.6907" lon="5.07686">
        <ele>419.21821247337</ele>
        <time>2012-09-29T08:09:21Z</time>
      </trkpt>
      <trkpt lat="44.69071" lon="5.07675">
        <ele>424.92707815401</ele>
        <time>2012-09-29T08:09:27Z</time>
      </trkpt>
      <trkpt lat="44.6907" lon="5.07666">
        <ele>428.99394480981</ele>
        <time>2012-09-29T08:09:33Z</time>
      </trkpt>
      <trkpt lat="44.69064" lon="5.07654">
        <ele>430.46527782337</ele>
        <time>2012-09-29T08:09:38Z</time>
      </trkpt>
      <trkpt lat="44.69061" lon="5.07642">
        <ele>424.23481417357</ele>
        <time>2012-09-29T08:09:43Z</time>
      </trkpt>
      <trkpt lat="44.69056" lon="5.07633">
        <ele>432.80293637041</ele>
        <time>2012-09-29T08:09:49Z</time>
      </trkpt>
      <trkpt lat="44.69052" lon="5.07623">
        <ele>429.42660587906</ele>
        <time>2012-09-29T08:09:54Z</time>
      </trkpt>
      <trkpt lat="44.69048" lon="5.07614">
        <ele>432.02348185213</ele>
        <time>2012-09-29T08:09:59Z</time>
      </trkpt>
      <trkpt lat="44.69042" lon="5.07598">
        <ele>432.11014371557</ele>
        <time>2012-09-29T08:10:06Z</time>
      </trkpt>
      <trkpt lat="44.69034" lon="5.07583">
        <ele>430.11921833081</ele>
        <time>2012-09-29T08:10:12Z</time>
      </trkpt>
      <trkpt lat="44.69032" lon="5.07571">
        <ele>435.66073546546</ele>
        <time>2012-09-29T08:10:17Z</time>
      </trkpt>
      <trkpt lat="44.69033" lon="5.07557">
        <ele>433.06294379084</ele>
        <time>2012-09-29T08:10:23Z</time>
      </trkpt>
      <trkpt lat="44.69043" lon="5.07525">
        <ele>438.69223143084</ele>
        <time>2012-09-29T08:10:28Z</time>
      </trkpt>
      <trkpt lat="44.6905" lon="5.07499">
        <ele>434.44817508486</ele>
        <time>2012-09-29T08:10:34Z</time>
      </trkpt>
      <trkpt lat="44.69048" lon="5.07475">
        <ele>434.96775085489</ele>
        <time>2012-09-29T08:10:39Z</time>
      </trkpt>
      <trkpt lat="44.6905" lon="5.07446">
        <ele>433.75527192887</ele>
        <time>2012-09-29T08:10:46Z</time>
      </trkpt>
      <trkpt lat="44.69053" lon="5.07421">
        <ele>428.90730912053</ele>
        <time>2012-09-29T08:10:51Z</time>
      </trkpt>
      <trkpt lat="44.69056" lon="5.07406">
        <ele>425.87868690775</ele>
        <time>2012-09-29T08:10:57Z</time>
      </trkpt>
      <trkpt lat="44.69064" lon="5.07404">
        <ele>422.50462137254</ele>
        <time>2012-09-29T08:11:02Z</time>
      </trkpt>
      <trkpt lat="44.69074" lon="5.07399">
        <ele>424.23481417357</ele>
        <time>2012-09-29T08:11:09Z</time>
      </trkpt>
      <trkpt lat="44.69084" lon="5.07388">
        <ele>415.93284993234</ele>
        <time>2012-09-29T08:11:15Z</time>
      </trkpt>
      <trkpt lat="44.69099" lon="5.07384">
        <ele>423.11018224863</ele>
        <time>2012-09-29T08:11:20Z</time>
      </trkpt>
      <trkpt lat="44.69115" lon="5.07391">
        <ele>424.92707815401</ele>
        <time>2012-09-29T08:11:26Z</time>
      </trkpt>
      <trkpt lat="44.69127" lon="5.07399">
        <ele>422.85042554087</ele>
        <time>2012-09-29T08:11:31Z</time>
      </trkpt>
      <trkpt lat="44.6914" lon="5.07406">
        <ele>418.35376416618</ele>
        <time>2012-09-29T08:11:37Z</time>
      </trkpt>
      <trkpt lat="44.69155" lon="5.07406">
        <ele>419.82358050032</ele>
        <time>2012-09-29T08:11:43Z</time>
      </trkpt>
      <trkpt lat="44.69166" lon="5.07411">
        <ele>416.71108975338</ele>
        <time>2012-09-29T08:11:48Z</time>
      </trkpt>
      <trkpt lat="44.69178" lon="5.07427">
        <ele>405.99711656084</ele>
        <time>2012-09-29T08:11:53Z</time>
      </trkpt>
      <trkpt lat="44.69192" lon="5.07443">
        <ele>410.8343248816</ele>
        <time>2012-09-29T08:11:58Z</time>
      </trkpt>
      <trkpt lat="44.692" lon="5.07455">
        <ele>404.78803685439</ele>
        <time>2012-09-29T08:12:04Z</time>
      </trkpt>
      <trkpt lat="44.6921" lon="5.07467">
        <ele>411.00676641439</ele>
        <time>2012-09-29T08:12:09Z</time>
      </trkpt>
      <trkpt lat="44.6922" lon="5.07481">
        <ele>407.1198849545</ele>
        <time>2012-09-29T08:12:16Z</time>
      </trkpt>
      <trkpt lat="44.69233" lon="5.07488">
        <ele>398.22753322672</ele>
        <time>2012-09-29T08:12:22Z</time>
      </trkpt>
      <trkpt lat="44.69251" lon="5.07489">
        <ele>400.9029692024</ele>
        <time>2012-09-29T08:12:27Z</time>
      </trkpt>
      <trkpt lat="44.6927" lon="5.07484">
        <ele>395.98405176988</ele>
        <time>2012-09-29T08:12:33Z</time>
      </trkpt>
      <trkpt lat="44.69281" lon="5.07484">
        <ele>398.05477836246</ele>
        <time>2012-09-29T08:12:38Z</time>
      </trkpt>
      <trkpt lat="44.69298" lon="5.07481">
        <ele>397.70980397591</ele>
        <time>2012-09-29T08:12:44Z</time>
      </trkpt>
      <trkpt lat="44.69314" lon="5.07477">
        <ele>385.89493959189</ele>
        <time>2012-09-29T08:12:50Z</time>
      </trkpt>
      <trkpt lat="44.69324" lon="5.07483">
        <ele>384.17116080043</ele>
        <time>2012-09-29T08:12:56Z</time>
      </trkpt>
      <trkpt lat="44.69322" lon="5.07498">
        <ele>382.87890994228</ele>
        <time>2012-09-29T08:13:01Z</time>
      </trkpt>
      <trkpt lat="44.69323" lon="5.07513">
        <ele>385.89493959189</ele>
        <time>2012-09-29T08:13:07Z</time>
      </trkpt>
      <trkpt lat="44.6933" lon="5.07516">
        <ele>382.70641168267</ele>
        <time>2012-09-29T08:13:12Z</time>
      </trkpt>
      <trkpt lat="44.69338" lon="5.07514">
        <ele>378.31288470787</ele>
        <time>2012-09-29T08:13:17Z</time>
      </trkpt>
      <trkpt lat="44.69354" lon="5.07513">
        <ele>371.51123214454</ele>
        <time>2012-09-29T08:13:23Z</time>
      </trkpt>
      <trkpt lat="44.69367" lon="5.07507">
        <ele>363.93972437676</ele>
        <time>2012-09-29T08:13:29Z</time>
      </trkpt>
      <trkpt lat="44.6938" lon="5.07504">
        <ele>363.33762388792</ele>
        <time>2012-09-29T08:13:36Z</time>
      </trkpt>
      <trkpt lat="44.69398" lon="5.07499">
        <ele>367.89650769814</ele>
        <time>2012-09-29T08:13:41Z</time>
      </trkpt>
      <trkpt lat="44.69416" lon="5.07494">
        <ele>360.75796541825</ele>
        <time>2012-09-29T08:13:48Z</time>
      </trkpt>
      <trkpt lat="44.69437" lon="5.07484">
        <ele>356.80338983191</ele>
        <time>2012-09-29T08:13:55Z</time>
      </trkpt>
      <trkpt lat="44.69462" lon="5.0747">
        <ele>357.57718594626</ele>
        <time>2012-09-29T08:14:01Z</time>
      </trkpt>
      <trkpt lat="44.69482" lon="5.07455">
        <ele>350.10133034172</ele>
        <time>2012-09-29T08:14:07Z</time>
      </trkpt>
      <trkpt lat="44.69492" lon="5.07427">
        <ele>349.92990273622</ele>
        <time>2012-09-29T08:14:13Z</time>
      </trkpt>
      <trkpt lat="44.69494" lon="5.074">
        <ele>339.19905850477</ele>
        <time>2012-09-29T08:14:20Z</time>
      </trkpt>
      <trkpt lat="44.69501" lon="5.07379">
        <ele>342.46009866072</ele>
        <time>2012-09-29T08:14:25Z</time>
      </trkpt>
      <trkpt lat="44.69513" lon="5.0737">
        <ele>342.80323289111</ele>
        <time>2012-09-29T08:14:31Z</time>
      </trkpt>
      <trkpt lat="44.6953" lon="5.0736">
        <ele>335.59614027835</ele>
        <time>2012-09-29T08:14:37Z</time>
      </trkpt>
      <trkpt lat="44.69546" lon="5.07349">
        <ele>337.4830520189</ele>
        <time>2012-09-29T08:14:43Z</time>
      </trkpt>
      <trkpt lat="44.6956" lon="5.0734">
        <ele>327.87930347928</ele>
        <time>2012-09-29T08:14:49Z</time>
      </trkpt>
      <trkpt lat="44.69568" lon="5.07339">
        <ele>333.10870747521</ele>
        <time>2012-09-29T08:14:55Z</time>
      </trkpt>
      <trkpt lat="44.69585" lon="5.07347">
        <ele>327.79351181823</ele>
        <time>2012-09-29T08:15:00Z</time>
      </trkpt>
      <trkpt lat="44.69604" lon="5.07351">
        <ele>318.19875435292</ele>
        <time>2012-09-29T08:15:06Z</time>
      </trkpt>
      <trkpt lat="44.69617" lon="5.07352">
        <ele>319.8258375748</ele>
        <time>2012-09-29T08:15:12Z</time>
      </trkpt>
      <trkpt lat="44.69629" lon="5.07344">
        <ele>319.56866508336</ele>
        <time>2012-09-29T08:15:17Z</time>
      </trkpt>
      <trkpt lat="44.69646" lon="5.07348">
        <ele>317.77072712229</ele>
        <time>2012-09-29T08:15:23Z</time>
      </trkpt>
      <trkpt lat="44.69666" lon="5.07353">
        <ele>312.20641744327</ele>
        <time>2012-09-29T08:15:28Z</time>
      </trkpt>
      <trkpt lat="44.69685" lon="5.07355">
        <ele>315.716024949</ele>
        <time>2012-09-29T08:15:34Z</time>
      </trkpt>
      <trkpt lat="44.69702" lon="5.07353">
        <ele>316.31535800844</ele>
        <time>2012-09-29T08:15:40Z</time>
      </trkpt>
      <trkpt lat="44.69714" lon="5.07355">
        <ele>315.97257913903</ele>
        <time>2012-09-29T08:15:46Z</time>
      </trkpt>
      <trkpt lat="44.6973" lon="5.07355">
        <ele>314.68882691041</ele>
        <time>2012-09-29T08:15:52Z</time>
      </trkpt>
      <trkpt lat="44.6975" lon="5.07358">
        <ele>306.38877643396</ele>
        <time>2012-09-29T08:15:58Z</time>
      </trkpt>
      <trkpt lat="44.69764" lon="5.07371">
        <ele>313.31903993388</ele>
        <time>2012-09-29T08:16:04Z</time>
      </trkpt>
      <trkpt lat="44.69782" lon="5.07372">
        <ele>306.81633292868</ele>
        <time>2012-09-29T08:16:09Z</time>
      </trkpt>
      <trkpt lat="44.69811" lon="5.07367">
        <ele>305.27689904991</ele>
        <time>2012-09-29T08:16:14Z</time>
      </trkpt>
      <trkpt lat="44.69831" lon="5.07365">
        <ele>306.90195076055</ele>
        <time>2012-09-29T08:16:19Z</time>
      </trkpt>
      <trkpt lat="44.69851" lon="5.07366">
        <ele>303.99447340474</ele>
        <time>2012-09-29T08:16:25Z</time>
      </trkpt>
      <trkpt lat="44.69877" lon="5.07366">
        <ele>303.82328656618</ele>
        <time>2012-09-29T08:16:30Z</time>
      </trkpt>
      <trkpt lat="44.69891" lon="5.07366">
        <ele>306.81633292868</ele>
        <time>2012-09-29T08:16:36Z</time>
      </trkpt>
      <trkpt lat="44.69906" lon="5.0737">
        <ele>306.38877643396</ele>
        <time>2012-09-29T08:16:41Z</time>
      </trkpt>
      <trkpt lat="44.69919" lon="5.07389">
        <ele>307.24390709475</ele>
        <time>2012-09-29T08:16:47Z</time>
      </trkpt>
      <trkpt lat="44.69927" lon="5.07405">
        <ele>303.3102649259</ele>
        <time>2012-09-29T08:16:52Z</time>
      </trkpt>
      <trkpt lat="44.69937" lon="5.07412">
        <ele>305.36250414228</ele>
        <time>2012-09-29T08:16:58Z</time>
      </trkpt>
      <trkpt lat="44.69952" lon="5.07412">
        <ele>296.72830956079</ele>
        <time>2012-09-29T08:17:03Z</time>
      </trkpt>
      <trkpt lat="44.69977" lon="5.07402">
        <ele>302.28429795609</ele>
        <time>2012-09-29T08:17:10Z</time>
      </trkpt>
      <trkpt lat="44.69997" lon="5.07391">
        <ele>295.7029950026</ele>
        <time>2012-09-29T08:17:15Z</time>
      </trkpt>
      <trkpt lat="44.70014" lon="5.07381">
        <ele>294.8488176223</ele>
        <time>2012-09-29T08:17:21Z</time>
      </trkpt>
      <trkpt lat="44.70035" lon="5.07376">
        <ele>294.42123393882</ele>
        <time>2012-09-29T08:17:27Z</time>
      </trkpt>
      <trkpt lat="44.7005" lon="5.07378">
        <ele>292.62766074407</ele>
        <time>2012-09-29T08:17:32Z</time>
      </trkpt>
      <trkpt lat="44.70061" lon="5.0738">
        <ele>294.59226529206</ele>
        <time>2012-09-29T08:17:38Z</time>
      </trkpt>
      <trkpt lat="44.70076" lon="5.07383">
        <ele>298.86479486728</ele>
        <time>2012-09-29T08:17:43Z</time>
      </trkpt>
      <trkpt lat="44.70094" lon="5.07382">
        <ele>299.20700732956</ele>
        <time>2012-09-29T08:17:49Z</time>
      </trkpt>
      <trkpt lat="44.70108" lon="5.07378">
        <ele>299.54870941932</ele>
        <time>2012-09-29T08:17:55Z</time>
      </trkpt>
      <trkpt lat="44.70122" lon="5.07372">
        <ele>299.03589968364</ele>
        <time>2012-09-29T08:18:01Z</time>
      </trkpt>
      <trkpt lat="44.70135" lon="5.07377">
        <ele>295.78852091912</ele>
        <time>2012-09-29T08:18:07Z</time>
      </trkpt>
      <trkpt lat="44.70145" lon="5.07389">
        <ele>300.65997133666</ele>
        <time>2012-09-29T08:18:12Z</time>
      </trkpt>
      <trkpt lat="44.70161" lon="5.0739">
        <ele>302.4549374941</ele>
        <time>2012-09-29T08:18:18Z</time>
      </trkpt>
      <trkpt lat="44.70174" lon="5.07391">
        <ele>302.88285330071</ele>
        <time>2012-09-29T08:18:24Z</time>
      </trkpt>
      <trkpt lat="44.70188" lon="5.07393">
        <ele>295.53194529019</ele>
        <time>2012-09-29T08:18:29Z</time>
      </trkpt>
      <trkpt lat="44.70205" lon="5.07395">
        <ele>298.60866459175</ele>
        <time>2012-09-29T08:18:35Z</time>
      </trkpt>
      <trkpt lat="44.70223" lon="5.07395">
        <ele>307.75764594888</ele>
        <time>2012-09-29T08:18:41Z</time>
      </trkpt>
      <trkpt lat="44.70236" lon="5.07393">
        <ele>305.87562756215</ele>
        <time>2012-09-29T08:18:46Z</time>
      </trkpt>
      <trkpt lat="44.70244" lon="5.0739">
        <ele>311.17956786078</ele>
        <time>2012-09-29T08:18:52Z</time>
      </trkpt>
      <trkpt lat="44.70255" lon="5.07388">
        <ele>306.13245982802</ele>
        <time>2012-09-29T08:18:57Z</time>
      </trkpt>
      <trkpt lat="44.70266" lon="5.07389">
        <ele>314.34610194045</ele>
        <time>2012-09-29T08:19:03Z</time>
      </trkpt>
      <trkpt lat="44.70275" lon="5.07376">
        <ele>315.45895462836</ele>
        <time>2012-09-29T08:19:09Z</time>
      </trkpt>
      <trkpt lat="44.70281" lon="5.07361">
        <ele>308.18525902361</ele>
        <time>2012-09-29T08:19:14Z</time>
      </trkpt>
      <trkpt lat="44.70285" lon="5.07358">
        <ele>312.12075569696</ele>
        <time>2012-09-29T08:19:19Z</time>
      </trkpt>
      <trkpt lat="44.7029" lon="5.07351">
        <ele>318.37017926174</ele>
        <time>2012-09-29T08:19:24Z</time>
      </trkpt>
      <trkpt lat="44.703" lon="5.0735">
        <ele>316.40053195911</ele>
        <time>2012-09-29T08:19:30Z</time>
      </trkpt>
      <trkpt lat="44.70314" lon="5.0736">
        <ele>304.07954596653</ele>
        <time>2012-09-29T08:19:36Z</time>
      </trkpt>
      <trkpt lat="44.70325" lon="5.07378">
        <ele>308.01400282532</ele>
        <time>2012-09-29T08:19:42Z</time>
      </trkpt>
      <trkpt lat="44.70336" lon="5.07397">
        <ele>302.62610169291</ele>
        <time>2012-09-29T08:19:47Z</time>
      </trkpt>
      <trkpt lat="44.7035" lon="5.07413">
        <ele>302.19871833003</ele>
        <time>2012-09-29T08:19:53Z</time>
      </trkpt>
      <trkpt lat="44.70365" lon="5.0742">
        <ele>293.14015298938</ele>
        <time>2012-09-29T08:19:59Z</time>
      </trkpt>
      <trkpt lat="44.70377" lon="5.07422">
        <ele>299.29204053538</ele>
        <time>2012-09-29T08:20:05Z</time>
      </trkpt>
      <trkpt lat="44.70397" lon="5.07428">
        <ele>301.00172141513</ele>
        <time>2012-09-29T08:20:10Z</time>
      </trkpt>
      <trkpt lat="44.70414" lon="5.0743">
        <ele>298.18092551767</ele>
        <time>2012-09-29T08:20:15Z</time>
      </trkpt>
      <trkpt lat="44.70434" lon="5.07439">
        <ele>301.77135262091</ele>
        <time>2012-09-29T08:20:22Z</time>
      </trkpt>
      <trkpt lat="44.70454" lon="5.07445">
        <ele>297.41208290759</ele>
        <time>2012-09-29T08:20:28Z</time>
      </trkpt>
      <trkpt lat="44.70473" lon="5.07448">
        <ele>295.10485484611</ele>
        <time>2012-09-29T08:20:33Z</time>
      </trkpt>
      <trkpt lat="44.70488" lon="5.07442">
        <ele>290.40698050579</ele>
        <time>2012-09-29T08:20:39Z</time>
      </trkpt>
      <trkpt lat="44.70503" lon="5.07426">
        <ele>291.51726105922</ele>
        <time>2012-09-29T08:20:44Z</time>
      </trkpt>
      <trkpt lat="44.70517" lon="5.07408">
        <ele>293.65267061672</ele>
        <time>2012-09-29T08:20:49Z</time>
      </trkpt>
      <trkpt lat="44.70527" lon="5.07388">
        <ele>287.75998925676</ele>
        <time>2012-09-29T08:20:54Z</time>
      </trkpt>
      <trkpt lat="44.70532" lon="5.07361">
        <ele>289.21134677293</ele>
        <time>2012-09-29T08:21:01Z</time>
      </trkpt>
      <trkpt lat="44.70535" lon="5.07334">
        <ele>293.56716235112</ele>
        <time>2012-09-29T08:21:06Z</time>
      </trkpt>
      <trkpt lat="44.70535" lon="5.07312">
        <ele>292.71316124688</ele>
        <time>2012-09-29T08:21:12Z</time>
      </trkpt>
      <trkpt lat="44.70532" lon="5.07289">
        <ele>290.57794552692</ele>
        <time>2012-09-29T08:21:18Z</time>
      </trkpt>
      <trkpt lat="44.70538" lon="5.07263">
        <ele>287.33321943338</ele>
        <time>2012-09-29T08:21:25Z</time>
      </trkpt>
      <trkpt lat="44.7054" lon="5.07236">
        <ele>285.02823708127</ele>
        <time>2012-09-29T08:21:30Z</time>
      </trkpt>
      <trkpt lat="44.70538" lon="5.07212">
        <ele>281.69983981717</ele>
        <time>2012-09-29T08:21:35Z</time>
      </trkpt>
      <trkpt lat="44.70536" lon="5.07188">
        <ele>271.89224139428</ele>
        <time>2012-09-29T08:21:41Z</time>
      </trkpt>
      <trkpt lat="44.70537" lon="5.07161">
        <ele>269.16467283709</ele>
        <time>2012-09-29T08:21:46Z</time>
      </trkpt>
      <trkpt lat="44.70539" lon="5.07132">
        <ele>271.46612524921</ele>
        <time>2012-09-29T08:21:53Z</time>
      </trkpt>
      <trkpt lat="44.70541" lon="5.07108">
        <ele>265.41550389796</ele>
        <time>2012-09-29T08:21:59Z</time>
      </trkpt>
      <trkpt lat="44.70547" lon="5.07096">
        <ele>270.10204717461</ele>
        <time>2012-09-29T08:22:04Z</time>
      </trkpt>
      <trkpt lat="44.70556" lon="5.07081">
        <ele>270.69874418893</ele>
        <time>2012-09-29T08:22:10Z</time>
      </trkpt>
      <trkpt lat="44.70564" lon="5.07062">
        <ele>268.99406110989</ele>
        <time>2012-09-29T08:22:16Z</time>
      </trkpt>
      <trkpt lat="44.70565" lon="5.07038">
        <ele>265.75609226076</ele>
        <time>2012-09-29T08:22:22Z</time>
      </trkpt>
      <trkpt lat="44.70554" lon="5.07023">
        <ele>257.15485783991</ele>
        <time>2012-09-29T08:22:28Z</time>
      </trkpt>
      <trkpt lat="44.70533" lon="5.07025">
        <ele>258.85759288823</ele>
        <time>2012-09-29T08:22:33Z</time>
      </trkpt>
      <trkpt lat="44.70515" lon="5.07037">
        <ele>255.36772882548</ele>
        <time>2012-09-29T08:22:39Z</time>
      </trkpt>
      <trkpt lat="44.705" lon="5.07052">
        <ele>257.66559700207</ele>
        <time>2012-09-29T08:22:45Z</time>
      </trkpt>
      <trkpt lat="44.70495" lon="5.07068">
        <ele>242.353847802</ele>
        <time>2012-09-29T08:22:50Z</time>
      </trkpt>
      <trkpt lat="44.70487" lon="5.07079">
        <ele>251.62355054113</ele>
        <time>2012-09-29T08:22:56Z</time>
      </trkpt>
      <trkpt lat="44.70477" lon="5.07066">
        <ele>248.47614321721</ele>
        <time>2012-09-29T08:23:01Z</time>
      </trkpt>
      <trkpt lat="44.70475" lon="5.07038">
        <ele>240.82396878501</ele>
        <time>2012-09-29T08:23:07Z</time>
      </trkpt>
      <trkpt lat="44.70472" lon="5.07015">
        <ele>239.03913607956</ele>
        <time>2012-09-29T08:23:12Z</time>
      </trkpt>
      <trkpt lat="44.70469" lon="5.06994">
        <ele>246.26491133559</ele>
        <time>2012-09-29T08:23:18Z</time>
      </trkpt>
      <trkpt lat="44.70452" lon="5.06981">
        <ele>244.64934946886</ele>
        <time>2012-09-29T08:23:25Z</time>
      </trkpt>
      <trkpt lat="44.70432" lon="5.06973">
        <ele>248.90131443386</ele>
        <time>2012-09-29T08:23:30Z</time>
      </trkpt>
      <trkpt lat="44.70417" lon="5.06968">
        <ele>248.30587197053</ele>
        <time>2012-09-29T08:23:36Z</time>
      </trkpt>
      <trkpt lat="44.70402" lon="5.06961">
        <ele>247.8807251922</ele>
        <time>2012-09-29T08:23:42Z</time>
      </trkpt>
      <trkpt lat="44.70386" lon="5.06955">
        <ele>243.03403950419</ele>
        <time>2012-09-29T08:23:49Z</time>
      </trkpt>
      <trkpt lat="44.70369" lon="5.06952">
        <ele>244.13925168652</ele>
        <time>2012-09-29T08:23:56Z</time>
      </trkpt>
      <trkpt lat="44.70354" lon="5.06945">
        <ele>250.26208345368</ele>
        <time>2012-09-29T08:24:02Z</time>
      </trkpt>
      <trkpt lat="44.70346" lon="5.06937">
        <ele>247.5402050705</ele>
        <time>2012-09-29T08:24:08Z</time>
      </trkpt>
      <trkpt lat="44.70347" lon="5.06922">
        <ele>248.22073739672</ele>
        <time>2012-09-29T08:24:13Z</time>
      </trkpt>
      <trkpt lat="44.70342" lon="5.06905">
        <ele>247.96585697165</ele>
        <time>2012-09-29T08:24:19Z</time>
      </trkpt>
      <trkpt lat="44.7033" lon="5.06895">
        <ele>256.72934770018</ele>
        <time>2012-09-29T08:24:25Z</time>
      </trkpt>
      <trkpt lat="44.7032" lon="5.06891">
        <ele>257.83602218449</ele>
        <time>2012-09-29T08:24:30Z</time>
      </trkpt>
      <trkpt lat="44.7031" lon="5.06894">
        <ele>258.60245058093</ele>
        <time>2012-09-29T08:24:35Z</time>
      </trkpt>
      <trkpt lat="44.703" lon="5.06894">
        <ele>259.02803768727</ele>
        <time>2012-09-29T08:24:41Z</time>
      </trkpt>
      <trkpt lat="44.70284" lon="5.06893">
        <ele>257.24006587842</ele>
        <time>2012-09-29T08:24:46Z</time>
      </trkpt>
      <trkpt lat="44.7027" lon="5.06885">
        <ele>257.83602218449</ele>
        <time>2012-09-29T08:24:53Z</time>
      </trkpt>
      <trkpt lat="44.70258" lon="5.06877">
        <ele>258.85759288823</ele>
        <time>2012-09-29T08:24:59Z</time>
      </trkpt>
      <trkpt lat="44.70243" lon="5.06868">
        <ele>259.96449482812</ele>
        <time>2012-09-29T08:25:04Z</time>
      </trkpt>
      <trkpt lat="44.7023" lon="5.06867">
        <ele>259.6240968928</ele>
        <time>2012-09-29T08:25:09Z</time>
      </trkpt>
      <trkpt lat="44.70221" lon="5.06866">
        <ele>262.4338841353</ele>
        <time>2012-09-29T08:25:15Z</time>
      </trkpt>
      <trkpt lat="44.7021" lon="5.06862">
        <ele>261.24199633153</ele>
        <time>2012-09-29T08:25:21Z</time>
      </trkpt>
      <trkpt lat="44.70202" lon="5.06863">
        <ele>265.75609226076</ele>
        <time>2012-09-29T08:25:26Z</time>
      </trkpt>
      <trkpt lat="44.70191" lon="5.06866">
        <ele>270.69874418893</ele>
        <time>2012-09-29T08:25:33Z</time>
      </trkpt>
      <trkpt lat="44.70179" lon="5.06871">
        <ele>269.59069427169</ele>
        <time>2012-09-29T08:25:39Z</time>
      </trkpt>
      <trkpt lat="44.70168" lon="5.06881">
        <ele>272.23304287479</ele>
        <time>2012-09-29T08:25:45Z</time>
      </trkpt>
      <trkpt lat="44.70152" lon="5.06897">
        <ele>270.52810718135</ele>
        <time>2012-09-29T08:25:51Z</time>
      </trkpt>
      <trkpt lat="44.70141" lon="5.06908">
        <ele>271.89224139428</ele>
        <time>2012-09-29T08:25:56Z</time>
      </trkpt>
      <trkpt lat="44.7013" lon="5.06922">
        <ele>270.35799320789</ele>
        <time>2012-09-29T08:26:02Z</time>
      </trkpt>
      <trkpt lat="44.70114" lon="5.06942">
        <ele>275.30232254985</ele>
        <time>2012-09-29T08:26:08Z</time>
      </trkpt>
      <trkpt lat="44.70101" lon="5.0695">
        <ele>276.92267385224</ele>
        <time>2012-09-29T08:26:14Z</time>
      </trkpt>
      <trkpt lat="44.70091" lon="5.06958">
        <ele>279.3966321599</ele>
        <time>2012-09-29T08:26:20Z</time>
      </trkpt>
      <trkpt lat="44.70084" lon="5.06963">
        <ele>274.87606602949</ele>
        <time>2012-09-29T08:26:25Z</time>
      </trkpt>
      <trkpt lat="44.70073" lon="5.06968">
        <ele>277.94612951222</ele>
        <time>2012-09-29T08:26:30Z</time>
      </trkpt>
      <trkpt lat="44.70058" lon="5.06973">
        <ele>282.04148514075</ele>
        <time>2012-09-29T08:26:35Z</time>
      </trkpt>
      <trkpt lat="44.70045" lon="5.06974">
        <ele>283.57746599914</ele>
        <time>2012-09-29T08:26:41Z</time>
      </trkpt>
      <trkpt lat="44.70033" lon="5.06981">
        <ele>275.21696574848</ele>
        <time>2012-09-29T08:26:47Z</time>
      </trkpt>
      <trkpt lat="44.70021" lon="5.06989">
        <ele>287.24776336613</ele>
        <time>2012-09-29T08:26:52Z</time>
      </trkpt>
      <trkpt lat="44.7001" lon="5.06992">
        <ele>284.51614636551</ele>
        <time>2012-09-29T08:26:58Z</time>
      </trkpt>
      <trkpt lat="44.69999" lon="5.06992">
        <ele>286.82101466344</ele>
        <time>2012-09-29T08:27:04Z</time>
      </trkpt>
      <trkpt lat="44.69986" lon="5.06994">
        <ele>291.4317704364</ele>
        <time>2012-09-29T08:27:11Z</time>
      </trkpt>
      <trkpt lat="44.69983" lon="5.07001">
        <ele>286.5646612654</ele>
        <time>2012-09-29T08:27:16Z</time>
      </trkpt>
      <trkpt lat="44.6998" lon="5.07007">
        <ele>290.57794552692</ele>
        <time>2012-09-29T08:27:22Z</time>
      </trkpt>
      <trkpt lat="44.69972" lon="5.0701">
        <ele>291.0048491761</ele>
        <time>2012-09-29T08:27:28Z</time>
      </trkpt>
      <trkpt lat="44.6996" lon="5.07012">
        <ele>295.53194529019</ele>
        <time>2012-09-29T08:27:35Z</time>
      </trkpt>
      <trkpt lat="44.69949" lon="5.07012">
        <ele>293.56716235112</ele>
        <time>2012-09-29T08:27:40Z</time>
      </trkpt>
      <trkpt lat="44.69937" lon="5.07003">
        <ele>300.14710652254</ele>
        <time>2012-09-29T08:27:46Z</time>
      </trkpt>
      <trkpt lat="44.6991" lon="5.06993">
        <ele>296.72830956079</ele>
        <time>2012-09-29T08:27:52Z</time>
      </trkpt>
      <trkpt lat="44.69889" lon="5.06984">
        <ele>297.32654357074</ele>
        <time>2012-09-29T08:27:57Z</time>
      </trkpt>
      <trkpt lat="44.6988" lon="5.06972">
        <ele>296.98491485649</ele>
        <time>2012-09-29T08:28:03Z</time>
      </trkpt>
      <trkpt lat="44.69876" lon="5.0696">
        <ele>303.48144327593</ele>
        <time>2012-09-29T08:28:08Z</time>
      </trkpt>
      <trkpt lat="44.69868" lon="5.0695">
        <ele>302.02756120155</ele>
        <time>2012-09-29T08:28:15Z</time>
      </trkpt>
      <trkpt lat="44.69858" lon="5.06939">
        <ele>304.42193095703</ele>
        <time>2012-09-29T08:28:22Z</time>
      </trkpt>
      <trkpt lat="44.69844" lon="5.06927">
        <ele>302.11313941186</ele>
        <time>2012-09-29T08:28:28Z</time>
      </trkpt>
      <trkpt lat="44.69828" lon="5.06918">
        <ele>305.36250414228</ele>
        <time>2012-09-29T08:28:33Z</time>
      </trkpt>
      <trkpt lat="44.69817" lon="5.06908">
        <ele>303.13908940805</ele>
        <time>2012-09-29T08:28:38Z</time>
      </trkpt>
      <trkpt lat="44.69812" lon="5.06897">
        <ele>308.01400282532</ele>
        <time>2012-09-29T08:28:45Z</time>
      </trkpt>
      <trkpt lat="44.69805" lon="5.06884">
        <ele>302.11313941186</ele>
        <time>2012-09-29T08:28:51Z</time>
      </trkpt>
      <trkpt lat="44.69796" lon="5.0687">
        <ele>305.19129466589</ele>
        <time>2012-09-29T08:28:58Z</time>
      </trkpt>
      <trkpt lat="44.69787" lon="5.06858">
        <ele>308.95490267108</ele>
        <time>2012-09-29T08:29:03Z</time>
      </trkpt>
      <trkpt lat="44.69781" lon="5.06843">
        <ele>309.81076769913</ele>
        <time>2012-09-29T08:29:08Z</time>
      </trkpt>
      <trkpt lat="44.69764" lon="5.06829">
        <ele>303.13908940805</ele>
        <time>2012-09-29T08:29:14Z</time>
      </trkpt>
      <trkpt lat="44.69751" lon="5.06822">
        <ele>307.0731885501</ele>
        <time>2012-09-29T08:29:19Z</time>
      </trkpt>
      <trkpt lat="44.69731" lon="5.0681">
        <ele>307.32952846541</ele>
        <time>2012-09-29T08:29:25Z</time>
      </trkpt>
      <trkpt lat="44.69714" lon="5.06801">
        <ele>310.15282020281</ele>
        <time>2012-09-29T08:29:31Z</time>
      </trkpt>
      <trkpt lat="44.69696" lon="5.06795">
        <ele>311.52166563044</ele>
        <time>2012-09-29T08:29:36Z</time>
      </trkpt>
      <trkpt lat="44.69688" lon="5.06793">
        <ele>311.43653184559</ele>
        <time>2012-09-29T08:29:42Z</time>
      </trkpt>
      <trkpt lat="44.69679" lon="5.06785">
        <ele>312.54907152269</ele>
        <time>2012-09-29T08:29:48Z</time>
      </trkpt>
      <trkpt lat="44.69666" lon="5.06786">
        <ele>306.90195076055</ele>
        <time>2012-09-29T08:29:53Z</time>
      </trkpt>
      <trkpt lat="44.6965" lon="5.0679">
        <ele>304.59260575592</ele>
        <time>2012-09-29T08:29:58Z</time>
      </trkpt>
      <trkpt lat="44.69631" lon="5.06792">
        <ele>313.66120847031</ele>
        <time>2012-09-29T08:30:04Z</time>
      </trkpt>
      <trkpt lat="44.6962" lon="5.06796">
        <ele>311.60732241558</ele>
        <time>2012-09-29T08:30:09Z</time>
      </trkpt>
      <trkpt lat="44.69605" lon="5.06801">
        <ele>313.74688297498</ele>
        <time>2012-09-29T08:30:15Z</time>
      </trkpt>
      <trkpt lat="44.6959" lon="5.06805">
        <ele>308.61288977493</ele>
        <time>2012-09-29T08:30:21Z</time>
      </trkpt>
      <trkpt lat="44.69574" lon="5.06802">
        <ele>315.28757796415</ele>
        <time>2012-09-29T08:30:27Z</time>
      </trkpt>
      <trkpt lat="44.69562" lon="5.06792">
        <ele>314.26042247233</ele>
        <time>2012-09-29T08:30:33Z</time>
      </trkpt>
      <trkpt lat="44.69548" lon="5.06779">
        <ele>316.57192706543</ele>
        <time>2012-09-29T08:30:39Z</time>
      </trkpt>
      <trkpt lat="44.69535" lon="5.06764">
        <ele>317.25701330988</ele>
        <time>2012-09-29T08:30:45Z</time>
      </trkpt>
      <trkpt lat="44.69521" lon="5.06752">
        <ele>314.94535562239</ele>
        <time>2012-09-29T08:30:50Z</time>
      </trkpt>
      <trkpt lat="44.69513" lon="5.06741">
        <ele>315.97257913903</ele>
        <time>2012-09-29T08:30:56Z</time>
      </trkpt>
      <trkpt lat="44.69504" lon="5.06733">
        <ele>322.90926917385</ele>
        <time>2012-09-29T08:31:01Z</time>
      </trkpt>
      <trkpt lat="44.69494" lon="5.06727">
        <ele>318.79823130231</ele>
        <time>2012-09-29T08:31:06Z</time>
      </trkpt>
      <trkpt lat="44.69484" lon="5.06723">
        <ele>324.53709374002</ele>
        <time>2012-09-29T08:31:13Z</time>
      </trkpt>
      <trkpt lat="44.6947" lon="5.06724">
        <ele>325.73681751758</ele>
        <time>2012-09-29T08:31:20Z</time>
      </trkpt>
      <trkpt lat="44.6945" lon="5.06729">
        <ele>317.08560685034</ele>
        <time>2012-09-29T08:31:25Z</time>
      </trkpt>
      <trkpt lat="44.69434" lon="5.06729">
        <ele>319.05486196045</ele>
        <time>2012-09-29T08:31:30Z</time>
      </trkpt>
      <trkpt lat="44.69421" lon="5.06725">
        <ele>327.53666421055</ele>
        <time>2012-09-29T08:31:36Z</time>
      </trkpt>
      <trkpt lat="44.69408" lon="5.06721">
        <ele>328.56513923732</ele>
        <time>2012-09-29T08:31:41Z</time>
      </trkpt>
      <trkpt lat="44.69394" lon="5.06719">
        <ele>325.99362042186</ele>
        <time>2012-09-29T08:31:47Z</time>
      </trkpt>
      <trkpt lat="44.69381" lon="5.06717">
        <ele>330.70821137438</ele>
        <time>2012-09-29T08:31:53Z</time>
      </trkpt>
      <trkpt lat="44.69364" lon="5.06714">
        <ele>323.42326383412</ele>
        <time>2012-09-29T08:31:58Z</time>
      </trkpt>
      <trkpt lat="44.69354" lon="5.06714">
        <ele>331.30841397577</ele>
        <time>2012-09-29T08:32:04Z</time>
      </trkpt>
      <trkpt lat="44.69337" lon="5.06716">
        <ele>326.25095274352</ele>
        <time>2012-09-29T08:32:10Z</time>
      </trkpt>
      <trkpt lat="44.69317" lon="5.06713">
        <ele>327.96509585214</ele>
        <time>2012-09-29T08:32:15Z</time>
      </trkpt>
      <trkpt lat="44.69305" lon="5.06713">
        <ele>328.47934188573</ele>
        <time>2012-09-29T08:32:20Z</time>
      </trkpt>
      <trkpt lat="44.69293" lon="5.06712">
        <ele>330.79350395328</ele>
        <time>2012-09-29T08:32:26Z</time>
      </trkpt>
      <trkpt lat="44.69277" lon="5.06708">
        <ele>330.96513777825</ele>
        <time>2012-09-29T08:32:31Z</time>
      </trkpt>
      <trkpt lat="44.69265" lon="5.06697">
        <ele>328.22195410234</ele>
        <time>2012-09-29T08:32:36Z</time>
      </trkpt>
      <trkpt lat="44.6926" lon="5.06688">
        <ele>333.45205485129</ele>
        <time>2012-09-29T08:32:42Z</time>
      </trkpt>
      <trkpt lat="44.69248" lon="5.06679">
        <ele>339.11317286133</ele>
        <time>2012-09-29T08:32:48Z</time>
      </trkpt>
      <trkpt lat="44.69239" lon="5.06669">
        <ele>341.00072672357</ele>
        <time>2012-09-29T08:32:53Z</time>
      </trkpt>
      <trkpt lat="44.69241" lon="5.06659">
        <ele>337.99777169287</ele>
        <time>2012-09-29T08:32:58Z</time>
      </trkpt>
      <trkpt lat="44.6924" lon="5.06645">
        <ele>338.42663705629</ele>
        <time>2012-09-29T08:33:04Z</time>
      </trkpt>
      <trkpt lat="44.69238" lon="5.06638">
        <ele>342.2023625773</ele>
        <time>2012-09-29T08:33:10Z</time>
      </trkpt>
      <trkpt lat="44.69236" lon="5.06634">
        <ele>341.60152718963</ele>
        <time>2012-09-29T08:33:15Z</time>
      </trkpt>
      <trkpt lat="44.69232" lon="5.06622">
        <ele>342.71731729729</ele>
        <time>2012-09-29T08:33:21Z</time>
      </trkpt>
      <trkpt lat="44.69223" lon="5.06607">
        <ele>346.15135390539</ele>
        <time>2012-09-29T08:33:27Z</time>
      </trkpt>
      <trkpt lat="44.69216" lon="5.06594">
        <ele>351.73344257926</ele>
        <time>2012-09-29T08:33:32Z</time>
      </trkpt>
      <trkpt lat="44.69205" lon="5.06584">
        <ele>347.52497360056</ele>
        <time>2012-09-29T08:33:38Z</time>
      </trkpt>
      <trkpt lat="44.69187" lon="5.06573">
        <ele>347.86880015156</ele>
        <time>2012-09-29T08:33:43Z</time>
      </trkpt>
      <trkpt lat="44.69178" lon="5.06568">
        <ele>347.43901874995</ele>
        <time>2012-09-29T08:33:48Z</time>
      </trkpt>
      <trkpt lat="44.69168" lon="5.0657">
        <ele>346.58055769579</ele>
        <time>2012-09-29T08:33:55Z</time>
      </trkpt>
      <trkpt lat="44.69156" lon="5.06579">
        <ele>354.56888701592</ele>
        <time>2012-09-29T08:34:00Z</time>
      </trkpt>
      <trkpt lat="44.69145" lon="5.06596">
        <ele>347.86880015156</ele>
        <time>2012-09-29T08:34:05Z</time>
      </trkpt>
      <trkpt lat="44.69134" lon="5.06615">
        <ele>350.4452426139</ele>
        <time>2012-09-29T08:34:11Z</time>
      </trkpt>
      <trkpt lat="44.69124" lon="5.06633">
        <ele>355.17047674442</ele>
        <time>2012-09-29T08:34:18Z</time>
      </trkpt>
      <trkpt lat="44.69112" lon="5.06648">
        <ele>353.96733230709</ele>
        <time>2012-09-29T08:34:24Z</time>
      </trkpt>
      <trkpt lat="44.69102" lon="5.06656">
        <ele>358.35051534394</ele>
        <time>2012-09-29T08:34:29Z</time>
      </trkpt>
      <trkpt lat="44.69091" lon="5.06664">
        <ele>362.82164066531</ele>
        <time>2012-09-29T08:34:35Z</time>
      </trkpt>
      <trkpt lat="44.69081" lon="5.06671">
        <ele>359.03837594513</ele>
        <time>2012-09-29T08:34:41Z</time>
      </trkpt>
      <trkpt lat="44.6907" lon="5.0668">
        <ele>366.60629121732</ele>
        <time>2012-09-29T08:34:48Z</time>
      </trkpt>
      <trkpt lat="44.69057" lon="5.0669">
        <ele>366.17625486181</ele>
        <time>2012-09-29T08:34:54Z</time>
      </trkpt>
      <trkpt lat="44.69047" lon="5.06696">
        <ele>364.88572818782</ele>
        <time>2012-09-29T08:34:59Z</time>
      </trkpt>
      <trkpt lat="44.69037" lon="5.067">
        <ele>367.12246349617</ele>
        <time>2012-09-29T08:35:05Z</time>
      </trkpt>
      <trkpt lat="44.69024" lon="5.06708">
        <ele>369.01514079582</ele>
        <time>2012-09-29T08:35:10Z</time>
      </trkpt>
      <trkpt lat="44.69014" lon="5.06713">
        <ele>365.14350561966</ele>
        <time>2012-09-29T08:35:16Z</time>
      </trkpt>
      <trkpt lat="44.69005" lon="5.06718">
        <ele>367.38029674453</ele>
        <time>2012-09-29T08:35:22Z</time>
      </trkpt>
      <trkpt lat="44.68996" lon="5.06721">
        <ele>375.38472952085</ele>
        <time>2012-09-29T08:35:28Z</time>
      </trkpt>
      <trkpt lat="44.68986" lon="5.06721">
        <ele>375.64329462436</ele>
        <time>2012-09-29T08:35:33Z</time>
      </trkpt>
      <trkpt lat="44.68978" lon="5.0672">
        <ele>375.04051163247</ele>
        <time>2012-09-29T08:35:38Z</time>
      </trkpt>
      <trkpt lat="44.6897" lon="5.06723">
        <ele>379.51886792245</ele>
        <time>2012-09-29T08:35:45Z</time>
      </trkpt>
      <trkpt lat="44.68963" lon="5.06724">
        <ele>382.62016363333</ele>
        <time>2012-09-29T08:35:51Z</time>
      </trkpt>
      <trkpt lat="44.68955" lon="5.06726">
        <ele>378.82964231292</ele>
        <time>2012-09-29T08:35:56Z</time>
      </trkpt>
      <trkpt lat="44.68947" lon="5.0673">
        <ele>382.18946006933</ele>
        <time>2012-09-29T08:36:01Z</time>
      </trkpt>
      <trkpt lat="44.68939" lon="5.06732">
        <ele>383.74039254718</ele>
        <time>2012-09-29T08:36:07Z</time>
      </trkpt>
      <trkpt lat="44.68931" lon="5.06735">
        <ele>390.20538276025</ele>
        <time>2012-09-29T08:36:13Z</time>
      </trkpt>
      <trkpt lat="44.68927" lon="5.06743">
        <ele>388.91185037978</ele>
        <time>2012-09-29T08:36:19Z</time>
      </trkpt>
      <trkpt lat="44.6892" lon="5.06753">
        <ele>388.04993625966</ele>
        <time>2012-09-29T08:36:25Z</time>
      </trkpt>
      <trkpt lat="44.68917" lon="5.06764">
        <ele>388.6534790726</ele>
        <time>2012-09-29T08:36:30Z</time>
      </trkpt>
      <trkpt lat="44.68918" lon="5.06776">
        <ele>396.24313317885</ele>
        <time>2012-09-29T08:36:35Z</time>
      </trkpt>
      <trkpt lat="44.68924" lon="5.06783">
        <ele>395.81186101531</ele>
        <time>2012-09-29T08:36:40Z</time>
      </trkpt>
      <trkpt lat="44.68933" lon="5.06785">
        <ele>394.5176260997</ele>
        <time>2012-09-29T08:36:45Z</time>
      </trkpt>
      <trkpt lat="44.68941" lon="5.06792">
        <ele>395.72550343074</ele>
        <time>2012-09-29T08:36:51Z</time>
      </trkpt>
      <trkpt lat="44.68942" lon="5.068">
        <ele>398.74528844294</ele>
        <time>2012-09-29T08:36:57Z</time>
      </trkpt>
      <trkpt lat="44.68946" lon="5.0681">
        <ele>400.21231478803</ele>
        <time>2012-09-29T08:37:03Z</time>
      </trkpt>
      <trkpt lat="44.68954" lon="5.06817">
        <ele>400.04005349549</ele>
        <time>2012-09-29T08:37:08Z</time>
      </trkpt>
      <trkpt lat="44.68961" lon="5.06828">
        <ele>402.71595932408</ele>
        <time>2012-09-29T08:37:14Z</time>
      </trkpt>
      <trkpt lat="44.68967" lon="5.06834">
        <ele>398.31391174294</ele>
        <time>2012-09-29T08:37:20Z</time>
      </trkpt>
      <trkpt lat="44.68972" lon="5.06841">
        <ele>407.72401651422</ele>
        <time>2012-09-29T08:37:26Z</time>
      </trkpt>
      <trkpt lat="44.68981" lon="5.06847">
        <ele>404.70160414788</ele>
        <time>2012-09-29T08:37:32Z</time>
      </trkpt>
      <trkpt lat="44.68982" lon="5.06852">
        <ele>407.29226443816</ele>
        <time>2012-09-29T08:37:38Z</time>
      </trkpt>
      <trkpt lat="44.68969" lon="5.06855">
        <ele>413.34002009878</ele>
        <time>2012-09-29T08:37:43Z</time>
      </trkpt>
      <trkpt lat="44.68961" lon="5.06856">
        <ele>409.10637723955</ele>
        <time>2012-09-29T08:37:49Z</time>
      </trkpt>
      <trkpt lat="44.68949" lon="5.06852">
        <ele>410.8343248816</ele>
        <time>2012-09-29T08:37:55Z</time>
      </trkpt>
      <trkpt lat="44.68936" lon="5.06851">
        <ele>415.76032606893</ele>
        <time>2012-09-29T08:38:00Z</time>
      </trkpt>
      <trkpt lat="44.68923" lon="5.06853">
        <ele>414.89563982398</ele>
        <time>2012-09-29T08:38:06Z</time>
      </trkpt>
      <trkpt lat="44.68911" lon="5.06859">
        <ele>415.41423184705</ele>
        <time>2012-09-29T08:38:11Z</time>
      </trkpt>
      <trkpt lat="44.68908" lon="5.06862">
        <ele>413.68551727827</ele>
        <time>2012-09-29T08:38:17Z</time>
      </trkpt>
      <trkpt lat="44.68904" lon="5.06869">
        <ele>419.39132193627</ele>
        <time>2012-09-29T08:38:23Z</time>
      </trkpt>
      <trkpt lat="44.68899" lon="5.06883">
        <ele>419.65046378558</ele>
        <time>2012-09-29T08:38:28Z</time>
      </trkpt>
      <trkpt lat="44.68894" lon="5.06893">
        <ele>426.1379917461</ele>
        <time>2012-09-29T08:38:34Z</time>
      </trkpt>
      <trkpt lat="44.68893" lon="5.06906">
        <ele>420.77471865577</ele>
        <time>2012-09-29T08:38:39Z</time>
      </trkpt>
      <trkpt lat="44.68891" lon="5.06916">
        <ele>420.86128608164</ele>
        <time>2012-09-29T08:38:45Z</time>
      </trkpt>
      <trkpt lat="44.68888" lon="5.06922">
        <ele>417.74848235964</ele>
        <time>2012-09-29T08:38:51Z</time>
      </trkpt>
      <trkpt lat="44.68882" lon="5.06928">
        <ele>427.34957566419</ele>
        <time>2012-09-29T08:38:56Z</time>
      </trkpt>
      <trkpt lat="44.68875" lon="5.06936">
        <ele>432.54346395383</ele>
        <time>2012-09-29T08:39:03Z</time>
      </trkpt>
      <trkpt lat="44.68869" lon="5.06951">
        <ele>428.73456817994</ele>
        <time>2012-09-29T08:39:08Z</time>
      </trkpt>
      <trkpt lat="44.68866" lon="5.06971">
        <ele>437.13301976601</ele>
        <time>2012-09-29T08:39:14Z</time>
      </trkpt>
      <trkpt lat="44.68864" lon="5.06989">
        <ele>432.45679844999</ele>
        <time>2012-09-29T08:39:19Z</time>
      </trkpt>
      <trkpt lat="44.68864" lon="5.07005">
        <ele>433.84194834264</ele>
        <time>2012-09-29T08:39:25Z</time>
      </trkpt>
      <trkpt lat="44.68861" lon="5.07024">
        <ele>438.17246801919</ele>
        <time>2012-09-29T08:39:32Z</time>
      </trkpt>
      <trkpt lat="44.68856" lon="5.07051">
        <ele>435.66073546546</ele>
        <time>2012-09-29T08:39:38Z</time>
      </trkpt>
      <trkpt lat="44.68856" lon="5.07071">
        <ele>441.03175541906</ele>
        <time>2012-09-29T08:39:43Z</time>
      </trkpt>
      <trkpt lat="44.68851" lon="5.07084">
        <ele>431.07130615179</ele>
        <time>2012-09-29T08:39:49Z</time>
      </trkpt>
      <trkpt lat="44.6884" lon="5.07093">
        <ele>437.56602235664</ele>
        <time>2012-09-29T08:39:54Z</time>
      </trkpt>
      <trkpt lat="44.68833" lon="5.07101">
        <ele>443.45803848017</ele>
        <time>2012-09-29T08:40:00Z</time>
      </trkpt>
      <trkpt lat="44.6883" lon="5.07108">
        <ele>439.1252994851</ele>
        <time>2012-09-29T08:40:05Z</time>
      </trkpt>
      <trkpt lat="44.68823" lon="5.07119">
        <ele>445.79864394431</ele>
        <time>2012-09-29T08:40:10Z</time>
      </trkpt>
      <trkpt lat="44.68821" lon="5.07138">
        <ele>445.45206962075</ele>
        <time>2012-09-29T08:40:17Z</time>
      </trkpt>
      <trkpt lat="44.68819" lon="5.07159">
        <ele>447.3591663702</ele>
        <time>2012-09-29T08:40:22Z</time>
      </trkpt>
      <trkpt lat="44.68815" lon="5.07181">
        <ele>444.67165863543</ele>
        <time>2012-09-29T08:40:27Z</time>
      </trkpt>
      <trkpt lat="44.68805" lon="5.07201">
        <ele>443.89183573516</ele>
        <time>2012-09-29T08:40:34Z</time>
      </trkpt>
      <trkpt lat="44.6879" lon="5.0721">
        <ele>441.89810621742</ele>
        <time>2012-09-29T08:40:39Z</time>
      </trkpt>
      <trkpt lat="44.68784" lon="5.07213">
        <ele>446.23201051671</ele>
        <time>2012-09-29T08:40:45Z</time>
      </trkpt>
      <trkpt lat="44.68774" lon="5.07218">
        <ele>438.95238734865</ele>
        <time>2012-09-29T08:40:51Z</time>
      </trkpt>
      <trkpt lat="44.68759" lon="5.07222">
        <ele>447.70633402233</ele>
        <time>2012-09-29T08:40:56Z</time>
      </trkpt>
      <trkpt lat="44.68749" lon="5.07223">
        <ele>447.01253959774</ele>
        <time>2012-09-29T08:41:01Z</time>
      </trkpt>
      <trkpt lat="44.6874" lon="5.07229">
        <ele>451.60854028463</ele>
        <time>2012-09-29T08:41:06Z</time>
      </trkpt>
      <trkpt lat="44.68732" lon="5.07229">
        <ele>453.16994227673</ele>
        <time>2012-09-29T08:41:11Z</time>
      </trkpt>
      <trkpt lat="44.68725" lon="5.07229">
        <ele>450.82819264012</ele>
        <time>2012-09-29T08:41:17Z</time>
      </trkpt>
      <trkpt lat="44.68714" lon="5.07226">
        <ele>449.52703869163</ele>
        <time>2012-09-29T08:41:23Z</time>
      </trkpt>
      <trkpt lat="44.68705" lon="5.07222">
        <ele>456.55405615479</ele>
        <time>2012-09-29T08:41:29Z</time>
      </trkpt>
      <trkpt lat="44.68693" lon="5.07219">
        <ele>457.24849291928</ele>
        <time>2012-09-29T08:41:35Z</time>
      </trkpt>
      <trkpt lat="44.68679" lon="5.07221">
        <ele>461.50194545524</ele>
        <time>2012-09-29T08:41:40Z</time>
      </trkpt>
      <trkpt lat="44.68669" lon="5.07221">
        <ele>459.07141332828</ele>
        <time>2012-09-29T08:41:46Z</time>
      </trkpt>
      <trkpt lat="44.68662" lon="5.07215">
        <ele>457.24849291928</ele>
        <time>2012-09-29T08:41:52Z</time>
      </trkpt>
      <trkpt lat="44.68658" lon="5.07205">
        <ele>464.62798479872</ele>
        <time>2012-09-29T08:41:57Z</time>
      </trkpt>
      <trkpt lat="44.68652" lon="5.07193">
        <ele>464.62798479872</ele>
        <time>2012-09-29T08:42:03Z</time>
      </trkpt>
      <trkpt lat="44.68638" lon="5.07177">
        <ele>464.88879592896</ele>
        <time>2012-09-29T08:42:10Z</time>
      </trkpt>
      <trkpt lat="44.68631" lon="5.07162">
        <ele>467.23427218423</ele>
        <time>2012-09-29T08:42:16Z</time>
      </trkpt>
      <trkpt lat="44.68632" lon="5.07149">
        <ele>470.88343944581</ele>
        <time>2012-09-29T08:42:21Z</time>
      </trkpt>
      <trkpt lat="44.68627" lon="5.07136">
        <ele>467.84193512933</ele>
        <time>2012-09-29T08:42:27Z</time>
      </trkpt>
      <trkpt lat="44.68616" lon="5.07126">
        <ele>472.62176919266</ele>
        <time>2012-09-29T08:42:32Z</time>
      </trkpt>
      <trkpt lat="44.68605" lon="5.07133">
        <ele>469.57975192807</ele>
        <time>2012-09-29T08:42:39Z</time>
      </trkpt>
      <trkpt lat="44.68598" lon="5.07149">
        <ele>477.14216234221</ele>
        <time>2012-09-29T08:42:45Z</time>
      </trkpt>
      <trkpt lat="44.68594" lon="5.07158">
        <ele>479.75108581502</ele>
        <time>2012-09-29T08:42:51Z</time>
      </trkpt>
      <trkpt lat="44.68593" lon="5.07163">
        <ele>479.57749094351</ele>
        <time>2012-09-29T08:42:56Z</time>
      </trkpt>
      <trkpt lat="44.68596" lon="5.07171">
        <ele>483.57887917896</ele>
        <time>2012-09-29T08:43:03Z</time>
      </trkpt>
      <trkpt lat="44.68592" lon="5.07188">
        <ele>484.44934441042</ele>
        <time>2012-09-29T08:43:08Z</time>
      </trkpt>
      <trkpt lat="44.68589" lon="5.07209">
        <ele>481.40383421531</ele>
        <time>2012-09-29T08:43:13Z</time>
      </trkpt>
      <trkpt lat="44.68592" lon="5.07232">
        <ele>485.31935202553</ele>
        <time>2012-09-29T08:43:19Z</time>
      </trkpt>
      <trkpt lat="44.68596" lon="5.07255">
        <ele>491.15210587159</ele>
        <time>2012-09-29T08:43:24Z</time>
      </trkpt>
      <trkpt lat="44.686" lon="5.07272">
        <ele>491.8483464645</ele>
        <time>2012-09-29T08:43:29Z</time>
      </trkpt>
      <trkpt lat="44.68607" lon="5.07282">
        <ele>490.54253537629</ele>
        <time>2012-09-29T08:43:35Z</time>
      </trkpt>
      <trkpt lat="44.68618" lon="5.07295">
        <ele>495.59343992867</ele>
        <time>2012-09-29T08:43:40Z</time>
      </trkpt>
      <trkpt lat="44.68621" lon="5.07302">
        <ele>494.3743409488</ele>
        <time>2012-09-29T08:43:46Z</time>
      </trkpt>
      <trkpt lat="44.68622" lon="5.07308">
        <ele>494.02559778579</ele>
        <time>2012-09-29T08:43:51Z</time>
      </trkpt>
      <trkpt lat="44.68623" lon="5.07317">
        <ele>496.02943708445</ele>
        <time>2012-09-29T08:43:56Z</time>
      </trkpt>
      <trkpt lat="44.68623" lon="5.07323">
        <ele>502.65195034474</ele>
        <time>2012-09-29T08:44:03Z</time>
      </trkpt>
      <trkpt lat="44.68625" lon="5.07339">
        <ele>505.00603993032</ele>
        <time>2012-09-29T08:44:10Z</time>
      </trkpt>
      <trkpt lat="44.6863" lon="5.07351">
        <ele>503.26223790708</ele>
        <time>2012-09-29T08:44:16Z</time>
      </trkpt>
      <trkpt lat="44.68633" lon="5.0736">
        <ele>506.75013727343</ele>
        <time>2012-09-29T08:44:21Z</time>
      </trkpt>
      <trkpt lat="44.68634" lon="5.0738">
        <ele>507.88393234833</ele>
        <time>2012-09-29T08:44:27Z</time>
      </trkpt>
      <trkpt lat="44.68637" lon="5.07402">
        <ele>506.75013727343</ele>
        <time>2012-09-29T08:44:33Z</time>
      </trkpt>
      <trkpt lat="44.6864" lon="5.07409">
        <ele>510.23868591738</ele>
        <time>2012-09-29T08:44:39Z</time>
      </trkpt>
      <trkpt lat="44.68647" lon="5.07422">
        <ele>502.21620480712</ele>
        <time>2012-09-29T08:44:44Z</time>
      </trkpt>
      <trkpt lat="44.68655" lon="5.07439">
        <ele>512.85653894089</ele>
        <time>2012-09-29T08:44:50Z</time>
      </trkpt>
      <trkpt lat="44.6866" lon="5.0745">
        <ele>510.7626292622</ele>
        <time>2012-09-29T08:44:55Z</time>
      </trkpt>
      <trkpt lat="44.68668" lon="5.07457">
        <ele>517.39462696746</ele>
        <time>2012-09-29T08:45:02Z</time>
      </trkpt>
      <trkpt lat="44.6868" lon="5.07462">
        <ele>517.5693932069</ele>
        <time>2012-09-29T08:45:07Z</time>
      </trkpt>
      <trkpt lat="44.68684" lon="5.07469">
        <ele>513.29273495676</ele>
        <time>2012-09-29T08:45:12Z</time>
      </trkpt>
      <trkpt lat="44.68691" lon="5.07482">
        <ele>515.56189143674</ele>
        <time>2012-09-29T08:45:18Z</time>
      </trkpt>
      <trkpt lat="44.68701" lon="5.07502">
        <ele>518.87916878113</ele>
        <time>2012-09-29T08:45:23Z</time>
      </trkpt>
      <trkpt lat="44.68707" lon="5.07518">
        <ele>518.70438030688</ele>
        <time>2012-09-29T08:45:28Z</time>
      </trkpt>
      <trkpt lat="44.68709" lon="5.07525">
        <ele>521.67352282506</ele>
        <time>2012-09-29T08:45:34Z</time>
      </trkpt>
      <trkpt lat="44.68703" lon="5.07526">
        <ele>528.31255519968</ele>
        <time>2012-09-29T08:45:40Z</time>
      </trkpt>
      <trkpt lat="44.68692" lon="5.07528">
        <ele>528.31255519968</ele>
        <time>2012-09-29T08:45:45Z</time>
      </trkpt>
      <trkpt lat="44.68684" lon="5.07531">
        <ele>525.69130282498</ele>
        <time>2012-09-29T08:45:51Z</time>
      </trkpt>
      <trkpt lat="44.68678" lon="5.07533">
        <ele>528.48750689233</ele>
        <time>2012-09-29T08:45:56Z</time>
      </trkpt>
      <trkpt lat="44.68676" lon="5.07535">
        <ele>530.84751177793</ele>
        <time>2012-09-29T08:46:02Z</time>
      </trkpt>
      <trkpt lat="44.68676" lon="5.07537">
        <ele>533.73210430484</ele>
        <time>2012-09-29T08:46:08Z</time>
      </trkpt>
      <trkpt lat="44.68676" lon="5.07541">
        <ele>533.55759709859</ele>
        <time>2012-09-29T08:46:13Z</time>
      </trkpt>
      <trkpt lat="44.68675" lon="5.07544">
        <ele>536.09331223246</ele>
        <time>2012-09-29T08:46:19Z</time>
      </trkpt>
      <trkpt lat="44.68675" lon="5.07546">
        <ele>536.70558546527</ele>
        <time>2012-09-29T08:46:24Z</time>
      </trkpt>
      <trkpt lat="44.68672" lon="5.07552">
        <ele>536.44294941658</ele>
        <time>2012-09-29T08:46:29Z</time>
      </trkpt>
      <trkpt lat="44.68668" lon="5.07562">
        <ele>545.98061468144</ele>
        <time>2012-09-29T08:46:35Z</time>
      </trkpt>
      <trkpt lat="44.68656" lon="5.07578">
        <ele>546.155867001</ele>
        <time>2012-09-29T08:46:42Z</time>
      </trkpt>
      <trkpt lat="44.68646" lon="5.07591">
        <ele>543.70474285737</ele>
        <time>2012-09-29T08:46:48Z</time>
      </trkpt>
      <trkpt lat="44.68642" lon="5.07601">
        <ele>551.93498818361</ele>
        <time>2012-09-29T08:46:54Z</time>
      </trkpt>
      <trkpt lat="44.68642" lon="5.07605">
        <ele>547.38111370657</ele>
        <time>2012-09-29T08:46:59Z</time>
      </trkpt>
      <trkpt lat="44.68642" lon="5.07607">
        <ele>552.89840163522</ele>
        <time>2012-09-29T08:47:06Z</time>
      </trkpt>
      <trkpt lat="44.6864" lon="5.0761">
        <ele>558.94451721417</ele>
        <time>2012-09-29T08:47:12Z</time>
      </trkpt>
      <trkpt lat="44.68637" lon="5.07621">
        <ele>549.57014261669</ele>
        <time>2012-09-29T08:47:17Z</time>
      </trkpt>
      <trkpt lat="44.68629" lon="5.07634">
        <ele>561.57479079167</ele>
        <time>2012-09-29T08:47:24Z</time>
      </trkpt>
      <trkpt lat="44.68619" lon="5.07655">
        <ele>562.80187549246</ele>
        <time>2012-09-29T08:47:31Z</time>
      </trkpt>
      <trkpt lat="44.6862" lon="5.07669">
        <ele>561.22376339911</ele>
        <time>2012-09-29T08:47:38Z</time>
      </trkpt>
      <trkpt lat="44.68614" lon="5.0768">
        <ele>560.2595699245</ele>
        <time>2012-09-29T08:47:44Z</time>
      </trkpt>
      <trkpt lat="44.68602" lon="5.07698">
        <ele>566.66068101159</ele>
        <time>2012-09-29T08:47:50Z</time>
      </trkpt>
      <trkpt lat="44.68595" lon="5.07714">
        <ele>570.34580261599</ele>
        <time>2012-09-29T08:47:56Z</time>
      </trkpt>
      <trkpt lat="44.686" lon="5.07721">
        <ele>572.53972495217</ele>
        <time>2012-09-29T08:48:01Z</time>
      </trkpt>
      <trkpt lat="44.68598" lon="5.07729">
        <ele>573.15363566887</ele>
        <time>2012-09-29T08:48:07Z</time>
      </trkpt>
      <trkpt lat="44.68591" lon="5.07734">
        <ele>577.71893824585</ele>
        <time>2012-09-29T08:48:13Z</time>
      </trkpt>
      <trkpt lat="44.68585" lon="5.07737">
        <ele>579.91443454984</ele>
        <time>2012-09-29T08:48:19Z</time>
      </trkpt>
      <trkpt lat="44.68577" lon="5.07743">
        <ele>576.05065311585</ele>
        <time>2012-09-29T08:48:24Z</time>
      </trkpt>
      <trkpt lat="44.68575" lon="5.07751">
        <ele>578.33369427196</ele>
        <time>2012-09-29T08:48:30Z</time>
      </trkpt>
      <trkpt lat="44.68577" lon="5.07757">
        <ele>578.68477021867</ele>
        <time>2012-09-29T08:48:36Z</time>
      </trkpt>
      <trkpt lat="44.68575" lon="5.07764">
        <ele>585.18586122441</ele>
        <time>2012-09-29T08:48:43Z</time>
      </trkpt>
      <trkpt lat="44.68571" lon="5.07776">
        <ele>583.9555662439</ele>
        <time>2012-09-29T08:48:49Z</time>
      </trkpt>
      <trkpt lat="44.68575" lon="5.07785">
        <ele>591.5144995407</ele>
        <time>2012-09-29T08:48:55Z</time>
      </trkpt>
      <trkpt lat="44.6858" lon="5.07793">
        <ele>593.09726815376</ele>
        <time>2012-09-29T08:49:01Z</time>
      </trkpt>
      <trkpt lat="44.6859" lon="5.07804">
        <ele>590.98696416213</ele>
        <time>2012-09-29T08:49:07Z</time>
      </trkpt>
      <trkpt lat="44.68594" lon="5.07815">
        <ele>594.15258265802</ele>
        <time>2012-09-29T08:49:12Z</time>
      </trkpt>
      <trkpt lat="44.68595" lon="5.07827">
        <ele>593.71294457698</ele>
        <time>2012-09-29T08:49:18Z</time>
      </trkpt>
      <trkpt lat="44.686" lon="5.07845">
        <ele>592.5696515334</ele>
        <time>2012-09-29T08:49:23Z</time>
      </trkpt>
      <trkpt lat="44.68606" lon="5.07864">
        <ele>593.00924071102</ele>
        <time>2012-09-29T08:49:28Z</time>
      </trkpt>
      <trkpt lat="44.68609" lon="5.07887">
        <ele>593.18529635045</ele>
        <time>2012-09-29T08:49:34Z</time>
      </trkpt>
      <trkpt lat="44.68611" lon="5.07915">
        <ele>588.43768086871</ele>
        <time>2012-09-29T08:49:41Z</time>
      </trkpt>
      <trkpt lat="44.68617" lon="5.0794">
        <ele>587.38295293897</ele>
        <time>2012-09-29T08:49:46Z</time>
      </trkpt>
      <trkpt lat="44.68622" lon="5.0796">
        <ele>578.2457931634</ele>
        <time>2012-09-29T08:49:52Z</time>
      </trkpt>
      <trkpt lat="44.68624" lon="5.07982">
        <ele>577.28000242523</ele>
        <time>2012-09-29T08:49:59Z</time>
      </trkpt>
      <trkpt lat="44.68618" lon="5.08008">
        <ele>580.0902660542</ele>
        <time>2012-09-29T08:50:05Z</time>
      </trkpt>
      <trkpt lat="44.68615" lon="5.08028">
        <ele>575.7875464445</ele>
        <time>2012-09-29T08:50:11Z</time>
      </trkpt>
      <trkpt lat="44.68613" lon="5.0805">
        <ele>574.55837555673</ele>
        <time>2012-09-29T08:50:16Z</time>
      </trkpt>
      <trkpt lat="44.68609" lon="5.08071">
        <ele>561.83753407283</ele>
        <time>2012-09-29T08:50:21Z</time>
      </trkpt>
      <trkpt lat="44.68606" lon="5.08094">
        <ele>571.92531523518</ele>
        <time>2012-09-29T08:50:27Z</time>
      </trkpt>
      <trkpt lat="44.68603" lon="5.08105">
        <ele>568.94163805079</ele>
        <time>2012-09-29T08:50:32Z</time>
      </trkpt>
      <trkpt lat="44.68599" lon="5.08122">
        <ele>569.02945965661</ele>
        <time>2012-09-29T08:50:38Z</time>
      </trkpt>
      <trkpt lat="44.68594" lon="5.08144">
        <ele>567.71328517486</ele>
        <time>2012-09-29T08:50:43Z</time>
      </trkpt>
      <trkpt lat="44.68585" lon="5.08168">
        <ele>564.81915056792</ele>
        <time>2012-09-29T08:50:49Z</time>
      </trkpt>
      <trkpt lat="44.68574" lon="5.08189">
        <ele>563.24072893773</ele>
        <time>2012-09-29T08:50:55Z</time>
      </trkpt>
      <trkpt lat="44.68561" lon="5.08208">
        <ele>557.80508349249</ele>
        <time>2012-09-29T08:51:00Z</time>
      </trkpt>
      <trkpt lat="44.68549" lon="5.08217">
        <ele>560.87328306171</ele>
        <time>2012-09-29T08:51:05Z</time>
      </trkpt>
      <trkpt lat="44.68542" lon="5.08214">
        <ele>555.96513777464</ele>
        <time>2012-09-29T08:51:10Z</time>
      </trkpt>
      <trkpt lat="44.6853" lon="5.0822">
        <ele>557.71789258972</ele>
        <time>2012-09-29T08:51:16Z</time>
      </trkpt>
      <trkpt lat="44.68507" lon="5.0824">
        <ele>557.45471962295</ele>
        <time>2012-09-29T08:51:22Z</time>
      </trkpt>
      <trkpt lat="44.6849" lon="5.08254">
        <ele>554.56293502542</ele>
        <time>2012-09-29T08:51:27Z</time>
      </trkpt>
      <trkpt lat="44.68472" lon="5.08267">
        <ele>542.47939971563</ele>
        <time>2012-09-29T08:51:34Z</time>
      </trkpt>
      <trkpt lat="44.68452" lon="5.0827">
        <ele>552.89840163522</ele>
        <time>2012-09-29T08:51:40Z</time>
      </trkpt>
      <trkpt lat="44.68435" lon="5.08267">
        <ele>549.83311394848</ele>
        <time>2012-09-29T08:51:46Z</time>
      </trkpt>
      <trkpt lat="44.68421" lon="5.08263">
        <ele>552.1103419622</ele>
        <time>2012-09-29T08:51:51Z</time>
      </trkpt>
      <trkpt lat="44.68404" lon="5.08262">
        <ele>550.00843190409</ele>
        <time>2012-09-29T08:51:56Z</time>
      </trkpt>
      <trkpt lat="44.68389" lon="5.08264">
        <ele>546.59347652709</ele>
        <time>2012-09-29T08:52:01Z</time>
      </trkpt>
      <trkpt lat="44.6838" lon="5.08263">
        <ele>548.51939336791</ele>
        <time>2012-09-29T08:52:07Z</time>
      </trkpt>
      <trkpt lat="44.68366" lon="5.08269">
        <ele>537.84268471164</ele>
        <time>2012-09-29T08:52:13Z</time>
      </trkpt>
      <trkpt lat="44.68343" lon="5.0828">
        <ele>539.76696419273</ele>
        <time>2012-09-29T08:52:18Z</time>
      </trkpt>
      <trkpt lat="44.68318" lon="5.08277">
        <ele>541.77972692957</ele>
        <time>2012-09-29T08:52:24Z</time>
      </trkpt>
      <trkpt lat="44.68299" lon="5.0827">
        <ele>535.5686118473</ele>
        <time>2012-09-29T08:52:30Z</time>
      </trkpt>
      <trkpt lat="44.68281" lon="5.08267">
        <ele>539.06747580704</ele>
        <time>2012-09-29T08:52:36Z</time>
      </trkpt>
      <trkpt lat="44.6826" lon="5.08259">
        <ele>533.12054157679</ele>
        <time>2012-09-29T08:52:42Z</time>
      </trkpt>
      <trkpt lat="44.68243" lon="5.08253">
        <ele>528.6624615587</ele>
        <time>2012-09-29T08:52:48Z</time>
      </trkpt>
      <trkpt lat="44.68227" lon="5.08243">
        <ele>537.66757392016</ele>
        <time>2012-09-29T08:52:54Z</time>
      </trkpt>
      <trkpt lat="44.68215" lon="5.08225">
        <ele>537.23034382438</ele>
        <time>2012-09-29T08:52:59Z</time>
      </trkpt>
      <trkpt lat="44.68214" lon="5.08211">
        <ele>525.16713244111</ele>
        <time>2012-09-29T08:53:05Z</time>
      </trkpt>
      <trkpt lat="44.68216" lon="5.08195">
        <ele>532.15844445364</ele>
        <time>2012-09-29T08:53:10Z</time>
      </trkpt>
      <trkpt lat="44.68216" lon="5.08167">
        <ele>528.57498385379</ele>
        <time>2012-09-29T08:53:15Z</time>
      </trkpt>
      <trkpt lat="44.68213" lon="5.08144">
        <ele>524.55554519447</ele>
        <time>2012-09-29T08:53:20Z</time>
      </trkpt>
      <trkpt lat="44.68208" lon="5.0813">
        <ele>518.4422031594</ele>
        <time>2012-09-29T08:53:26Z</time>
      </trkpt>
      <trkpt lat="44.68213" lon="5.08125">
        <ele>521.41127005403</ele>
        <time>2012-09-29T08:53:32Z</time>
      </trkpt>
      <trkpt lat="44.6822" lon="5.0812">
        <ele>514.42725068566</ele>
        <time>2012-09-29T08:53:37Z</time>
      </trkpt>
      <trkpt lat="44.68222" lon="5.08104">
        <ele>518.70438030688</ele>
        <time>2012-09-29T08:53:42Z</time>
      </trkpt>
      <trkpt lat="44.68222" lon="5.0808">
        <ele>516.17294461753</ele>
        <time>2012-09-29T08:53:48Z</time>
      </trkpt>
      <trkpt lat="44.68223" lon="5.08052">
        <ele>506.31421830688</ele>
        <time>2012-09-29T08:53:54Z</time>
      </trkpt>
      <trkpt lat="44.68217" lon="5.08024">
        <ele>514.601433888</ele>
        <time>2012-09-29T08:54:02Z</time>
      </trkpt>
      <trkpt lat="44.68213" lon="5.07987">
        <ele>515.38715926996</ele>
        <time>2012-09-29T08:54:08Z</time>
      </trkpt>
      <trkpt lat="44.68211" lon="5.07958">
        <ele>513.64159854953</ele>
        <time>2012-09-29T08:54:14Z</time>
      </trkpt>
      <trkpt lat="44.68212" lon="5.07932">
        <ele>510.41333073687</ele>
        <time>2012-09-29T08:54:19Z</time>
      </trkpt>
      <trkpt lat="44.68213" lon="5.0791">
        <ele>509.01785226797</ele>
        <time>2012-09-29T08:54:25Z</time>
      </trkpt>
      <trkpt lat="44.6821" lon="5.07891">
        <ele>507.09877927552</ele>
        <time>2012-09-29T08:54:31Z</time>
      </trkpt>
      <trkpt lat="44.68213" lon="5.07872">
        <ele>506.40150707418</ele>
        <time>2012-09-29T08:54:36Z</time>
      </trkpt>
      <trkpt lat="44.68216" lon="5.07852">
        <ele>506.75013727343</ele>
        <time>2012-09-29T08:54:41Z</time>
      </trkpt>
      <trkpt lat="44.68217" lon="5.0783">
        <ele>507.62203056792</ele>
        <time>2012-09-29T08:54:47Z</time>
      </trkpt>
      <trkpt lat="44.68222" lon="5.0781">
        <ele>505.96507063615</ele>
        <time>2012-09-29T08:54:52Z</time>
      </trkpt>
      <trkpt lat="44.68229" lon="5.07784">
        <ele>500.29893065246</ele>
        <time>2012-09-29T08:54:57Z</time>
      </trkpt>
      <trkpt lat="44.68235" lon="5.07757">
        <ele>509.45388569964</ele>
        <time>2012-09-29T08:55:03Z</time>
      </trkpt>
      <trkpt lat="44.68233" lon="5.07729">
        <ele>508.84323111402</ele>
        <time>2012-09-29T08:55:08Z</time>
      </trkpt>
      <trkpt lat="44.68229" lon="5.0771">
        <ele>504.9187629901</ele>
        <time>2012-09-29T08:55:14Z</time>
      </trkpt>
      <trkpt lat="44.68234" lon="5.07692">
        <ele>501.78047770456</ele>
        <time>2012-09-29T08:55:19Z</time>
      </trkpt>
      <trkpt lat="44.68239" lon="5.07671">
        <ele>495.94223617693</ele>
        <time>2012-09-29T08:55:25Z</time>
      </trkpt>
      <trkpt lat="44.6824" lon="5.07648">
        <ele>492.54516565165</ele>
        <time>2012-09-29T08:55:31Z</time>
      </trkpt>
      <trkpt lat="44.6824" lon="5.07624">
        <ele>488.97546171017</ele>
        <time>2012-09-29T08:55:36Z</time>
      </trkpt>
      <trkpt lat="44.68242" lon="5.07602">
        <ele>487.75661431594</ele>
        <time>2012-09-29T08:55:41Z</time>
      </trkpt>
      <trkpt lat="44.68248" lon="5.0758">
        <ele>481.05606076366</ele>
        <time>2012-09-29T08:55:46Z</time>
      </trkpt>
      <trkpt lat="44.68255" lon="5.07563">
        <ele>487.14724468823</ele>
        <time>2012-09-29T08:55:52Z</time>
      </trkpt>
      <trkpt lat="44.68265" lon="5.07539">
        <ele>485.0585544869</ele>
        <time>2012-09-29T08:55:57Z</time>
      </trkpt>
      <trkpt lat="44.6827" lon="5.07514">
        <ele>473.83829698003</ele>
        <time>2012-09-29T08:56:03Z</time>
      </trkpt>
      <trkpt lat="44.68261" lon="5.07508">
        <ele>480.5341571352</ele>
        <time>2012-09-29T08:56:08Z</time>
      </trkpt>
      <trkpt lat="44.68248" lon="5.07512">
        <ele>471.5788422523</ele>
        <time>2012-09-29T08:56:13Z</time>
      </trkpt>
      <trkpt lat="44.68246" lon="5.07511">
        <ele>476.96861141478</ele>
        <time>2012-09-29T08:56:18Z</time>
      </trkpt>
      <trkpt lat="44.68253" lon="5.07496">
        <ele>471.75230243772</ele>
        <time>2012-09-29T08:56:25Z</time>
      </trkpt>
      <trkpt lat="44.68265" lon="5.07465">
        <ele>463.84665111341</ele>
        <time>2012-09-29T08:56:30Z</time>
      </trkpt>
      <trkpt lat="44.6825" lon="5.07439">
        <ele>466.79949171426</ele>
        <time>2012-09-29T08:56:36Z</time>
      </trkpt>
      <trkpt lat="44.68235" lon="5.07445">
        <ele>460.72084866399</ele>
        <time>2012-09-29T08:56:43Z</time>
      </trkpt>
      <trkpt lat="44.68227" lon="5.0746">
        <ele>464.97573443885</ele>
        <time>2012-09-29T08:56:50Z</time>
      </trkpt>
      <trkpt lat="44.68212" lon="5.07481">
        <ele>464.36771035111</ele>
        <time>2012-09-29T08:56:55Z</time>
      </trkpt>
      <trkpt lat="44.68198" lon="5.07495">
        <ele>455.51275351672</ele>
        <time>2012-09-29T08:57:01Z</time>
      </trkpt>
      <trkpt lat="44.6818" lon="5.07505">
        <ele>457.3353670191</ele>
        <time>2012-09-29T08:57:08Z</time>
      </trkpt>
      <trkpt lat="44.6816" lon="5.07513">
        <ele>449.093533625</ele>
        <time>2012-09-29T08:57:13Z</time>
      </trkpt>
      <trkpt lat="44.68143" lon="5.07524">
        <ele>450.74137335081</ele>
        <time>2012-09-29T08:57:18Z</time>
      </trkpt>
      <trkpt lat="44.68129" lon="5.0754">
        <ele>440.9450185655</ele>
        <time>2012-09-29T08:57:23Z</time>
      </trkpt>
      <trkpt lat="44.68134" lon="5.07533">
        <ele>452.64944867369</ele>
        <time>2012-09-29T08:57:29Z</time>
      </trkpt>
      <trkpt lat="44.68144" lon="5.07515">
        <ele>449.18033904107</ele>
        <time>2012-09-29T08:57:35Z</time>
      </trkpt>
      <trkpt lat="44.68151" lon="5.07502">
        <ele>446.23201051671</ele>
        <time>2012-09-29T08:57:40Z</time>
      </trkpt>
      <trkpt lat="44.68146" lon="5.07499">
        <ele>444.06483070539</ele>
        <time>2012-09-29T08:57:46Z</time>
      </trkpt>
      <trkpt lat="44.68127" lon="5.07502">
        <ele>444.23835762755</ele>
        <time>2012-09-29T08:57:51Z</time>
      </trkpt>
      <trkpt lat="44.68106" lon="5.0751">
        <ele>443.71831464352</ele>
        <time>2012-09-29T08:57:57Z</time>
      </trkpt>
      <trkpt lat="44.68092" lon="5.0752">
        <ele>436.61333491858</ele>
        <time>2012-09-29T08:58:03Z</time>
      </trkpt>
      <trkpt lat="44.68084" lon="5.07541">
        <ele>430.29251079355</ele>
        <time>2012-09-29T08:58:09Z</time>
      </trkpt>
      <trkpt lat="44.68082" lon="5.0757">
        <ele>434.44817508486</ele>
        <time>2012-09-29T08:58:15Z</time>
      </trkpt>
      <trkpt lat="44.6808" lon="5.07599">
        <ele>431.41792597783</ele>
        <time>2012-09-29T08:58:21Z</time>
      </trkpt>
      <trkpt lat="44.6808" lon="5.07594">
        <ele>419.21821247337</ele>
        <time>2012-09-29T08:58:27Z</time>
      </trkpt>
      <trkpt lat="44.68071" lon="5.07585">
        <ele>427.34957566419</ele>
        <time>2012-09-29T08:58:32Z</time>
      </trkpt>
      <trkpt lat="44.68055" lon="5.07589">
        <ele>425.96529716758</ele>
        <time>2012-09-29T08:58:37Z</time>
      </trkpt>
      <trkpt lat="44.68039" lon="5.07603">
        <ele>426.57106120094</ele>
        <time>2012-09-29T08:58:43Z</time>
      </trkpt>
      <trkpt lat="44.68033" lon="5.07622">
        <ele>418.69942925054</ele>
        <time>2012-09-29T08:58:49Z</time>
      </trkpt>
      <trkpt lat="44.68025" lon="5.07645">
        <ele>423.02359595276</ele>
        <time>2012-09-29T08:58:55Z</time>
      </trkpt>
      <trkpt lat="44.68011" lon="5.07662">
        <ele>420.34242024596</ele>
        <time>2012-09-29T08:59:01Z</time>
      </trkpt>
      <trkpt lat="44.68003" lon="5.07675">
        <ele>417.40284912814</ele>
        <time>2012-09-29T08:59:07Z</time>
      </trkpt>
      <trkpt lat="44.68" lon="5.07694">
        <ele>419.04510591456</ele>
        <time>2012-09-29T08:59:12Z</time>
      </trkpt>
      <trkpt lat="44.67999" lon="5.07717">
        <ele>422.76436937455</ele>
        <time>2012-09-29T08:59:17Z</time>
      </trkpt>
      <trkpt lat="44.67997" lon="5.07739">
        <ele>411.3527128563</ele>
        <time>2012-09-29T08:59:22Z</time>
      </trkpt>
      <trkpt lat="44.67996" lon="5.07768">
        <ele>411.17973818583</ele>
        <time>2012-09-29T08:59:28Z</time>
      </trkpt>
      <trkpt lat="44.67995" lon="5.07788">
        <ele>421.46675051599</ele>
        <time>2012-09-29T08:59:33Z</time>
      </trkpt>
      <trkpt lat="44.67988" lon="5.07792">
        <ele>421.3801780103</ele>
        <time>2012-09-29T08:59:39Z</time>
      </trkpt>
      <trkpt lat="44.67979" lon="5.07781">
        <ele>421.29360623097</ele>
        <time>2012-09-29T08:59:44Z</time>
      </trkpt>
      <trkpt lat="44.6796" lon="5.07778">
        <ele>419.04510591456</ele>
        <time>2012-09-29T08:59:49Z</time>
      </trkpt>
      <trkpt lat="44.67948" lon="5.07782">
        <ele>419.99670011953</ele>
        <time>2012-09-29T08:59:54Z</time>
      </trkpt>
      <trkpt lat="44.6794" lon="5.07784">
        <ele>426.39783123756</ele>
        <time>2012-09-29T08:59:59Z</time>
      </trkpt>
      <trkpt lat="44.67924" lon="5.07788">
        <ele>426.6571491244</ele>
        <time>2012-09-29T09:00:05Z</time>
      </trkpt>
      <trkpt lat="44.67916" lon="5.07795">
        <ele>425.53225313899</ele>
        <time>2012-09-29T09:00:11Z</time>
      </trkpt>
      <trkpt lat="44.67911" lon="5.078">
        <ele>422.50462137254</ele>
        <time>2012-09-29T09:00:17Z</time>
      </trkpt>
      <trkpt lat="44.67896" lon="5.07806">
        <ele>430.37915811656</ele>
        <time>2012-09-29T09:00:23Z</time>
      </trkpt>
      <trkpt lat="44.67886" lon="5.07808">
        <ele>429.94592877902</ele>
        <time>2012-09-29T09:00:28Z</time>
      </trkpt>
      <trkpt lat="44.67875" lon="5.07812">
        <ele>433.14908590592</ele>
        <time>2012-09-29T09:00:33Z</time>
      </trkpt>
      <trkpt lat="44.67866" lon="5.0782">
        <ele>434.27481279749</ele>
        <time>2012-09-29T09:00:39Z</time>
      </trkpt>
      <trkpt lat="44.67858" lon="5.07829">
        <ele>435.66073546546</ele>
        <time>2012-09-29T09:00:45Z</time>
      </trkpt>
      <trkpt lat="44.67849" lon="5.07837">
        <ele>441.11849300208</ele>
        <time>2012-09-29T09:00:50Z</time>
      </trkpt>
      <trkpt lat="44.67841" lon="5.07841">
        <ele>444.15159380149</ele>
        <time>2012-09-29T09:00:56Z</time>
      </trkpt>
      <trkpt lat="44.67833" lon="5.07843">
        <ele>442.67830734007</ele>
        <time>2012-09-29T09:01:03Z</time>
      </trkpt>
      <trkpt lat="44.67824" lon="5.07848">
        <ele>441.9848510869</ele>
        <time>2012-09-29T09:01:08Z</time>
      </trkpt>
      <trkpt lat="44.67819" lon="5.07851">
        <ele>444.15159380149</ele>
        <time>2012-09-29T09:01:14Z</time>
      </trkpt>
      <trkpt lat="44.67813" lon="5.07854">
        <ele>446.83896598896</ele>
        <time>2012-09-29T09:01:20Z</time>
      </trkpt>
      <trkpt lat="44.67802" lon="5.0786">
        <ele>446.31879184799</ele>
        <time>2012-09-29T09:01:27Z</time>
      </trkpt>
      <trkpt lat="44.67792" lon="5.07864">
        <ele>454.47155603722</ele>
        <time>2012-09-29T09:01:33Z</time>
      </trkpt>
      <trkpt lat="44.67784" lon="5.07869">
        <ele>456.46718863827</ele>
        <time>2012-09-29T09:01:39Z</time>
      </trkpt>
      <trkpt lat="44.67776" lon="5.0787">
        <ele>458.89763660075</ele>
        <time>2012-09-29T09:01:46Z</time>
      </trkpt>
      <trkpt lat="44.67768" lon="5.07868">
        <ele>456.98787501192</ele>
        <time>2012-09-29T09:01:52Z</time>
      </trkpt>
      <trkpt lat="44.67763" lon="5.07865">
        <ele>460.02617797218</ele>
        <time>2012-09-29T09:01:58Z</time>
      </trkpt>
      <trkpt lat="44.67753" lon="5.07879">
        <ele>457.0747469157</ele>
        <time>2012-09-29T09:02:03Z</time>
      </trkpt>
      <trkpt lat="44.67745" lon="5.07897">
        <ele>462.02288618564</ele>
        <time>2012-09-29T09:02:09Z</time>
      </trkpt>
      <trkpt lat="44.67738" lon="5.07916">
        <ele>468.45016419503</ele>
        <time>2012-09-29T09:02:14Z</time>
      </trkpt>
      <trkpt lat="44.67738" lon="5.0793">
        <ele>465.32296567812</ele>
        <time>2012-09-29T09:02:21Z</time>
      </trkpt>
      <trkpt lat="44.67735" lon="5.07941">
        <ele>470.53549043632</ele>
        <time>2012-09-29T09:02:27Z</time>
      </trkpt>
      <trkpt lat="44.67727" lon="5.07954">
        <ele>472.1002925303</ele>
        <time>2012-09-29T09:02:33Z</time>
      </trkpt>
      <trkpt lat="44.67717" lon="5.07961">
        <ele>468.10282759515</ele>
        <time>2012-09-29T09:02:40Z</time>
      </trkpt>
      <trkpt lat="44.67709" lon="5.07963">
        <ele>468.97145620267</ele>
        <time>2012-09-29T09:02:45Z</time>
      </trkpt>
      <trkpt lat="44.67701" lon="5.07968">
        <ele>475.92524450985</ele>
        <time>2012-09-29T09:02:51Z</time>
      </trkpt>
      <trkpt lat="44.67693" lon="5.07976">
        <ele>474.18635751576</ele>
        <time>2012-09-29T09:02:57Z</time>
      </trkpt>
      <trkpt lat="44.67687" lon="5.07982">
        <ele>468.27675957444</ele>
        <time>2012-09-29T09:03:03Z</time>
      </trkpt>
      <trkpt lat="44.67681" lon="5.0799">
        <ele>479.75108581502</ele>
        <time>2012-09-29T09:03:09Z</time>
      </trkpt>
      <trkpt lat="44.67668" lon="5.08004">
        <ele>470.79645109217</ele>
        <time>2012-09-29T09:03:15Z</time>
      </trkpt>
      <trkpt lat="44.67657" lon="5.08018">
        <ele>473.66480168241</ele>
        <time>2012-09-29T09:03:21Z</time>
      </trkpt>
      <trkpt lat="44.67643" lon="5.08014">
        <ele>472.96925811822</ele>
        <time>2012-09-29T09:03:27Z</time>
      </trkpt>
      <trkpt lat="44.67627" lon="5.08001">
        <ele>483.31812569058</ele>
        <time>2012-09-29T09:03:32Z</time>
      </trkpt>
      <trkpt lat="44.67616" lon="5.07994">
        <ele>480.09934611884</ele>
        <time>2012-09-29T09:03:38Z</time>
      </trkpt>
      <trkpt lat="44.6761" lon="5.07998">
        <ele>483.40521980815</ele>
        <time>2012-09-29T09:03:44Z</time>
      </trkpt>
      <trkpt lat="44.6761" lon="5.08013">
        <ele>484.10093705314</ele>
        <time>2012-09-29T09:03:50Z</time>
      </trkpt>
      <trkpt lat="44.67612" lon="5.08015">
        <ele>486.36367063241</ele>
        <time>2012-09-29T09:03:56Z</time>
      </trkpt>
      <trkpt lat="44.67609" lon="5.08016">
        <ele>486.71215451523</ele>
        <time>2012-09-29T09:04:02Z</time>
      </trkpt>
      <trkpt lat="44.67605" lon="5.08022">
        <ele>487.58235323612</ele>
        <time>2012-09-29T09:04:07Z</time>
      </trkpt>
      <trkpt lat="44.67597" lon="5.08027">
        <ele>490.10677038323</ele>
        <time>2012-09-29T09:04:13Z</time>
      </trkpt>
      <trkpt lat="44.67592" lon="5.0803">
        <ele>494.11278246967</ele>
        <time>2012-09-29T09:04:20Z</time>
      </trkpt>
      <trkpt lat="44.67584" lon="5.08039">
        <ele>497.24873197426</ele>
        <time>2012-09-29T09:04:25Z</time>
      </trkpt>
      <trkpt lat="44.67579" lon="5.08043">
        <ele>497.8586994528</ele>
        <time>2012-09-29T09:04:30Z</time>
      </trkpt>
      <trkpt lat="44.67576" lon="5.08048">
        <ele>497.24873197426</ele>
        <time>2012-09-29T09:04:36Z</time>
      </trkpt>
      <trkpt lat="44.6757" lon="5.08063">
        <ele>498.64314839142</ele>
        <time>2012-09-29T09:04:42Z</time>
      </trkpt>
      <trkpt lat="44.67561" lon="5.08075">
        <ele>501.60597922374</ele>
        <time>2012-09-29T09:04:48Z</time>
      </trkpt>
      <trkpt lat="44.67553" lon="5.08088">
        <ele>503.61129395549</ele>
        <time>2012-09-29T09:04:55Z</time>
      </trkpt>
      <trkpt lat="44.67547" lon="5.08099">
        <ele>509.27925715155</ele>
        <time>2012-09-29T09:05:00Z</time>
      </trkpt>
      <trkpt lat="44.67538" lon="5.08113">
        <ele>509.80261925368</ele>
        <time>2012-09-29T09:05:05Z</time>
      </trkpt>
      <trkpt lat="44.67531" lon="5.08127">
        <ele>506.75013727343</ele>
        <time>2012-09-29T09:05:12Z</time>
      </trkpt>
      <trkpt lat="44.67538" lon="5.08148">
        <ele>507.27337085087</ele>
        <time>2012-09-29T09:05:17Z</time>
      </trkpt>
      <trkpt lat="44.67544" lon="5.08168">
        <ele>512.76919543908</ele>
        <time>2012-09-29T09:05:24Z</time>
      </trkpt>
      <trkpt lat="44.67543" lon="5.08195">
        <ele>508.14530844878</ele>
        <time>2012-09-29T09:05:30Z</time>
      </trkpt>
      <trkpt lat="44.67551" lon="5.08223">
        <ele>513.20538775476</ele>
        <time>2012-09-29T09:05:36Z</time>
      </trkpt>
      <trkpt lat="44.67562" lon="5.08241">
        <ele>505.35462289107</ele>
        <time>2012-09-29T09:05:41Z</time>
      </trkpt>
      <trkpt lat="44.67575" lon="5.08256">
        <ele>515.64925863215</ele>
        <time>2012-09-29T09:05:46Z</time>
      </trkpt>
      <trkpt lat="44.67587" lon="5.0827">
        <ele>511.02407844238</ele>
        <time>2012-09-29T09:05:52Z</time>
      </trkpt>
      <trkpt lat="44.67598" lon="5.08284">
        <ele>512.33302160073</ele>
        <time>2012-09-29T09:05:57Z</time>
      </trkpt>
      <trkpt lat="44.67604" lon="5.08294">
        <ele>511.11140714242</ele>
        <time>2012-09-29T09:06:04Z</time>
      </trkpt>
      <trkpt lat="44.67594" lon="5.08295">
        <ele>513.11804129374</ele>
        <time>2012-09-29T09:06:10Z</time>
      </trkpt>
      <trkpt lat="44.67576" lon="5.08301">
        <ele>519.05342731765</ele>
        <time>2012-09-29T09:06:16Z</time>
      </trkpt>
      <trkpt lat="44.67565" lon="5.08312">
        <ele>519.66468776623</ele>
        <time>2012-09-29T09:06:22Z</time>
      </trkpt>
      <trkpt lat="44.67554" lon="5.08324">
        <ele>524.55554519447</ele>
        <time>2012-09-29T09:06:28Z</time>
      </trkpt>
      <trkpt lat="44.67547" lon="5.08333">
        <ele>523.41991286132</ele>
        <time>2012-09-29T09:06:35Z</time>
      </trkpt>
      <trkpt lat="44.67533" lon="5.08346">
        <ele>523.6822168087</ele>
        <time>2012-09-29T09:06:42Z</time>
      </trkpt>
      <trkpt lat="44.67517" lon="5.08369">
        <ele>516.52190581502</ele>
        <time>2012-09-29T09:06:48Z</time>
      </trkpt>
      <trkpt lat="44.67507" lon="5.08386">
        <ele>517.91840173944</ele>
        <time>2012-09-29T09:06:53Z</time>
      </trkpt>
      <trkpt lat="44.67498" lon="5.084">
        <ele>522.02267052018</ele>
        <time>2012-09-29T09:07:00Z</time>
      </trkpt>
      <trkpt lat="44.67489" lon="5.0842">
        <ele>523.07071777457</ele>
        <time>2012-09-29T09:07:06Z</time>
      </trkpt>
      <trkpt lat="44.6748" lon="5.08432">
        <ele>521.67352282506</ele>
        <time>2012-09-29T09:07:13Z</time>
      </trkpt>
      <trkpt lat="44.67468" lon="5.0843">
        <ele>517.83154812862</ele>
        <time>2012-09-29T09:07:18Z</time>
      </trkpt>
      <trkpt lat="44.67454" lon="5.08432">
        <ele>519.92689604772</ele>
        <time>2012-09-29T09:07:24Z</time>
      </trkpt>
      <trkpt lat="44.67434" lon="5.0845">
        <ele>519.49041888315</ele>
        <time>2012-09-29T09:07:30Z</time>
      </trkpt>
      <trkpt lat="44.67418" lon="5.08462">
        <ele>514.07782782514</ele>
        <time>2012-09-29T09:07:35Z</time>
      </trkpt>
      <trkpt lat="44.67407" lon="5.0847">
        <ele>513.46743158373</ele>
        <time>2012-09-29T09:07:40Z</time>
      </trkpt>
      <trkpt lat="44.67396" lon="5.0848">
        <ele>514.86351324924</ele>
        <time>2012-09-29T09:07:47Z</time>
      </trkpt>
      <trkpt lat="44.6738" lon="5.08501">
        <ele>518.96603123034</ele>
        <time>2012-09-29T09:07:53Z</time>
      </trkpt>
      <trkpt lat="44.67371" lon="5.08516">
        <ele>518.35534512963</ele>
        <time>2012-09-29T09:07:58Z</time>
      </trkpt>
      <trkpt lat="44.67366" lon="5.0853">
        <ele>515.82346250898</ele>
        <time>2012-09-29T09:08:04Z</time>
      </trkpt>
      <trkpt lat="44.67355" lon="5.08538">
        <ele>522.37183005733</ele>
        <time>2012-09-29T09:08:11Z</time>
      </trkpt>
      <trkpt lat="44.67343" lon="5.08562">
        <ele>515.1255992816</ele>
        <time>2012-09-29T09:08:17Z</time>
      </trkpt>
      <trkpt lat="44.67336" lon="5.08582">
        <ele>523.59478141694</ele>
        <time>2012-09-29T09:08:24Z</time>
      </trkpt>
      <trkpt lat="44.6733" lon="5.08612">
        <ele>524.03143263946</ele>
        <time>2012-09-29T09:08:31Z</time>
      </trkpt>
      <trkpt lat="44.67326" lon="5.0864">
        <ele>518.87916878113</ele>
        <time>2012-09-29T09:08:36Z</time>
      </trkpt>
      <trkpt lat="44.67323" lon="5.08656">
        <ele>522.54668081</ele>
        <time>2012-09-29T09:08:41Z</time>
      </trkpt>
      <trkpt lat="44.67322" lon="5.08675">
        <ele>522.89585812094</ele>
        <time>2012-09-29T09:08:48Z</time>
      </trkpt>
      <trkpt lat="44.6732" lon="5.08695">
        <ele>529.44872747294</ele>
        <time>2012-09-29T09:08:54Z</time>
      </trkpt>
      <trkpt lat="44.67319" lon="5.08721">
        <ele>527.61384486119</ele>
        <time>2012-09-29T09:09:02Z</time>
      </trkpt>
      <trkpt lat="44.67327" lon="5.08748">
        <ele>524.55554519447</ele>
        <time>2012-09-29T09:09:08Z</time>
      </trkpt>
      <trkpt lat="44.67337" lon="5.08762">
        <ele>525.16713244111</ele>
        <time>2012-09-29T09:09:14Z</time>
      </trkpt>
      <trkpt lat="44.67345" lon="5.08778">
        <ele>525.25458118926</ele>
        <time>2012-09-29T09:09:19Z</time>
      </trkpt>
      <trkpt lat="44.67345" lon="5.08801">
        <ele>517.13301597642</ele>
        <time>2012-09-29T09:09:24Z</time>
      </trkpt>
      <trkpt lat="44.67341" lon="5.08824">
        <ele>523.76965294312</ele>
        <time>2012-09-29T09:09:31Z</time>
      </trkpt>
      <trkpt lat="44.67337" lon="5.08852">
        <ele>516.69665724079</ele>
        <time>2012-09-29T09:09:38Z</time>
      </trkpt>
      <trkpt lat="44.67335" lon="5.08878">
        <ele>517.83154812862</ele>
        <time>2012-09-29T09:09:43Z</time>
      </trkpt>
      <trkpt lat="44.67329" lon="5.08902">
        <ele>515.82346250898</ele>
        <time>2012-09-29T09:09:50Z</time>
      </trkpt>
      <trkpt lat="44.67326" lon="5.08928">
        <ele>517.0456361895</ele>
        <time>2012-09-29T09:09:57Z</time>
      </trkpt>
      <trkpt lat="44.67322" lon="5.08959">
        <ele>517.13301597642</ele>
        <time>2012-09-29T09:10:02Z</time>
      </trkpt>
      <trkpt lat="44.67316" lon="5.08987">
        <ele>512.24568253959</ele>
        <time>2012-09-29T09:10:09Z</time>
      </trkpt>
      <trkpt lat="44.6731" lon="5.09015">
        <ele>513.55424838803</ele>
        <time>2012-09-29T09:10:15Z</time>
      </trkpt>
      <trkpt lat="44.67305" lon="5.09037">
        <ele>512.24568253959</ele>
        <time>2012-09-29T09:10:21Z</time>
      </trkpt>
      <trkpt lat="44.67298" lon="5.0905">
        <ele>506.22693027944</ele>
        <time>2012-09-29T09:10:27Z</time>
      </trkpt>
      <trkpt lat="44.67283" lon="5.09056">
        <ele>511.89633370303</ele>
        <time>2012-09-29T09:10:34Z</time>
      </trkpt>
      <trkpt lat="44.67268" lon="5.09059">
        <ele>511.72219625527</ele>
        <time>2012-09-29T09:10:39Z</time>
      </trkpt>
      <trkpt lat="44.67257" lon="5.09058">
        <ele>510.58797851844</ele>
        <time>2012-09-29T09:10:44Z</time>
      </trkpt>
      <trkpt lat="44.67243" lon="5.0906">
        <ele>506.83742973574</ele>
        <time>2012-09-29T09:10:51Z</time>
      </trkpt>
      <trkpt lat="44.67224" lon="5.09072">
        <ele>504.83148678953</ele>
        <time>2012-09-29T09:10:58Z</time>
      </trkpt>
      <trkpt lat="44.6721" lon="5.09096">
        <ele>505.18059602971</ele>
        <time>2012-09-29T09:11:03Z</time>
      </trkpt>
      <trkpt lat="44.67205" lon="5.09122">
        <ele>493.67739802276</ele>
        <time>2012-09-29T09:11:10Z</time>
      </trkpt>
      <trkpt lat="44.67204" lon="5.0915">
        <ele>500.90907879766</ele>
        <time>2012-09-29T09:11:17Z</time>
      </trkpt>
      <trkpt lat="44.67205" lon="5.09175">
        <ele>497.24873197426</ele>
        <time>2012-09-29T09:11:23Z</time>
      </trkpt>
      <trkpt lat="44.67208" lon="5.09196">
        <ele>499.16597025092</ele>
        <time>2012-09-29T09:11:29Z</time>
      </trkpt>
      <trkpt lat="44.67211" lon="5.09214">
        <ele>497.33594394294</ele>
        <time>2012-09-29T09:11:35Z</time>
      </trkpt>
      <trkpt lat="44.6721" lon="5.09233">
        <ele>500.73459507983</ele>
        <time>2012-09-29T09:11:41Z</time>
      </trkpt>
      <trkpt lat="44.67205" lon="5.09256">
        <ele>500.12445727066</ele>
        <time>2012-09-29T09:11:47Z</time>
      </trkpt>
      <trkpt lat="44.67195" lon="5.0929">
        <ele>494.19996789145</ele>
        <time>2012-09-29T09:11:54Z</time>
      </trkpt>
      <trkpt lat="44.67187" lon="5.09321">
        <ele>497.684799202</ele>
        <time>2012-09-29T09:12:00Z</time>
      </trkpt>
      <trkpt lat="44.67183" lon="5.09347">
        <ele>496.98763226317</ele>
        <time>2012-09-29T09:12:06Z</time>
      </trkpt>
      <trkpt lat="44.67185" lon="5.09377">
        <ele>489.58440810367</ele>
        <time>2012-09-29T09:12:11Z</time>
      </trkpt>
      <trkpt lat="44.67188" lon="5.09401">
        <ele>501.08303349542</ele>
        <time>2012-09-29T09:12:17Z</time>
      </trkpt>
      <trkpt lat="44.67188" lon="5.09424">
        <ele>496.46492095796</ele>
        <time>2012-09-29T09:12:23Z</time>
      </trkpt>
      <trkpt lat="44.67191" lon="5.09451">
        <ele>492.71951069954</ele>
        <time>2012-09-29T09:12:29Z</time>
      </trkpt>
      <trkpt lat="44.67192" lon="5.09477">
        <ele>498.20757241766</ele>
        <time>2012-09-29T09:12:35Z</time>
      </trkpt>
      <trkpt lat="44.67188" lon="5.09501">
        <ele>499.51435560302</ele>
        <time>2012-09-29T09:12:41Z</time>
      </trkpt>
      <trkpt lat="44.67181" lon="5.09529">
        <ele>497.684799202</ele>
        <time>2012-09-29T09:12:46Z</time>
      </trkpt>
      <trkpt lat="44.67175" lon="5.0955">
        <ele>498.2942606732</ele>
        <time>2012-09-29T09:12:51Z</time>
      </trkpt>
      <trkpt lat="44.67171" lon="5.09566">
        <ele>490.62915915041</ele>
        <time>2012-09-29T09:12:57Z</time>
      </trkpt>
      <trkpt lat="44.67169" lon="5.0958">
        <ele>498.12035306864</ele>
        <time>2012-09-29T09:13:03Z</time>
      </trkpt>
      <trkpt lat="44.67171" lon="5.096">
        <ele>501.86772805366</ele>
        <time>2012-09-29T09:13:09Z</time>
      </trkpt>
      <trkpt lat="44.67172" lon="5.09618">
        <ele>503.87256163558</ele>
        <time>2012-09-29T09:13:15Z</time>
      </trkpt>
      <trkpt lat="44.67178" lon="5.09633">
        <ele>500.21169359212</ele>
        <time>2012-09-29T09:13:21Z</time>
      </trkpt>
      <trkpt lat="44.67187" lon="5.09648">
        <ele>500.29893065246</ele>
        <time>2012-09-29T09:13:26Z</time>
      </trkpt>
      <trkpt lat="44.67195" lon="5.09665">
        <ele>506.57555456859</ele>
        <time>2012-09-29T09:13:32Z</time>
      </trkpt>
      <trkpt lat="44.67201" lon="5.09683">
        <ele>505.18059602971</ele>
        <time>2012-09-29T09:13:38Z</time>
      </trkpt>
      <trkpt lat="44.67206" lon="5.09704">
        <ele>501.34476903532</ele>
        <time>2012-09-29T09:13:44Z</time>
      </trkpt>
      <trkpt lat="44.67207" lon="5.09715">
        <ele>504.65746876794</ele>
        <time>2012-09-29T09:13:50Z</time>
      </trkpt>
      <trkpt lat="44.67208" lon="5.0972">
        <ele>508.14530844878</ele>
        <time>2012-09-29T09:13:56Z</time>
      </trkpt>
      <trkpt lat="44.67209" lon="5.09722">
        <ele>512.50716937899</ele>
        <time>2012-09-29T09:14:01Z</time>
      </trkpt>
      <trkpt lat="44.67209" lon="5.09722">
        <ele>513.55424838803</ele>
        <time>2012-09-29T09:14:08Z</time>
      </trkpt>
      <trkpt lat="44.67208" lon="5.09724">
        <ele>520.27598450995</ele>
        <time>2012-09-29T09:14:14Z</time>
      </trkpt>
      <trkpt lat="44.67205" lon="5.09731">
        <ele>514.601433888</ele>
        <time>2012-09-29T09:14:20Z</time>
      </trkpt>
      <trkpt lat="44.67192" lon="5.09736">
        <ele>523.33247969745</ele>
        <time>2012-09-29T09:14:27Z</time>
      </trkpt>
      <trkpt lat="44.67174" lon="5.09737">
        <ele>520.71249498218</ele>
        <time>2012-09-29T09:14:33Z</time>
      </trkpt>
      <trkpt lat="44.67167" lon="5.0974">
        <ele>524.20631158351</ele>
        <time>2012-09-29T09:14:38Z</time>
      </trkpt>
      <trkpt lat="44.67163" lon="5.09743">
        <ele>523.85708982021</ele>
        <time>2012-09-29T09:14:44Z</time>
      </trkpt>
      <trkpt lat="44.67163" lon="5.09746">
        <ele>531.28447078416</ele>
        <time>2012-09-29T09:14:50Z</time>
      </trkpt>
      <trkpt lat="44.67159" lon="5.09747">
        <ele>533.90714814485</ele>
        <time>2012-09-29T09:14:55Z</time>
      </trkpt>
      <trkpt lat="44.67156" lon="5.09748">
        <ele>537.66757392016</ele>
        <time>2012-09-29T09:15:01Z</time>
      </trkpt>
      <trkpt lat="44.67148" lon="5.09746">
        <ele>538.97990961742</ele>
        <time>2012-09-29T09:15:07Z</time>
      </trkpt>
      <trkpt lat="44.6714" lon="5.09742">
        <ele>538.45506203757</ele>
        <time>2012-09-29T09:15:12Z</time>
      </trkpt>
      <trkpt lat="44.67134" lon="5.09739">
        <ele>537.93024122478</ele>
        <time>2012-09-29T09:15:18Z</time>
      </trkpt>
      <trkpt lat="44.67129" lon="5.09742">
        <ele>538.97990961742</ele>
        <time>2012-09-29T09:15:24Z</time>
      </trkpt>
      <trkpt lat="44.67122" lon="5.09746">
        <ele>547.11873940052</ele>
        <time>2012-09-29T09:15:30Z</time>
      </trkpt>
      <trkpt lat="44.67119" lon="5.09747">
        <ele>546.33058798624</ele>
        <time>2012-09-29T09:15:36Z</time>
      </trkpt>
      <trkpt lat="44.67113" lon="5.09745">
        <ele>551.23413753143</ele>
        <time>2012-09-29T09:15:41Z</time>
      </trkpt>
      <trkpt lat="44.67106" lon="5.09745">
        <ele>549.48302148301</ele>
        <time>2012-09-29T09:15:47Z</time>
      </trkpt>
      <trkpt lat="44.67099" lon="5.09746">
        <ele>550.35854224967</ele>
        <time>2012-09-29T09:15:54Z</time>
      </trkpt>
      <trkpt lat="44.67093" lon="5.09745">
        <ele>559.55815188873</ele>
        <time>2012-09-29T09:16:01Z</time>
      </trkpt>
      <trkpt lat="44.67091" lon="5.09745">
        <ele>561.31151912411</ele>
        <time>2012-09-29T09:16:07Z</time>
      </trkpt>
      <trkpt lat="44.67088" lon="5.09748">
        <ele>559.90912244015</ele>
        <time>2012-09-29T09:16:14Z</time>
      </trkpt>
      <trkpt lat="44.67089" lon="5.09745">
        <ele>563.50351478134</ele>
        <time>2012-09-29T09:16:20Z</time>
      </trkpt>
      <trkpt lat="44.67088" lon="5.09744">
        <ele>564.0296418523</ele>
        <time>2012-09-29T09:16:27Z</time>
      </trkpt>
      <trkpt lat="44.67085" lon="5.09743">
        <ele>569.46804341337</ele>
        <time>2012-09-29T09:16:34Z</time>
      </trkpt>
      <trkpt lat="44.67079" lon="5.09741">
        <ele>573.15363566887</ele>
        <time>2012-09-29T09:16:41Z</time>
      </trkpt>
      <trkpt lat="44.67069" lon="5.09738">
        <ele>570.0823063217</ele>
        <time>2012-09-29T09:16:47Z</time>
      </trkpt>
      <trkpt lat="44.67062" lon="5.09736">
        <ele>571.66177846423</ele>
        <time>2012-09-29T09:16:54Z</time>
      </trkpt>
      <trkpt lat="44.67062" lon="5.09731">
        <ele>579.03639417537</ele>
        <time>2012-09-29T09:16:59Z</time>
      </trkpt>
      <trkpt lat="44.6706" lon="5.09728">
        <ele>575.69966710106</ele>
        <time>2012-09-29T09:17:05Z</time>
      </trkpt>
      <trkpt lat="44.67058" lon="5.09728">
        <ele>577.36789527711</ele>
        <time>2012-09-29T09:17:11Z</time>
      </trkpt>
      <trkpt lat="44.67056" lon="5.09727">
        <ele>585.53717125365</ele>
        <time>2012-09-29T09:17:17Z</time>
      </trkpt>
      <trkpt lat="44.67047" lon="5.09724">
        <ele>582.28626886981</ele>
        <time>2012-09-29T09:17:24Z</time>
      </trkpt>
      <trkpt lat="44.6704" lon="5.09723">
        <ele>583.16458686242</ele>
        <time>2012-09-29T09:17:31Z</time>
      </trkpt>
      <trkpt lat="44.6703" lon="5.09717">
        <ele>587.64635654028</ele>
        <time>2012-09-29T09:17:37Z</time>
      </trkpt>
      <trkpt lat="44.67022" lon="5.09712">
        <ele>593.09726815376</ele>
        <time>2012-09-29T09:17:43Z</time>
      </trkpt>
      <trkpt lat="44.67015" lon="5.09711">
        <ele>589.31652463801</ele>
        <time>2012-09-29T09:17:49Z</time>
      </trkpt>
      <trkpt lat="44.67009" lon="5.09706">
        <ele>596.7913431011</ele>
        <time>2012-09-29T09:17:56Z</time>
      </trkpt>
      <trkpt lat="44.67006" lon="5.09701">
        <ele>595.29605181164</ele>
        <time>2012-09-29T09:18:02Z</time>
      </trkpt>
      <trkpt lat="44.67003" lon="5.09699">
        <ele>602.33521507571</ele>
        <time>2012-09-29T09:18:07Z</time>
      </trkpt>
      <trkpt lat="44.66999" lon="5.09697">
        <ele>602.33521507571</ele>
        <time>2012-09-29T09:18:12Z</time>
      </trkpt>
      <trkpt lat="44.66996" lon="5.09696">
        <ele>598.63914715051</ele>
        <time>2012-09-29T09:18:18Z</time>
      </trkpt>
      <trkpt lat="44.66994" lon="5.09696">
        <ele>601.19096245666</ele>
        <time>2012-09-29T09:18:24Z</time>
      </trkpt>
      <trkpt lat="44.66993" lon="5.09695">
        <ele>605.06420778025</ele>
        <time>2012-09-29T09:18:30Z</time>
      </trkpt>
      <trkpt lat="44.66993" lon="5.09695">
        <ele>610.61254623269</ele>
        <time>2012-09-29T09:18:35Z</time>
      </trkpt>
      <trkpt lat="44.66988" lon="5.09692">
        <ele>609.02707771193</ele>
        <time>2012-09-29T09:18:41Z</time>
      </trkpt>
      <trkpt lat="44.66978" lon="5.09684">
        <ele>609.46737149073</ele>
        <time>2012-09-29T09:18:48Z</time>
      </trkpt>
      <trkpt lat="44.66968" lon="5.09683">
        <ele>613.60834639559</ele>
        <time>2012-09-29T09:18:55Z</time>
      </trkpt>
      <trkpt lat="44.66967" lon="5.09681">
        <ele>614.5775572725</ele>
        <time>2012-09-29T09:19:00Z</time>
      </trkpt>
      <trkpt lat="44.66962" lon="5.09681">
        <ele>615.81152407866</ele>
        <time>2012-09-29T09:19:07Z</time>
      </trkpt>
      <trkpt lat="44.66961" lon="5.09685">
        <ele>625.1582289321</ele>
        <time>2012-09-29T09:19:12Z</time>
      </trkpt>
      <trkpt lat="44.6696" lon="5.09685">
        <ele>619.4255219435</ele>
        <time>2012-09-29T09:19:18Z</time>
      </trkpt>
      <trkpt lat="44.66959" lon="5.09683">
        <ele>628.24606560265</ele>
        <time>2012-09-29T09:19:24Z</time>
      </trkpt>
      <trkpt lat="44.66959" lon="5.09682">
        <ele>625.1582289321</ele>
        <time>2012-09-29T09:19:30Z</time>
      </trkpt>
      <trkpt lat="44.66959" lon="5.09682">
        <ele>632.04116510605</ele>
        <time>2012-09-29T09:19:36Z</time>
      </trkpt>
      <trkpt lat="44.66954" lon="5.09676">
        <ele>629.21719742286</ele>
        <time>2012-09-29T09:19:43Z</time>
      </trkpt>
      <trkpt lat="44.66948" lon="5.09668">
        <ele>630.54073457156</ele>
        <time>2012-09-29T09:19:49Z</time>
      </trkpt>
      <trkpt lat="44.66943" lon="5.09659">
        <ele>636.27965136325</ele>
        <time>2012-09-29T09:19:54Z</time>
      </trkpt>
      <trkpt lat="44.66945" lon="5.09646">
        <ele>639.54768664889</ele>
        <time>2012-09-29T09:19:59Z</time>
      </trkpt>
      <trkpt lat="44.66946" lon="5.09638">
        <ele>639.19398565249</ele>
        <time>2012-09-29T09:20:06Z</time>
      </trkpt>
      <trkpt lat="44.66942" lon="5.09638">
        <ele>643.96566221069</ele>
        <time>2012-09-29T09:20:13Z</time>
      </trkpt>
      <trkpt lat="44.66944" lon="5.09632">
        <ele>643.25850731884</ele>
        <time>2012-09-29T09:20:19Z</time>
      </trkpt>
      <trkpt lat="44.66939" lon="5.09634">
        <ele>644.49592548652</ele>
        <time>2012-09-29T09:20:26Z</time>
      </trkpt>
      <trkpt lat="44.66933" lon="5.09646">
        <ele>647.58958402204</ele>
        <time>2012-09-29T09:20:31Z</time>
      </trkpt>
      <trkpt lat="44.66931" lon="5.09653">
        <ele>651.21532546072</ele>
        <time>2012-09-29T09:20:36Z</time>
      </trkpt>
      <trkpt lat="44.66932" lon="5.09654">
        <ele>649.8885808061</ele>
        <time>2012-09-29T09:20:42Z</time>
      </trkpt>
      <trkpt lat="44.66934" lon="5.09656">
        <ele>652.80732152223</ele>
        <time>2012-09-29T09:20:47Z</time>
      </trkpt>
      <trkpt lat="44.66934" lon="5.09658">
        <ele>654.13390358328</ele>
        <time>2012-09-29T09:20:53Z</time>
      </trkpt>
      <trkpt lat="44.66929" lon="5.09659">
        <ele>656.96527466622</ele>
        <time>2012-09-29T09:20:58Z</time>
      </trkpt>
      <trkpt lat="44.66926" lon="5.0966">
        <ele>662.01053950779</ele>
        <time>2012-09-29T09:21:04Z</time>
      </trkpt>
      <trkpt lat="44.66924" lon="5.09657">
        <ele>661.30214031453</ele>
        <time>2012-09-29T09:21:10Z</time>
      </trkpt>
      <trkpt lat="44.66917" lon="5.09659">
        <ele>661.83330003486</ele>
        <time>2012-09-29T09:21:15Z</time>
      </trkpt>
      <trkpt lat="44.66909" lon="5.09663">
        <ele>664.75544031275</ele>
        <time>2012-09-29T09:21:21Z</time>
      </trkpt>
      <trkpt lat="44.66906" lon="5.09668">
        <ele>670.15875451536</ele>
        <time>2012-09-29T09:21:27Z</time>
      </trkpt>
      <trkpt lat="44.66906" lon="5.09666">
        <ele>669.00745974156</ele>
        <time>2012-09-29T09:21:32Z</time>
      </trkpt>
      <trkpt lat="44.66903" lon="5.09661">
        <ele>674.0581096847</ele>
        <time>2012-09-29T09:21:38Z</time>
      </trkpt>
      <trkpt lat="44.669" lon="5.0966">
        <ele>673.96992644619</ele>
        <time>2012-09-29T09:21:43Z</time>
      </trkpt>
      <trkpt lat="44.669" lon="5.09659">
        <ele>679.55509869609</ele>
        <time>2012-09-29T09:21:49Z</time>
      </trkpt>
      <trkpt lat="44.66899" lon="5.09655">
        <ele>677.78197356057</ele>
        <time>2012-09-29T09:21:55Z</time>
      </trkpt>
      <trkpt lat="44.66897" lon="5.09644">
        <ele>680.61987880732</ele>
        <time>2012-09-29T09:22:01Z</time>
      </trkpt>
      <trkpt lat="44.6689" lon="5.09635">
        <ele>682.65988832364</ele>
        <time>2012-09-29T09:22:07Z</time>
      </trkpt>
      <trkpt lat="44.66881" lon="5.09633">
        <ele>680.17598144227</ele>
        <time>2012-09-29T09:22:13Z</time>
      </trkpt>
      <trkpt lat="44.66875" lon="5.0964">
        <ele>683.63564140829</ele>
        <time>2012-09-29T09:22:20Z</time>
      </trkpt>
      <trkpt lat="44.66868" lon="5.09652">
        <ele>681.59543783321</ele>
        <time>2012-09-29T09:22:26Z</time>
      </trkpt>
      <trkpt lat="44.66863" lon="5.09664">
        <ele>683.28095904358</ele>
        <time>2012-09-29T09:22:32Z</time>
      </trkpt>
      <trkpt lat="44.66856" lon="5.09677">
        <ele>683.10335172005</ele>
        <time>2012-09-29T09:22:37Z</time>
      </trkpt>
      <trkpt lat="44.66854" lon="5.09689">
        <ele>684.43439851597</ele>
        <time>2012-09-29T09:22:43Z</time>
      </trkpt>
      <trkpt lat="44.66851" lon="5.09704">
        <ele>687.00763166457</ele>
        <time>2012-09-29T09:22:50Z</time>
      </trkpt>
      <trkpt lat="44.66846" lon="5.09726">
        <ele>683.63564140829</ele>
        <time>2012-09-29T09:22:56Z</time>
      </trkpt>
      <trkpt lat="44.66846" lon="5.09747">
        <ele>687.09646875365</ele>
        <time>2012-09-29T09:23:02Z</time>
      </trkpt>
      <trkpt lat="44.66845" lon="5.0976">
        <ele>688.42749215505</ele>
        <time>2012-09-29T09:23:07Z</time>
      </trkpt>
      <trkpt lat="44.66841" lon="5.09778">
        <ele>691.88993719938</ele>
        <time>2012-09-29T09:23:14Z</time>
      </trkpt>
      <trkpt lat="44.66838" lon="5.09801">
        <ele>691.71272265998</ele>
        <time>2012-09-29T09:23:19Z</time>
      </trkpt>
      <trkpt lat="44.66835" lon="5.09812">
        <ele>691.26834492859</ele>
        <time>2012-09-29T09:23:25Z</time>
      </trkpt>
      <trkpt lat="44.66832" lon="5.09824">
        <ele>694.73174946814</ele>
        <time>2012-09-29T09:23:31Z</time>
      </trkpt>
      <trkpt lat="44.66833" lon="5.0984">
        <ele>692.1565776897</ele>
        <time>2012-09-29T09:23:37Z</time>
      </trkpt>
      <trkpt lat="44.66834" lon="5.09847">
        <ele>700.06247463537</ele>
        <time>2012-09-29T09:23:43Z</time>
      </trkpt>
      <trkpt lat="44.66833" lon="5.09856">
        <ele>698.46258645477</ele>
        <time>2012-09-29T09:23:48Z</time>
      </trkpt>
      <trkpt lat="44.66836" lon="5.09866">
        <ele>705.39543021161</ele>
        <time>2012-09-29T09:23:54Z</time>
      </trkpt>
      <trkpt lat="44.66838" lon="5.09879">
        <ele>703.61728924272</ele>
        <time>2012-09-29T09:24:00Z</time>
      </trkpt>
      <trkpt lat="44.6684" lon="5.09892">
        <ele>704.23963062996</ele>
        <time>2012-09-29T09:24:05Z</time>
      </trkpt>
      <trkpt lat="44.66845" lon="5.09906">
        <ele>710.01993212134</ele>
        <time>2012-09-29T09:24:11Z</time>
      </trkpt>
      <trkpt lat="44.66847" lon="5.0992">
        <ele>709.84186103543</ele>
        <time>2012-09-29T09:24:17Z</time>
      </trkpt>
      <trkpt lat="44.66845" lon="5.09935">
        <ele>708.95263770035</ele>
        <time>2012-09-29T09:24:22Z</time>
      </trkpt>
      <trkpt lat="44.66845" lon="5.09948">
        <ele>706.37334927627</ele>
        <time>2012-09-29T09:24:28Z</time>
      </trkpt>
      <trkpt lat="44.66846" lon="5.09962">
        <ele>713.75633800136</ele>
        <time>2012-09-29T09:24:34Z</time>
      </trkpt>
      <trkpt lat="44.66845" lon="5.09977">
        <ele>705.75087834748</ele>
        <time>2012-09-29T09:24:40Z</time>
      </trkpt>
      <trkpt lat="44.66841" lon="5.09992">
        <ele>716.15930428544</ele>
        <time>2012-09-29T09:24:46Z</time>
      </trkpt>
      <trkpt lat="44.66838" lon="5.10003">
        <ele>715.35807186145</ele>
        <time>2012-09-29T09:24:52Z</time>
      </trkpt>
      <trkpt lat="44.66836" lon="5.10012">
        <ele>713.75633800136</ele>
        <time>2012-09-29T09:24:57Z</time>
      </trkpt>
      <trkpt lat="44.66835" lon="5.10019">
        <ele>715.62532344356</ele>
        <time>2012-09-29T09:25:03Z</time>
      </trkpt>
      <trkpt lat="44.66825" lon="5.10034">
        <ele>719.71970660142</ele>
        <time>2012-09-29T09:25:08Z</time>
      </trkpt>
      <trkpt lat="44.6682" lon="5.10051">
        <ele>717.85051773802</ele>
        <time>2012-09-29T09:25:13Z</time>
      </trkpt>
      <trkpt lat="44.66818" lon="5.10067">
        <ele>719.63058636943</ele>
        <time>2012-09-29T09:25:19Z</time>
      </trkpt>
      <trkpt lat="44.66821" lon="5.10071">
        <ele>716.69331294984</ele>
        <time>2012-09-29T09:25:25Z</time>
      </trkpt>
      <trkpt lat="44.6683" lon="5.10064">
        <ele>712.15485441272</ele>
        <time>2012-09-29T09:25:30Z</time>
      </trkpt>
      <trkpt lat="44.66837" lon="5.10063">
        <ele>707.97392976342</ele>
        <time>2012-09-29T09:25:37Z</time>
      </trkpt>
      <trkpt lat="44.66834" lon="5.10079">
        <ele>704.06165992452</ele>
        <time>2012-09-29T09:25:44Z</time>
      </trkpt>
      <trkpt lat="44.6683" lon="5.10092">
        <ele>700.06247463537</ele>
        <time>2012-09-29T09:25:50Z</time>
      </trkpt>
      <trkpt lat="44.66823" lon="5.10102">
        <ele>693.3999076095</ele>
        <time>2012-09-29T09:25:55Z</time>
      </trkpt>
      <trkpt lat="44.66818" lon="5.10119">
        <ele>695.97539169076</ele>
        <time>2012-09-29T09:26:01Z</time>
      </trkpt>
      <trkpt lat="44.6681" lon="5.10135">
        <ele>693.0443453886</ele>
        <time>2012-09-29T09:26:07Z</time>
      </trkpt>
      <trkpt lat="44.66799" lon="5.10151">
        <ele>691.53496925661</ele>
        <time>2012-09-29T09:26:13Z</time>
      </trkpt>
      <trkpt lat="44.66787" lon="5.10169">
        <ele>688.16149035386</ele>
        <time>2012-09-29T09:26:20Z</time>
      </trkpt>
      <trkpt lat="44.6678" lon="5.10188">
        <ele>686.20867413421</ele>
        <time>2012-09-29T09:26:25Z</time>
      </trkpt>
      <trkpt lat="44.66773" lon="5.10202">
        <ele>683.63564140829</ele>
        <time>2012-09-29T09:26:30Z</time>
      </trkpt>
      <trkpt lat="44.66767" lon="5.10219">
        <ele>674.94485321694</ele>
        <time>2012-09-29T09:26:36Z</time>
      </trkpt>
      <trkpt lat="44.66762" lon="5.10232">
        <ele>673.52631674434</ele>
        <time>2012-09-29T09:26:41Z</time>
      </trkpt>
      <trkpt lat="44.66757" lon="5.10244">
        <ele>672.55152476496</ele>
        <time>2012-09-29T09:26:46Z</time>
      </trkpt>
      <trkpt lat="44.6675" lon="5.1027">
        <ele>673.3494192009</ele>
        <time>2012-09-29T09:26:53Z</time>
      </trkpt>
      <trkpt lat="44.66741" lon="5.10293">
        <ele>664.57869392657</ele>
        <time>2012-09-29T09:26:58Z</time>
      </trkpt>
      <trkpt lat="44.66734" lon="5.10312">
        <ele>666.34953839023</ele>
        <time>2012-09-29T09:27:04Z</time>
      </trkpt>
      <trkpt lat="44.66728" lon="5.10333">
        <ele>665.72949183733</ele>
        <time>2012-09-29T09:27:10Z</time>
      </trkpt>
      <trkpt lat="44.66725" lon="5.10356">
        <ele>665.90679862173</ele>
        <time>2012-09-29T09:27:17Z</time>
      </trkpt>
      <trkpt lat="44.6673" lon="5.1038">
        <ele>661.30214031453</ele>
        <time>2012-09-29T09:27:22Z</time>
      </trkpt>
      <trkpt lat="44.66729" lon="5.104">
        <ele>665.64138015421</ele>
        <time>2012-09-29T09:27:28Z</time>
      </trkpt>
      <trkpt lat="44.66724" lon="5.10416">
        <ele>664.93273026625</ele>
        <time>2012-09-29T09:27:34Z</time>
      </trkpt>
      <trkpt lat="44.66716" lon="5.10429">
        <ele>658.02717271886</ele>
        <time>2012-09-29T09:27:40Z</time>
      </trkpt>
      <trkpt lat="44.66712" lon="5.10445">
        <ele>666.6155157884</ele>
        <time>2012-09-29T09:27:45Z</time>
      </trkpt>
      <trkpt lat="44.6671" lon="5.10458">
        <ele>664.135490078</ele>
        <time>2012-09-29T09:27:51Z</time>
      </trkpt>
      <trkpt lat="44.66714" lon="5.10467">
        <ele>668.91877917145</ele>
        <time>2012-09-29T09:27:57Z</time>
      </trkpt>
      <trkpt lat="44.66714" lon="5.10468">
        <ele>674.94485321694</ele>
        <time>2012-09-29T09:28:02Z</time>
      </trkpt>
      <trkpt lat="44.66712" lon="5.10467">
        <ele>677.5157065118</ele>
        <time>2012-09-29T09:28:07Z</time>
      </trkpt>
      <trkpt lat="44.66711" lon="5.10465">
        <ele>678.04770630682</ele>
        <time>2012-09-29T09:28:12Z</time>
      </trkpt>
      <trkpt lat="44.66711" lon="5.10465">
        <ele>676.62928187419</ele>
        <time>2012-09-29T09:28:17Z</time>
      </trkpt>
      <trkpt lat="44.66711" lon="5.10465">
        <ele>677.87073077941</ele>
        <time>2012-09-29T09:28:22Z</time>
      </trkpt>
      <trkpt lat="44.66707" lon="5.10458">
        <ele>681.68422805599</ele>
        <time>2012-09-29T09:28:29Z</time>
      </trkpt>
      <trkpt lat="44.66703" lon="5.10446">
        <ele>687.09646875365</ele>
        <time>2012-09-29T09:28:34Z</time>
      </trkpt>
      <trkpt lat="44.66705" lon="5.10436">
        <ele>684.70030366583</ele>
        <time>2012-09-29T09:28:40Z</time>
      </trkpt>
      <trkpt lat="44.66702" lon="5.10426">
        <ele>689.13776702378</ele>
        <time>2012-09-29T09:28:45Z</time>
      </trkpt>
      <trkpt lat="44.66699" lon="5.1042">
        <ele>687.80665144121</ele>
        <time>2012-09-29T09:28:51Z</time>
      </trkpt>
      <trkpt lat="44.66697" lon="5.10416">
        <ele>689.40433596287</ele>
        <time>2012-09-29T09:28:57Z</time>
      </trkpt>
      <trkpt lat="44.66695" lon="5.10414">
        <ele>693.3999076095</ele>
        <time>2012-09-29T09:29:02Z</time>
      </trkpt>
      <trkpt lat="44.66693" lon="5.10408">
        <ele>691.71272265998</ele>
        <time>2012-09-29T09:29:08Z</time>
      </trkpt>
      <trkpt lat="44.66689" lon="5.10403">
        <ele>694.55394372423</ele>
        <time>2012-09-29T09:29:13Z</time>
      </trkpt>
      <trkpt lat="44.66687" lon="5.10401">
        <ele>697.13025994331</ele>
        <time>2012-09-29T09:29:20Z</time>
      </trkpt>
      <trkpt lat="44.66683" lon="5.10402">
        <ele>696.95241260311</ele>
        <time>2012-09-29T09:29:25Z</time>
      </trkpt>
      <trkpt lat="44.66678" lon="5.10407">
        <ele>701.9284223117</ele>
        <time>2012-09-29T09:29:31Z</time>
      </trkpt>
      <trkpt lat="44.66676" lon="5.10413">
        <ele>702.28429275335</ele>
        <time>2012-09-29T09:29:37Z</time>
      </trkpt>
      <trkpt lat="44.66668" lon="5.10424">
        <ele>709.9308961917</ele>
        <time>2012-09-29T09:29:44Z</time>
      </trkpt>
      <trkpt lat="44.66663" lon="5.10438">
        <ele>704.50659248122</ele>
        <time>2012-09-29T09:29:49Z</time>
      </trkpt>
      <trkpt lat="44.66656" lon="5.10446">
        <ele>708.95263770035</ele>
        <time>2012-09-29T09:29:56Z</time>
      </trkpt>
      <trkpt lat="44.66652" lon="5.10454">
        <ele>714.2902214758</ele>
        <time>2012-09-29T09:30:02Z</time>
      </trkpt>
      <trkpt lat="44.66647" lon="5.10462">
        <ele>710.82020439869</ele>
        <time>2012-09-29T09:30:07Z</time>
      </trkpt>
      <trkpt lat="44.66646" lon="5.10471">
        <ele>719.9870719476</ele>
        <time>2012-09-29T09:30:13Z</time>
      </trkpt>
      <trkpt lat="44.66643" lon="5.10482">
        <ele>717.67231055492</ele>
        <time>2012-09-29T09:30:19Z</time>
      </trkpt>
      <trkpt lat="44.66642" lon="5.10493">
        <ele>717.67231055492</ele>
        <time>2012-09-29T09:30:24Z</time>
      </trkpt>
      <trkpt lat="44.66642" lon="5.10503">
        <ele>719.36377372295</ele>
        <time>2012-09-29T09:30:30Z</time>
      </trkpt>
      <trkpt lat="44.66637" lon="5.10511">
        <ele>723.10358825872</ele>
        <time>2012-09-29T09:30:35Z</time>
      </trkpt>
      <trkpt lat="44.66632" lon="5.10517">
        <ele>723.8162698662</ele>
        <time>2012-09-29T09:30:41Z</time>
      </trkpt>
      <trkpt lat="44.66632" lon="5.10521">
        <ele>726.22105268802</ele>
        <time>2012-09-29T09:30:47Z</time>
      </trkpt>
      <trkpt lat="44.66633" lon="5.10525">
        <ele>725.86489392315</ele>
        <time>2012-09-29T09:30:52Z</time>
      </trkpt>
      <trkpt lat="44.66635" lon="5.10532">
        <ele>732.37014147156</ele>
        <time>2012-09-29T09:30:59Z</time>
      </trkpt>
      <trkpt lat="44.66632" lon="5.10546">
        <ele>732.90499563758</ele>
        <time>2012-09-29T09:31:05Z</time>
      </trkpt>
      <trkpt lat="44.66627" lon="5.10554">
        <ele>732.81630476532</ele>
        <time>2012-09-29T09:31:10Z</time>
      </trkpt>
      <trkpt lat="44.66624" lon="5.10563">
        <ele>740.30713174911</ele>
        <time>2012-09-29T09:31:16Z</time>
      </trkpt>
      <trkpt lat="44.66616" lon="5.10576">
        <ele>732.28145522937</ele>
        <time>2012-09-29T09:31:22Z</time>
      </trkpt>
      <trkpt lat="44.66612" lon="5.10589">
        <ele>742.18096701523</ele>
        <time>2012-09-29T09:31:28Z</time>
      </trkpt>
      <trkpt lat="44.66609" lon="5.10598">
        <ele>737.8990407078</ele>
        <time>2012-09-29T09:31:34Z</time>
      </trkpt>
      <trkpt lat="44.66606" lon="5.10611">
        <ele>742.44837453884</ele>
        <time>2012-09-29T09:31:40Z</time>
      </trkpt>
      <trkpt lat="44.66603" lon="5.10624">
        <ele>748.78596081238</ele>
        <time>2012-09-29T09:31:46Z</time>
      </trkpt>
      <trkpt lat="44.666" lon="5.10634">
        <ele>748.96471003747</ele>
        <time>2012-09-29T09:31:52Z</time>
      </trkpt>
      <trkpt lat="44.66599" lon="5.10641">
        <ele>750.8395850031</ele>
        <time>2012-09-29T09:31:57Z</time>
      </trkpt>
      <trkpt lat="44.666" lon="5.10651">
        <ele>746.46468409997</ele>
        <time>2012-09-29T09:32:03Z</time>
      </trkpt>
      <trkpt lat="44.666" lon="5.10661">
        <ele>750.21440686265</ele>
        <time>2012-09-29T09:32:09Z</time>
      </trkpt>
      <trkpt lat="44.66597" lon="5.10664">
        <ele>753.6977946889</ele>
        <time>2012-09-29T09:32:15Z</time>
      </trkpt>
      <trkpt lat="44.66594" lon="5.10667">
        <ele>758.25469892641</ele>
        <time>2012-09-29T09:32:20Z</time>
      </trkpt>
      <trkpt lat="44.66595" lon="5.10668">
        <ele>758.07578746533</ele>
        <time>2012-09-29T09:32:25Z</time>
      </trkpt>
      <trkpt lat="44.66592" lon="5.1067">
        <ele>760.93601801526</ele>
        <time>2012-09-29T09:32:31Z</time>
      </trkpt>
      <trkpt lat="44.66588" lon="5.10674">
        <ele>761.91925337056</ele>
        <time>2012-09-29T09:32:38Z</time>
      </trkpt>
      <trkpt lat="44.66584" lon="5.10678">
        <ele>760.84653846416</ele>
        <time>2012-09-29T09:32:44Z</time>
      </trkpt>
      <trkpt lat="44.66581" lon="5.10684">
        <ele>767.91128184689</ele>
        <time>2012-09-29T09:32:50Z</time>
      </trkpt>
      <trkpt lat="44.66578" lon="5.10689">
        <ele>772.56355336235</ele>
        <time>2012-09-29T09:32:55Z</time>
      </trkpt>
      <trkpt lat="44.66573" lon="5.10694">
        <ele>767.82174130935</ele>
        <time>2012-09-29T09:33:00Z</time>
      </trkpt>
      <trkpt lat="44.66568" lon="5.10695">
        <ele>771.04241730558</ele>
        <time>2012-09-29T09:33:06Z</time>
      </trkpt>
      <trkpt lat="44.66564" lon="5.10701">
        <ele>776.68131311544</ele>
        <time>2012-09-29T09:33:12Z</time>
      </trkpt>
      <trkpt lat="44.66562" lon="5.10707">
        <ele>774.35370389066</ele>
        <time>2012-09-29T09:33:17Z</time>
      </trkpt>
      <trkpt lat="44.66556" lon="5.10718">
        <ele>782.86078741037</ele>
        <time>2012-09-29T09:33:22Z</time>
      </trkpt>
      <trkpt lat="44.66554" lon="5.10727">
        <ele>781.6065524851</ele>
        <time>2012-09-29T09:33:28Z</time>
      </trkpt>
      <trkpt lat="44.6655" lon="5.10733">
        <ele>780.08407192444</ele>
        <time>2012-09-29T09:33:33Z</time>
      </trkpt>
      <trkpt lat="44.66547" lon="5.10739">
        <ele>785.9965004987</ele>
        <time>2012-09-29T09:33:39Z</time>
      </trkpt>
      <trkpt lat="44.66543" lon="5.10744">
        <ele>785.8176504217</ele>
        <time>2012-09-29T09:33:44Z</time>
      </trkpt>
      <trkpt lat="44.6654" lon="5.10748">
        <ele>789.940200678</ele>
        <time>2012-09-29T09:33:49Z</time>
      </trkpt>
      <trkpt lat="44.66538" lon="5.10752">
        <ele>791.28520285368</ele>
        <time>2012-09-29T09:33:54Z</time>
      </trkpt>
      <trkpt lat="44.66538" lon="5.10756">
        <ele>793.4371363024</ele>
        <time>2012-09-29T09:34:00Z</time>
      </trkpt>
      <trkpt lat="44.66536" lon="5.1076">
        <ele>795.32072316766</ele>
        <time>2012-09-29T09:34:06Z</time>
      </trkpt>
      <trkpt lat="44.66536" lon="5.10766">
        <ele>798.90876327256</ele>
        <time>2012-09-29T09:34:13Z</time>
      </trkpt>
      <trkpt lat="44.66536" lon="5.10771">
        <ele>802.31892355779</ele>
        <time>2012-09-29T09:34:19Z</time>
      </trkpt>
      <trkpt lat="44.66534" lon="5.10776">
        <ele>801.24196566914</ele>
        <time>2012-09-29T09:34:26Z</time>
      </trkpt>
      <trkpt lat="44.66534" lon="5.1079">
        <ele>808.60380438771</ele>
        <time>2012-09-29T09:34:32Z</time>
      </trkpt>
      <trkpt lat="44.66534" lon="5.10803">
        <ele>807.34640960535</ele>
        <time>2012-09-29T09:34:38Z</time>
      </trkpt>
      <trkpt lat="44.66533" lon="5.10817">
        <ele>807.61607323255</ele>
        <time>2012-09-29T09:34:45Z</time>
      </trkpt>
      <trkpt lat="44.66533" lon="5.10826">
        <ele>812.46629951873</ele>
        <time>2012-09-29T09:34:51Z</time>
      </trkpt>
      <trkpt lat="44.66529" lon="5.10829">
        <ele>817.85868789586</ele>
        <time>2012-09-29T09:34:56Z</time>
      </trkpt>
      <trkpt lat="44.66527" lon="5.10833">
        <ele>811.4781952629</ele>
        <time>2012-09-29T09:35:01Z</time>
      </trkpt>
      <trkpt lat="44.66529" lon="5.10846">
        <ele>814.80259717555</ele>
        <time>2012-09-29T09:35:06Z</time>
      </trkpt>
      <trkpt lat="44.66531" lon="5.10855">
        <ele>817.5887540416</ele>
        <time>2012-09-29T09:35:12Z</time>
      </trkpt>
      <trkpt lat="44.66531" lon="5.10861">
        <ele>819.74622941636</ele>
        <time>2012-09-29T09:35:17Z</time>
      </trkpt>
      <trkpt lat="44.66528" lon="5.10864">
        <ele>821.72468108453</ele>
        <time>2012-09-29T09:35:23Z</time>
      </trkpt>
      <trkpt lat="44.66523" lon="5.10868">
        <ele>825.77223269229</ele>
        <time>2012-09-29T09:35:30Z</time>
      </trkpt>
      <trkpt lat="44.66519" lon="5.10877">
        <ele>823.16334639718</ele>
        <time>2012-09-29T09:35:35Z</time>
      </trkpt>
      <trkpt lat="44.66519" lon="5.10883">
        <ele>829.28089481653</ele>
        <time>2012-09-29T09:35:40Z</time>
      </trkpt>
      <trkpt lat="44.66517" lon="5.10889">
        <ele>827.84136841262</ele>
        <time>2012-09-29T09:35:47Z</time>
      </trkpt>
      <trkpt lat="44.66519" lon="5.10899">
        <ele>817.94811877278</ele>
        <time>2012-09-29T09:35:52Z</time>
      </trkpt>
      <trkpt lat="44.66518" lon="5.10916">
        <ele>819.20681789267</ele>
        <time>2012-09-29T09:35:57Z</time>
      </trkpt>
      <trkpt lat="44.66519" lon="5.10934">
        <ele>811.92727187683</ele>
        <time>2012-09-29T09:36:02Z</time>
      </trkpt>
      <trkpt lat="44.6652" lon="5.10954">
        <ele>809.68153776743</ele>
        <time>2012-09-29T09:36:08Z</time>
      </trkpt>
      <trkpt lat="44.66517" lon="5.10969">
        <ele>804.74276745254</ele>
        <time>2012-09-29T09:36:14Z</time>
      </trkpt>
      <trkpt lat="44.66514" lon="5.10991">
        <ele>806.1790454285</ele>
        <time>2012-09-29T09:36:20Z</time>
      </trkpt>
      <trkpt lat="44.66513" lon="5.11014">
        <ele>804.56304140845</ele>
        <time>2012-09-29T09:36:26Z</time>
      </trkpt>
      <trkpt lat="44.66512" lon="5.11041">
        <ele>802.58845466546</ele>
        <time>2012-09-29T09:36:31Z</time>
      </trkpt>
      <trkpt lat="44.66512" lon="5.11059">
        <ele>801.06284887975</ele>
        <time>2012-09-29T09:36:37Z</time>
      </trkpt>
      <trkpt lat="44.66514" lon="5.11079">
        <ele>791.28520285368</ele>
        <time>2012-09-29T09:36:42Z</time>
      </trkpt>
      <trkpt lat="44.66515" lon="5.11094">
        <ele>783.75645115367</ele>
        <time>2012-09-29T09:36:48Z</time>
      </trkpt>
      <trkpt lat="44.6652" lon="5.11113">
        <ele>788.77482101956</ele>
        <time>2012-09-29T09:36:54Z</time>
      </trkpt>
      <trkpt lat="44.66521" lon="5.11137">
        <ele>790.02993494416</ele>
        <time>2012-09-29T09:36:59Z</time>
      </trkpt>
      <trkpt lat="44.66524" lon="5.11165">
        <ele>782.32331744057</ele>
        <time>2012-09-29T09:37:06Z</time>
      </trkpt>
      <trkpt lat="44.66526" lon="5.11197">
        <ele>779.18872952416</ele>
        <time>2012-09-29T09:37:13Z</time>
      </trkpt>
      <trkpt lat="44.66527" lon="5.11223">
        <ele>772.02662387058</ele>
        <time>2012-09-29T09:37:18Z</time>
      </trkpt>
      <trkpt lat="44.66532" lon="5.11244">
        <ele>773.011471333</ele>
        <time>2012-09-29T09:37:24Z</time>
      </trkpt>
      <trkpt lat="44.66529" lon="5.11265">
        <ele>771.57929517107</ele>
        <time>2012-09-29T09:37:30Z</time>
      </trkpt>
      <trkpt lat="44.66525" lon="5.11291">
        <ele>768.268905829</ele>
        <time>2012-09-29T09:37:37Z</time>
      </trkpt>
      <trkpt lat="44.66519" lon="5.11321">
        <ele>759.2376768097</ele>
        <time>2012-09-29T09:37:42Z</time>
      </trkpt>
      <trkpt lat="44.66512" lon="5.11342">
        <ele>764.24403658244</ele>
        <time>2012-09-29T09:37:47Z</time>
      </trkpt>
      <trkpt lat="44.66509" lon="5.11366">
        <ele>754.85918733164</ele>
        <time>2012-09-29T09:37:53Z</time>
      </trkpt>
      <trkpt lat="44.66508" lon="5.11394">
        <ele>761.02549834838</ele>
        <time>2012-09-29T09:37:59Z</time>
      </trkpt>
      <trkpt lat="44.66506" lon="5.11415">
        <ele>749.58981189036</ele>
        <time>2012-09-29T09:38:05Z</time>
      </trkpt>
      <trkpt lat="44.66502" lon="5.11435">
        <ele>751.37540448778</ele>
        <time>2012-09-29T09:38:10Z</time>
      </trkpt>
      <trkpt lat="44.66496" lon="5.11452">
        <ele>752.17945885685</ele>
        <time>2012-09-29T09:38:15Z</time>
      </trkpt>
      <trkpt lat="44.66494" lon="5.11469">
        <ele>755.12747140266</ele>
        <time>2012-09-29T09:38:21Z</time>
      </trkpt>
      <trkpt lat="44.6649" lon="5.11486">
        <ele>753.34067929928</ele>
        <time>2012-09-29T09:38:26Z</time>
      </trkpt>
      <trkpt lat="44.66481" lon="5.11506">
        <ele>748.87533503494</ele>
        <time>2012-09-29T09:38:32Z</time>
      </trkpt>
      <trkpt lat="44.66474" lon="5.1153">
        <ele>746.73274834196</ele>
        <time>2012-09-29T09:38:41Z</time>
      </trkpt>
      <trkpt lat="44.66473" lon="5.11552">
        <ele>744.41193688739</ele>
        <time>2012-09-29T09:38:47Z</time>
      </trkpt>
      <trkpt lat="44.66482" lon="5.11565">
        <ele>740.39643201524</ele>
        <time>2012-09-29T09:38:53Z</time>
      </trkpt>
      <trkpt lat="44.66495" lon="5.11564">
        <ele>734.06403282752</ele>
        <time>2012-09-29T09:38:58Z</time>
      </trkpt>
      <trkpt lat="44.66506" lon="5.11558">
        <ele>735.93672631963</ele>
        <time>2012-09-29T09:39:03Z</time>
      </trkpt>
      <trkpt lat="44.66515" lon="5.11547">
        <ele>726.57776761522</ele>
        <time>2012-09-29T09:39:09Z</time>
      </trkpt>
      <trkpt lat="44.66525" lon="5.11535">
        <ele>728.35989692381</ele>
        <time>2012-09-29T09:39:15Z</time>
      </trkpt>
      <trkpt lat="44.66537" lon="5.11525">
        <ele>718.02818469122</ele>
        <time>2012-09-29T09:39:21Z</time>
      </trkpt>
      <trkpt lat="44.66547" lon="5.11511">
        <ele>716.247851102</ele>
        <time>2012-09-29T09:39:27Z</time>
      </trkpt>
      <trkpt lat="44.66557" lon="5.11502">
        <ele>715.53623880855</ele>
        <time>2012-09-29T09:39:32Z</time>
      </trkpt>
      <trkpt lat="44.66567" lon="5.11492">
        <ele>706.19534152491</ele>
        <time>2012-09-29T09:39:37Z</time>
      </trkpt>
      <trkpt lat="44.66574" lon="5.11482">
        <ele>703.70627035219</ele>
        <time>2012-09-29T09:39:44Z</time>
      </trkpt>
      <trkpt lat="44.66574" lon="5.1148">
        <ele>701.75049172306</ele>
        <time>2012-09-29T09:39:49Z</time>
      </trkpt>
      <trkpt lat="44.66575" lon="5.11485">
        <ele>702.19532398485</ele>
        <time>2012-09-29T09:39:55Z</time>
      </trkpt>
      <trkpt lat="44.66572" lon="5.11496">
        <ele>695.08682809165</ele>
        <time>2012-09-29T09:40:02Z</time>
      </trkpt>
      <trkpt lat="44.66578" lon="5.11509">
        <ele>691.88993719938</ele>
        <time>2012-09-29T09:40:07Z</time>
      </trkpt>
      <trkpt lat="44.66581" lon="5.11521">
        <ele>682.48229175426</ele>
        <time>2012-09-29T09:40:13Z</time>
      </trkpt>
      <trkpt lat="44.66582" lon="5.11538">
        <ele>684.16795872247</ele>
        <time>2012-09-29T09:40:19Z</time>
      </trkpt>
      <trkpt lat="44.66577" lon="5.11555">
        <ele>672.90583632916</ele>
        <time>2012-09-29T09:40:24Z</time>
      </trkpt>
      <trkpt lat="44.66575" lon="5.11571">
        <ele>677.07248461825</ele>
        <time>2012-09-29T09:40:29Z</time>
      </trkpt>
      <trkpt lat="44.66582" lon="5.11588">
        <ele>668.56406455576</ele>
        <time>2012-09-29T09:40:34Z</time>
      </trkpt>
      <trkpt lat="44.66588" lon="5.11599">
        <ele>665.90679862173</ele>
        <time>2012-09-29T09:40:40Z</time>
      </trkpt>
      <trkpt lat="44.66588" lon="5.11615">
        <ele>661.47937061347</ele>
        <time>2012-09-29T09:40:46Z</time>
      </trkpt>
      <trkpt lat="44.66583" lon="5.11629">
        <ele>656.43436684035</ele>
        <time>2012-09-29T09:40:52Z</time>
      </trkpt>
      <trkpt lat="44.66576" lon="5.11642">
        <ele>655.90348647723</ele>
        <time>2012-09-29T09:40:57Z</time>
      </trkpt>
      <trkpt lat="44.66581" lon="5.11658">
        <ele>644.76079766527</ele>
        <time>2012-09-29T09:41:03Z</time>
      </trkpt>
      <trkpt lat="44.66588" lon="5.11675">
        <ele>644.67286581758</ele>
        <time>2012-09-29T09:41:08Z</time>
      </trkpt>
      <trkpt lat="44.6659" lon="5.11687">
        <ele>642.72830795337</ele>
        <time>2012-09-29T09:41:13Z</time>
      </trkpt>
      <trkpt lat="44.6659" lon="5.11691">
        <ele>637.86933272654</ele>
        <time>2012-09-29T09:41:19Z</time>
      </trkpt>
      <trkpt lat="44.66599" lon="5.117">
        <ele>634.51344770777</ele>
        <time>2012-09-29T09:41:24Z</time>
      </trkpt>
      <trkpt lat="44.66613" lon="5.11703">
        <ele>630.27622897517</ele>
        <time>2012-09-29T09:41:30Z</time>
      </trkpt>
      <trkpt lat="44.66623" lon="5.11704">
        <ele>622.24733642006</ele>
        <time>2012-09-29T09:41:36Z</time>
      </trkpt>
      <trkpt lat="44.66635" lon="5.11704">
        <ele>621.45394231822</ele>
        <time>2012-09-29T09:41:43Z</time>
      </trkpt>
      <trkpt lat="44.66653" lon="5.11702">
        <ele>608.85075045213</ele>
        <time>2012-09-29T09:41:49Z</time>
      </trkpt>
      <trkpt lat="44.66665" lon="5.11694">
        <ele>617.04563913095</ele>
        <time>2012-09-29T09:41:55Z</time>
      </trkpt>
      <trkpt lat="44.66676" lon="5.11685">
        <ele>609.11524247667</ele>
        <time>2012-09-29T09:42:01Z</time>
      </trkpt>
      <trkpt lat="44.66687" lon="5.11674">
        <ele>610.1722033751</ele>
        <time>2012-09-29T09:42:06Z</time>
      </trkpt>
      <trkpt lat="44.66696" lon="5.11667">
        <ele>601.71902189369</ele>
        <time>2012-09-29T09:42:12Z</time>
      </trkpt>
      <trkpt lat="44.66707" lon="5.11659">
        <ele>606.2088918259</ele>
        <time>2012-09-29T09:42:18Z</time>
      </trkpt>
      <trkpt lat="44.66718" lon="5.11653">
        <ele>599.43131834462</ele>
        <time>2012-09-29T09:42:24Z</time>
      </trkpt>
      <trkpt lat="44.66729" lon="5.11644">
        <ele>597.05552489417</ele>
        <time>2012-09-29T09:42:30Z</time>
      </trkpt>
      <trkpt lat="44.66743" lon="5.11638">
        <ele>595.64770757559</ele>
        <time>2012-09-29T09:42:35Z</time>
      </trkpt>
      <trkpt lat="44.66759" lon="5.11637">
        <ele>591.86602593903</ele>
        <time>2012-09-29T09:42:41Z</time>
      </trkpt>
      <trkpt lat="44.66776" lon="5.11638">
        <ele>591.25046013764</ele>
        <time>2012-09-29T09:42:46Z</time>
      </trkpt>
      <trkpt lat="44.66785" lon="5.11627">
        <ele>585.71309895545</ele>
        <time>2012-09-29T09:42:52Z</time>
      </trkpt>
      <trkpt lat="44.66788" lon="5.11604">
        <ele>585.80052756133</ele>
        <time>2012-09-29T09:42:58Z</time>
      </trkpt>
      <trkpt lat="44.66792" lon="5.1158">
        <ele>590.89895479132</ele>
        <time>2012-09-29T09:43:05Z</time>
      </trkpt>
      <trkpt lat="44.66799" lon="5.11556">
        <ele>585.09790150866</ele>
        <time>2012-09-29T09:43:11Z</time>
      </trkpt>
      <trkpt lat="44.66802" lon="5.11538">
        <ele>588.08573520473</ele>
        <time>2012-09-29T09:43:18Z</time>
      </trkpt>
      <trkpt lat="44.66801" lon="5.1151">
        <ele>592.13008115626</ele>
        <time>2012-09-29T09:43:25Z</time>
      </trkpt>
      <trkpt lat="44.66795" lon="5.11487">
        <ele>590.54746146559</ele>
        <time>2012-09-29T09:43:30Z</time>
      </trkpt>
      <trkpt lat="44.66794" lon="5.11469">
        <ele>588.173720491</ele>
        <time>2012-09-29T09:43:36Z</time>
      </trkpt>
      <trkpt lat="44.668" lon="5.11458">
        <ele>582.11039980318</ele>
        <time>2012-09-29T09:43:42Z</time>
      </trkpt>
      <trkpt lat="44.66805" lon="5.11434">
        <ele>583.34047396458</ele>
        <time>2012-09-29T09:43:48Z</time>
      </trkpt>
      <trkpt lat="44.66814" lon="5.11415">
        <ele>588.78910205349</ele>
        <time>2012-09-29T09:43:54Z</time>
      </trkpt>
      <trkpt lat="44.66816" lon="5.11394">
        <ele>581.84713801213</ele>
        <time>2012-09-29T09:43:59Z</time>
      </trkpt>
      <trkpt lat="44.66824" lon="5.1137">
        <ele>579.38749411872</ele>
        <time>2012-09-29T09:44:05Z</time>
      </trkpt>
      <trkpt lat="44.66835" lon="5.11347">
        <ele>579.29958400005</ele>
        <time>2012-09-29T09:44:11Z</time>
      </trkpt>
      <trkpt lat="44.66842" lon="5.11324">
        <ele>580.00234992611</ele>
        <time>2012-09-29T09:44:17Z</time>
      </trkpt>
      <trkpt lat="44.66846" lon="5.11305">
        <ele>573.76811878759</ele>
        <time>2012-09-29T09:44:23Z</time>
      </trkpt>
      <trkpt lat="44.66853" lon="5.1129">
        <ele>582.37420453138</ele>
        <time>2012-09-29T09:44:28Z</time>
      </trkpt>
      <trkpt lat="44.6686" lon="5.11276">
        <ele>581.67127645755</ele>
        <time>2012-09-29T09:44:33Z</time>
      </trkpt>
      <trkpt lat="44.66867" lon="5.11268">
        <ele>583.9555662439</ele>
        <time>2012-09-29T09:44:39Z</time>
      </trkpt>
      <trkpt lat="44.66876" lon="5.11259">
        <ele>573.24149325463</ele>
        <time>2012-09-29T09:44:44Z</time>
      </trkpt>
      <trkpt lat="44.66891" lon="5.11245">
        <ele>578.42159613206</ele>
        <time>2012-09-29T09:44:50Z</time>
      </trkpt>
      <trkpt lat="44.66906" lon="5.11231">
        <ele>579.38749411872</ele>
        <time>2012-09-29T09:44:56Z</time>
      </trkpt>
      <trkpt lat="44.66921" lon="5.11223">
        <ele>582.72541848598</ele>
        <time>2012-09-29T09:45:01Z</time>
      </trkpt>
      <trkpt lat="44.6693" lon="5.11203">
        <ele>577.36789527711</ele>
        <time>2012-09-29T09:45:07Z</time>
      </trkpt>
      <trkpt lat="44.66933" lon="5.11186">
        <ele>585.18586122441</ele>
        <time>2012-09-29T09:45:12Z</time>
      </trkpt>
      <trkpt lat="44.66932" lon="5.11169">
        <ele>586.24036372983</ele>
        <time>2012-09-29T09:45:18Z</time>
      </trkpt>
      <trkpt lat="44.66933" lon="5.11147">
        <ele>585.53717125365</ele>
        <time>2012-09-29T09:45:24Z</time>
      </trkpt>
      <trkpt lat="44.66933" lon="5.11126">
        <ele>589.84397428709</ele>
        <time>2012-09-29T09:45:30Z</time>
      </trkpt>
      <trkpt lat="44.66935" lon="5.1111">
        <ele>586.32779682032</ele>
        <time>2012-09-29T09:45:35Z</time>
      </trkpt>
      <trkpt lat="44.66932" lon="5.11096">
        <ele>582.46160474521</ele>
        <time>2012-09-29T09:45:41Z</time>
      </trkpt>
      <trkpt lat="44.66925" lon="5.11079">
        <ele>586.32779682032</ele>
        <time>2012-09-29T09:45:46Z</time>
      </trkpt>
      <trkpt lat="44.66915" lon="5.11061">
        <ele>589.75597470254</ele>
        <time>2012-09-29T09:45:51Z</time>
      </trkpt>
      <trkpt lat="44.66909" lon="5.11041">
        <ele>582.90129807436</ele>
        <time>2012-09-29T09:45:57Z</time>
      </trkpt>
      <trkpt lat="44.66908" lon="5.11028">
        <ele>586.67968229886</ele>
        <time>2012-09-29T09:46:02Z</time>
      </trkpt>
      <trkpt lat="44.66905" lon="5.11012">
        <ele>576.48953645604</ele>
        <time>2012-09-29T09:46:09Z</time>
      </trkpt>
      <trkpt lat="44.66899" lon="5.10991">
        <ele>575.69966710106</ele>
        <time>2012-09-29T09:46:14Z</time>
      </trkpt>
      <trkpt lat="44.66895" lon="5.10977">
        <ele>585.09790150866</ele>
        <time>2012-09-29T09:46:20Z</time>
      </trkpt>
      <trkpt lat="44.66891" lon="5.10962">
        <ele>579.38749411872</ele>
        <time>2012-09-29T09:46:26Z</time>
      </trkpt>
      <trkpt lat="44.66894" lon="5.10956">
        <ele>573.59293110478</ele>
        <time>2012-09-29T09:46:31Z</time>
      </trkpt>
      <trkpt lat="44.66899" lon="5.10954">
        <ele>574.38263863054</ele>
        <time>2012-09-29T09:46:36Z</time>
      </trkpt>
      <trkpt lat="44.66906" lon="5.10951">
        <ele>565.87156625363</ele>
        <time>2012-09-29T09:46:42Z</time>
      </trkpt>
      <trkpt lat="44.66913" lon="5.10953">
        <ele>559.29546682739</ele>
        <time>2012-09-29T09:46:47Z</time>
      </trkpt>
      <trkpt lat="44.66922" lon="5.10953">
        <ele>563.06518531253</ele>
        <time>2012-09-29T09:46:53Z</time>
      </trkpt>
      <trkpt lat="44.66937" lon="5.10945">
        <ele>558.76958186374</ele>
        <time>2012-09-29T09:46:59Z</time>
      </trkpt>
      <trkpt lat="44.66948" lon="5.10933">
        <ele>551.84731241517</ele>
        <time>2012-09-29T09:47:04Z</time>
      </trkpt>
      <trkpt lat="44.66957" lon="5.10921">
        <ele>552.19801997237</ele>
        <time>2012-09-29T09:47:09Z</time>
      </trkpt>
      <trkpt lat="44.66967" lon="5.1091">
        <ele>550.09609200225</ele>
        <time>2012-09-29T09:47:14Z</time>
      </trkpt>
      <trkpt lat="44.66976" lon="5.10895">
        <ele>546.41821675352</ele>
        <time>2012-09-29T09:47:20Z</time>
      </trkpt>
      <trkpt lat="44.66983" lon="5.1088">
        <ele>539.50478396738</ele>
        <time>2012-09-29T09:47:26Z</time>
      </trkpt>
      <trkpt lat="44.66994" lon="5.1087">
        <ele>539.32964489073</ele>
        <time>2012-09-29T09:47:33Z</time>
      </trkpt>
      <trkpt lat="44.67003" lon="5.10853">
        <ele>528.22561384872</ele>
        <time>2012-09-29T09:47:38Z</time>
      </trkpt>
      <trkpt lat="44.67007" lon="5.10834">
        <ele>528.22561384872</ele>
        <time>2012-09-29T09:47:43Z</time>
      </trkpt>
      <trkpt lat="44.67014" lon="5.10819">
        <ele>530.23558693905</ele>
        <time>2012-09-29T09:47:49Z</time>
      </trkpt>
      <trkpt lat="44.67018" lon="5.10803">
        <ele>516.52190581502</ele>
        <time>2012-09-29T09:47:55Z</time>
      </trkpt>
      <trkpt lat="44.67023" lon="5.10787">
        <ele>518.4422031594</ele>
        <time>2012-09-29T09:48:01Z</time>
      </trkpt>
      <trkpt lat="44.67029" lon="5.10781">
        <ele>514.51460825367</ele>
        <time>2012-09-29T09:48:06Z</time>
      </trkpt>
      <trkpt lat="44.67042" lon="5.10777">
        <ele>514.07782782514</ele>
        <time>2012-09-29T09:48:12Z</time>
      </trkpt>
      <trkpt lat="44.67057" lon="5.10772">
        <ele>505.96507063615</ele>
        <time>2012-09-29T09:48:18Z</time>
      </trkpt>
      <trkpt lat="44.67067" lon="5.10769">
        <ele>507.27337085087</ele>
        <time>2012-09-29T09:48:24Z</time>
      </trkpt>
      <trkpt lat="44.67076" lon="5.10764">
        <ele>503.69802770498</ele>
        <time>2012-09-29T09:48:30Z</time>
      </trkpt>
      <trkpt lat="44.67093" lon="5.10756">
        <ele>504.74474349378</ele>
        <time>2012-09-29T09:48:36Z</time>
      </trkpt>
      <trkpt lat="44.67111" lon="5.10737">
        <ele>503.61129395549</ele>
        <time>2012-09-29T09:48:42Z</time>
      </trkpt>
      <trkpt lat="44.67121" lon="5.10714">
        <ele>501.78047770456</ele>
        <time>2012-09-29T09:48:48Z</time>
      </trkpt>
      <trkpt lat="44.67118" lon="5.10709">
        <ele>509.97725667748</ele>
        <time>2012-09-29T09:48:54Z</time>
      </trkpt>
      <trkpt lat="44.67116" lon="5.10709">
        <ele>547.64402909142</ele>
        <time>2012-09-29T09:49:00Z</time>
      </trkpt>
      <trkpt lat="44.67116" lon="5.10711">
        <ele>542.39233860179</ele>
        <time>2012-09-29T09:49:05Z</time>
      </trkpt>
      <trkpt lat="44.67115" lon="5.1071">
        <ele>514.601433888</ele>
        <time>2012-09-29T09:49:10Z</time>
      </trkpt>
      <trkpt lat="44.67114" lon="5.10709">
        <ele>532.50848158436</ele>
        <time>2012-09-29T09:49:16Z</time>
      </trkpt>
      <trkpt lat="44.67114" lon="5.10709">
        <ele>503.87256163558</ele>
        <time>2012-09-29T09:49:21Z</time>
      </trkpt>
      <trkpt lat="44.67114" lon="5.10711">
        <ele>505.09331761018</ele>
        <time>2012-09-29T09:51:26Z</time>
      </trkpt>
      <trkpt lat="44.67114" lon="5.10711">
        <ele>505.09331761018</ele>
        <time>2012-09-29T09:51:26Z</time>
      </trkpt>
      <trkpt lat="44.67114" lon="5.10711">
        <ele>490.45538090307</ele>
        <time>2012-09-29T09:51:32Z</time>
      </trkpt>
      <trkpt lat="44.67115" lon="5.10712">
        <ele>501.86772805366</ele>
        <time>2012-09-29T09:51:38Z</time>
      </trkpt>
      <trkpt lat="44.67129" lon="5.1072">
        <ele>486.88586963352</ele>
        <time>2012-09-29T09:51:43Z</time>
      </trkpt>
      <trkpt lat="44.67153" lon="5.10733">
        <ele>496.72600741933</ele>
        <time>2012-09-29T09:51:49Z</time>
      </trkpt>
      <trkpt lat="44.67174" lon="5.10736">
        <ele>487.84374596118</ele>
        <time>2012-09-29T09:51:55Z</time>
      </trkpt>
      <trkpt lat="44.67193" lon="5.10734">
        <ele>484.27513925911</ele>
        <time>2012-09-29T09:52:01Z</time>
      </trkpt>
      <trkpt lat="44.67211" lon="5.1073">
        <ele>489.14921499548</ele>
        <time>2012-09-29T09:52:07Z</time>
      </trkpt>
      <trkpt lat="44.6722" lon="5.10715">
        <ele>485.1456633175</ele>
        <time>2012-09-29T09:52:12Z</time>
      </trkpt>
      <trkpt lat="44.67227" lon="5.10691">
        <ele>481.66507023784</ele>
        <time>2012-09-29T09:52:18Z</time>
      </trkpt>
      <trkpt lat="44.67238" lon="5.10678">
        <ele>470.36205072866</ele>
        <time>2012-09-29T09:52:24Z</time>
      </trkpt>
      <trkpt lat="44.6725" lon="5.10671">
        <ele>479.22924827606</ele>
        <time>2012-09-29T09:52:29Z</time>
      </trkpt>
      <trkpt lat="44.67266" lon="5.10676">
        <ele>473.75181424946</ele>
        <time>2012-09-29T09:52:35Z</time>
      </trkpt>
      <trkpt lat="44.6728" lon="5.10677">
        <ele>474.0123257785</ele>
        <time>2012-09-29T09:52:40Z</time>
      </trkpt>
      <trkpt lat="44.67299" lon="5.10673">
        <ele>471.40485454035</ele>
        <time>2012-09-29T09:52:47Z</time>
      </trkpt>
      <trkpt lat="44.67313" lon="5.10653">
        <ele>473.75181424946</ele>
        <time>2012-09-29T09:52:54Z</time>
      </trkpt>
      <trkpt lat="44.67334" lon="5.10646">
        <ele>467.06035779549</ele>
        <time>2012-09-29T09:52:59Z</time>
      </trkpt>
      <trkpt lat="44.67351" lon="5.10635">
        <ele>473.22974986646</ele>
        <time>2012-09-29T09:53:06Z</time>
      </trkpt>
      <trkpt lat="44.67362" lon="5.1062">
        <ele>472.79524693219</ele>
        <time>2012-09-29T09:53:11Z</time>
      </trkpt>
      <trkpt lat="44.67364" lon="5.10598">
        <ele>466.79949171426</ele>
        <time>2012-09-29T09:53:16Z</time>
      </trkpt>
      <trkpt lat="44.67362" lon="5.10579">
        <ele>467.32070024329</ele>
        <time>2012-09-29T09:53:22Z</time>
      </trkpt>
      <trkpt lat="44.67372" lon="5.10566">
        <ele>471.40485454035</ele>
        <time>2012-09-29T09:53:27Z</time>
      </trkpt>
      <trkpt lat="44.67383" lon="5.10551">
        <ele>462.10980052813</ele>
        <time>2012-09-29T09:53:33Z</time>
      </trkpt>
      <trkpt lat="44.67391" lon="5.10527">
        <ele>472.0132939056</ele>
        <time>2012-09-29T09:53:40Z</time>
      </trkpt>
      <trkpt lat="44.67397" lon="5.10505">
        <ele>466.36525976953</ele>
        <time>2012-09-29T09:53:46Z</time>
      </trkpt>
      <trkpt lat="44.67406" lon="5.10488">
        <ele>465.14908353437</ele>
        <time>2012-09-29T09:53:51Z</time>
      </trkpt>
      <trkpt lat="44.67419" lon="5.10467">
        <ele>464.97573443885</ele>
        <time>2012-09-29T09:53:57Z</time>
      </trkpt>
      <trkpt lat="44.67427" lon="5.10449">
        <ele>457.42224185097</ele>
        <time>2012-09-29T09:54:03Z</time>
      </trkpt>
      <trkpt lat="44.67431" lon="5.10428">
        <ele>453.43046369255</ele>
        <time>2012-09-29T09:54:08Z</time>
      </trkpt>
      <trkpt lat="44.67437" lon="5.10412">
        <ele>446.05897918835</ele>
        <time>2012-09-29T09:54:13Z</time>
      </trkpt>
      <trkpt lat="44.67442" lon="5.10393">
        <ele>450.56773696517</ele>
        <time>2012-09-29T09:54:19Z</time>
      </trkpt>
      <trkpt lat="44.67443" lon="5.10367">
        <ele>445.97220004343</ele>
        <time>2012-09-29T09:54:25Z</time>
      </trkpt>
      <trkpt lat="44.67443" lon="5.10341">
        <ele>443.45803848017</ele>
        <time>2012-09-29T09:54:31Z</time>
      </trkpt>
      <trkpt lat="44.6744" lon="5.10315">
        <ele>436.95961234865</ele>
        <time>2012-09-29T09:54:38Z</time>
      </trkpt>
      <trkpt lat="44.67434" lon="5.10297">
        <ele>436.78673651439</ele>
        <time>2012-09-29T09:54:45Z</time>
      </trkpt>
      <trkpt lat="44.67438" lon="5.10295">
        <ele>441.03175541906</ele>
        <time>2012-09-29T09:54:52Z</time>
      </trkpt>
      <trkpt lat="44.6745" lon="5.10296">
        <ele>440.85828244139</ele>
        <time>2012-09-29T09:54:57Z</time>
      </trkpt>
      <trkpt lat="44.67467" lon="5.1029">
        <ele>430.2058641983</ele>
        <time>2012-09-29T09:55:03Z</time>
      </trkpt>
      <trkpt lat="44.67483" lon="5.10282">
        <ele>439.73183683903</ele>
        <time>2012-09-29T09:55:09Z</time>
      </trkpt>
      <trkpt lat="44.67496" lon="5.1027">
        <ele>439.90529087116</ele>
        <time>2012-09-29T09:55:15Z</time>
      </trkpt>
      <trkpt lat="44.67504" lon="5.10254">
        <ele>436.18037231892</ele>
        <time>2012-09-29T09:55:21Z</time>
      </trkpt>
      <trkpt lat="44.6751" lon="5.10236">
        <ele>440.85828244139</ele>
        <time>2012-09-29T09:55:27Z</time>
      </trkpt>
      <trkpt lat="44.67516" lon="5.10209">
        <ele>439.03910744617</ele>
        <time>2012-09-29T09:55:32Z</time>
      </trkpt>
      <trkpt lat="44.67517" lon="5.1019">
        <ele>440.33840986426</ele>
        <time>2012-09-29T09:55:37Z</time>
      </trkpt>
      <trkpt lat="44.67517" lon="5.10176">
        <ele>443.37181022424</ele>
        <time>2012-09-29T09:55:42Z</time>
      </trkpt>
      <trkpt lat="44.67524" lon="5.10167">
        <ele>438.17246801919</ele>
        <time>2012-09-29T09:55:47Z</time>
      </trkpt>
      <trkpt lat="44.67532" lon="5.10159">
        <ele>439.4721900657</ele>
        <time>2012-09-29T09:55:54Z</time>
      </trkpt>
      <trkpt lat="44.67543" lon="5.10152">
        <ele>439.21202103647</ele>
        <time>2012-09-29T09:56:00Z</time>
      </trkpt>
      <trkpt lat="44.67562" lon="5.10141">
        <ele>432.37013367426</ele>
        <time>2012-09-29T09:56:06Z</time>
      </trkpt>
      <trkpt lat="44.67585" lon="5.10132">
        <ele>432.02348185213</ele>
        <time>2012-09-29T09:56:11Z</time>
      </trkpt>
      <trkpt lat="44.67597" lon="5.10126">
        <ele>427.86879401604</ele>
        <time>2012-09-29T09:56:16Z</time>
      </trkpt>
      <trkpt lat="44.67604" lon="5.10113">
        <ele>427.52282160913</ele>
        <time>2012-09-29T09:56:22Z</time>
      </trkpt>
      <trkpt lat="44.67616" lon="5.10089">
        <ele>429.68652821322</ele>
        <time>2012-09-29T09:56:27Z</time>
      </trkpt>
      <trkpt lat="44.67625" lon="5.10068">
        <ele>424.3214106347</ele>
        <time>2012-09-29T09:56:33Z</time>
      </trkpt>
      <trkpt lat="44.67637" lon="5.10045">
        <ele>424.06162343174</ele>
        <time>2012-09-29T09:56:39Z</time>
      </trkpt>
      <trkpt lat="44.67648" lon="5.10027">
        <ele>420.08326101835</ele>
        <time>2012-09-29T09:56:46Z</time>
      </trkpt>
      <trkpt lat="44.67659" lon="5.10015">
        <ele>415.84632384214</ele>
        <time>2012-09-29T09:56:51Z</time>
      </trkpt>
      <trkpt lat="44.67675" lon="5.10003">
        <ele>413.5995375098</ele>
        <time>2012-09-29T09:56:57Z</time>
      </trkpt>
      <trkpt lat="44.67696" lon="5.09987">
        <ele>411.3527128563</ele>
        <time>2012-09-29T09:57:03Z</time>
      </trkpt>
      <trkpt lat="44.67712" lon="5.09966">
        <ele>405.7377902381</ele>
        <time>2012-09-29T09:57:08Z</time>
      </trkpt>
      <trkpt lat="44.67725" lon="5.09949">
        <ele>409.19284683959</ele>
        <time>2012-09-29T09:57:15Z</time>
      </trkpt>
      <trkpt lat="44.67742" lon="5.09934">
        <ele>410.8343248816</ele>
        <time>2012-09-29T09:57:21Z</time>
      </trkpt>
      <trkpt lat="44.67758" lon="5.09939">
        <ele>405.56490964248</ele>
        <time>2012-09-29T09:57:28Z</time>
      </trkpt>
      <trkpt lat="44.67769" lon="5.09961">
        <ele>404.44283738402</ele>
        <time>2012-09-29T09:57:34Z</time>
      </trkpt>
      <trkpt lat="44.67771" lon="5.09986">
        <ele>400.73016956085</ele>
        <time>2012-09-29T09:57:40Z</time>
      </trkpt>
      <trkpt lat="44.67782" lon="5.09978">
        <ele>401.24805031315</ele>
        <time>2012-09-29T09:57:47Z</time>
      </trkpt>
      <trkpt lat="44.67784" lon="5.0995">
        <ele>396.58805855897</ele>
        <time>2012-09-29T09:57:52Z</time>
      </trkpt>
      <trkpt lat="44.67782" lon="5.09923">
        <ele>390.29169418638</ele>
        <time>2012-09-29T09:57:58Z</time>
      </trkpt>
      <trkpt lat="44.67774" lon="5.099">
        <ele>394.08642600713</ele>
        <time>2012-09-29T09:58:04Z</time>
      </trkpt>
      <trkpt lat="44.67764" lon="5.09878">
        <ele>391.15379546115</ele>
        <time>2012-09-29T09:58:10Z</time>
      </trkpt>
      <trkpt lat="44.67765" lon="5.09863">
        <ele>389.25705716442</ele>
        <time>2012-09-29T09:58:15Z</time>
      </trkpt>
      <trkpt lat="44.67772" lon="5.09856">
        <ele>384.68821162532</ele>
        <time>2012-09-29T09:58:22Z</time>
      </trkpt>
      <trkpt lat="44.67786" lon="5.09861">
        <ele>388.567181339</ele>
        <time>2012-09-29T09:58:28Z</time>
      </trkpt>
      <trkpt lat="44.67802" lon="5.09866">
        <ele>392.79240735208</ele>
        <time>2012-09-29T09:58:34Z</time>
      </trkpt>
      <trkpt lat="44.6782" lon="5.09873">
        <ele>391.67119605098</ele>
        <time>2012-09-29T09:58:41Z</time>
      </trkpt>
      <trkpt lat="44.6784" lon="5.09873">
        <ele>390.11907205559</ele>
        <time>2012-09-29T09:58:46Z</time>
      </trkpt>
      <trkpt lat="44.67858" lon="5.09868">
        <ele>392.61974340838</ele>
        <time>2012-09-29T09:58:52Z</time>
      </trkpt>
      <trkpt lat="44.67869" lon="5.09865">
        <ele>386.23951944805</ele>
        <time>2012-09-29T09:58:57Z</time>
      </trkpt>
      <trkpt lat="44.67876" lon="5.09861">
        <ele>394.34493330239</ele>
        <time>2012-09-29T09:59:03Z</time>
      </trkpt>
      <trkpt lat="44.67881" lon="5.09852">
        <ele>388.04993625966</ele>
        <time>2012-09-29T09:59:08Z</time>
      </trkpt>
      <trkpt lat="44.67888" lon="5.09837">
        <ele>396.93299546344</ele>
        <time>2012-09-29T09:59:15Z</time>
      </trkpt>
      <trkpt lat="44.67894" lon="5.09811">
        <ele>394.08642600713</ele>
        <time>2012-09-29T09:59:21Z</time>
      </trkpt>
      <trkpt lat="44.67891" lon="5.0979">
        <ele>400.64429764414</ele>
        <time>2012-09-29T09:59:27Z</time>
      </trkpt>
      <trkpt lat="44.67886" lon="5.09772">
        <ele>390.55010648921</ele>
        <time>2012-09-29T09:59:33Z</time>
      </trkpt>
      <trkpt lat="44.67886" lon="5.09752">
        <ele>398.83167129141</ele>
        <time>2012-09-29T09:59:39Z</time>
      </trkpt>
      <trkpt lat="44.67882" lon="5.09731">
        <ele>396.58805855897</ele>
        <time>2012-09-29T09:59:45Z</time>
      </trkpt>
      <trkpt lat="44.67874" lon="5.09708">
        <ele>404.87447028466</ele>
        <time>2012-09-29T09:59:51Z</time>
      </trkpt>
      <trkpt lat="44.67866" lon="5.09695">
        <ele>398.74528844294</ele>
        <time>2012-09-29T09:59:57Z</time>
      </trkpt>
      <trkpt lat="44.6786" lon="5.09686">
        <ele>401.59366982772</ele>
        <time>2012-09-29T10:00:03Z</time>
      </trkpt>
      <trkpt lat="44.67853" lon="5.09676">
        <ele>404.09712246196</ele>
        <time>2012-09-29T10:00:09Z</time>
      </trkpt>
      <trkpt lat="44.67841" lon="5.09665">
        <ele>404.44283738402</ele>
        <time>2012-09-29T10:00:14Z</time>
      </trkpt>
      <trkpt lat="44.67828" lon="5.09653">
        <ele>401.16217408835</ele>
        <time>2012-09-29T10:00:21Z</time>
      </trkpt>
      <trkpt lat="44.6781" lon="5.09641">
        <ele>404.35640756798</ele>
        <time>2012-09-29T10:00:27Z</time>
      </trkpt>
      <trkpt lat="44.67796" lon="5.09633">
        <ele>396.41533112661</ele>
        <time>2012-09-29T10:00:34Z</time>
      </trkpt>
      <trkpt lat="44.67777" lon="5.09625">
        <ele>400.29870991312</ele>
        <time>2012-09-29T10:00:40Z</time>
      </trkpt>
      <trkpt lat="44.6776" lon="5.09615">
        <ele>399.95366053507</ele>
        <time>2012-09-29T10:00:46Z</time>
      </trkpt>
      <trkpt lat="44.67739" lon="5.09603">
        <ele>392.7060750193</ele>
        <time>2012-09-29T10:00:53Z</time>
      </trkpt>
      <trkpt lat="44.67716" lon="5.09594">
        <ele>396.07041151714</ele>
        <time>2012-09-29T10:00:58Z</time>
      </trkpt>
      <trkpt lat="44.67696" lon="5.09584">
        <ele>394.43127933998</ele>
        <time>2012-09-29T10:01:04Z</time>
      </trkpt>
      <trkpt lat="44.67685" lon="5.09571">
        <ele>386.84295645199</ele>
        <time>2012-09-29T10:01:14Z</time>
      </trkpt>
      <trkpt lat="44.67687" lon="5.0954">
        <ele>383.13713680734</ele>
        <time>2012-09-29T10:01:20Z</time>
      </trkpt>
      <trkpt lat="44.67694" lon="5.09531">
        <ele>385.37782834508</ele>
        <time>2012-09-29T10:01:25Z</time>
      </trkpt>
      <trkpt lat="44.67703" lon="5.09534">
        <ele>391.15379546115</ele>
        <time>2012-09-29T10:01:31Z</time>
      </trkpt>
      <trkpt lat="44.67716" lon="5.09531">
        <ele>388.39458803544</ele>
        <time>2012-09-29T10:01:37Z</time>
      </trkpt>
      <trkpt lat="44.67727" lon="5.09527">
        <ele>388.04993625966</ele>
        <time>2012-09-29T10:01:42Z</time>
      </trkpt>
      <trkpt lat="44.67739" lon="5.09527">
        <ele>393.05140868175</ele>
        <time>2012-09-29T10:01:48Z</time>
      </trkpt>
      <trkpt lat="44.67755" lon="5.09522">
        <ele>383.05088516073</ele>
        <time>2012-09-29T10:01:53Z</time>
      </trkpt>
      <trkpt lat="44.67768" lon="5.09516">
        <ele>386.84295645199</ele>
        <time>2012-09-29T10:01:59Z</time>
      </trkpt>
      <trkpt lat="44.67782" lon="5.09504">
        <ele>387.01552382287</ele>
        <time>2012-09-29T10:02:04Z</time>
      </trkpt>
      <trkpt lat="44.67793" lon="5.09496">
        <ele>385.80866490866</ele>
        <time>2012-09-29T10:02:10Z</time>
      </trkpt>
      <trkpt lat="44.67804" lon="5.09486">
        <ele>388.39458803544</ele>
        <time>2012-09-29T10:02:15Z</time>
      </trkpt>
      <trkpt lat="44.67814" lon="5.09475">
        <ele>394.34493330239</ele>
        <time>2012-09-29T10:02:21Z</time>
      </trkpt>
      <trkpt lat="44.67824" lon="5.09467">
        <ele>394.86249383579</ele>
        <time>2012-09-29T10:02:27Z</time>
      </trkpt>
      <trkpt lat="44.67836" lon="5.09455">
        <ele>390.80905157717</ele>
        <time>2012-09-29T10:02:32Z</time>
      </trkpt>
      <trkpt lat="44.67857" lon="5.09435">
        <ele>392.7060750193</ele>
        <time>2012-09-29T10:02:38Z</time>
      </trkpt>
      <trkpt lat="44.67876" lon="5.09411">
        <ele>386.92923977695</ele>
        <time>2012-09-29T10:02:43Z</time>
      </trkpt>
      <trkpt lat="44.67886" lon="5.09382">
        <ele>388.6534790726</ele>
        <time>2012-09-29T10:02:50Z</time>
      </trkpt>
      <trkpt lat="44.67895" lon="5.09351">
        <ele>383.74039254718</ele>
        <time>2012-09-29T10:02:57Z</time>
      </trkpt>
      <trkpt lat="44.67907" lon="5.09321">
        <ele>379.17398650587</ele>
        <time>2012-09-29T10:03:04Z</time>
      </trkpt>
      <trkpt lat="44.67914" lon="5.0929">
        <ele>367.29417657315</ele>
        <time>2012-09-29T10:03:09Z</time>
      </trkpt>
      <trkpt lat="44.67921" lon="5.09262">
        <ele>374.35158478735</ele>
        <time>2012-09-29T10:03:16Z</time>
      </trkpt>
      <trkpt lat="44.67927" lon="5.09234">
        <ele>367.29417657315</ele>
        <time>2012-09-29T10:03:21Z</time>
      </trkpt>
      <trkpt lat="44.67926" lon="5.09216">
        <ele>363.16545164685</ele>
        <time>2012-09-29T10:03:28Z</time>
      </trkpt>
      <trkpt lat="44.67924" lon="5.09207">
        <ele>365.05792909917</ele>
        <time>2012-09-29T10:03:34Z</time>
      </trkpt>
      <trkpt lat="44.67923" lon="5.09202">
        <ele>364.79962880845</ele>
        <time>2012-09-29T10:03:40Z</time>
      </trkpt>
      <trkpt lat="44.67927" lon="5.09197">
        <ele>365.5740240217</ele>
        <time>2012-09-29T10:03:46Z</time>
      </trkpt>
      <trkpt lat="44.67933" lon="5.09192">
        <ele>369.96213475302</ele>
        <time>2012-09-29T10:03:51Z</time>
      </trkpt>
      <trkpt lat="44.67936" lon="5.09182">
        <ele>372.28560527612</ele>
        <time>2012-09-29T10:03:58Z</time>
      </trkpt>
      <trkpt lat="44.67944" lon="5.09172">
        <ele>374.95432757512</ele>
        <time>2012-09-29T10:04:05Z</time>
      </trkpt>
      <trkpt lat="44.67943" lon="5.09152">
        <ele>380.03568587288</ele>
        <time>2012-09-29T10:04:12Z</time>
      </trkpt>
      <trkpt lat="44.67944" lon="5.09132">
        <ele>384.94700975563</ele>
        <time>2012-09-29T10:04:17Z</time>
      </trkpt>
      <trkpt lat="44.67942" lon="5.09122">
        <ele>383.82664995275</ele>
        <time>2012-09-29T10:04:22Z</time>
      </trkpt>
      <trkpt lat="44.67935" lon="5.09113">
        <ele>386.58463690524</ele>
        <time>2012-09-29T10:04:28Z</time>
      </trkpt>
      <trkpt lat="44.67931" lon="5.09104">
        <ele>388.82555048684</ele>
        <time>2012-09-29T10:04:33Z</time>
      </trkpt>
      <trkpt lat="44.67927" lon="5.09096">
        <ele>384.68821162532</ele>
        <time>2012-09-29T10:04:39Z</time>
      </trkpt>
      <trkpt lat="44.67923" lon="5.09089">
        <ele>392.27495057559</ele>
        <time>2012-09-29T10:04:45Z</time>
      </trkpt>
      <trkpt lat="44.67919" lon="5.09085">
        <ele>389.0844523295</ele>
        <time>2012-09-29T10:04:51Z</time>
      </trkpt>
      <trkpt lat="44.67917" lon="5.09078">
        <ele>389.0844523295</ele>
        <time>2012-09-29T10:04:56Z</time>
      </trkpt>
      <trkpt lat="44.67914" lon="5.0907">
        <ele>393.6552439226</ele>
        <time>2012-09-29T10:05:01Z</time>
      </trkpt>
      <trkpt lat="44.67908" lon="5.09063">
        <ele>388.6534790726</ele>
        <time>2012-09-29T10:05:07Z</time>
      </trkpt>
      <trkpt lat="44.67901" lon="5.09051">
        <ele>401.24805031315</ele>
        <time>2012-09-29T10:05:14Z</time>
      </trkpt>
      <trkpt lat="44.67893" lon="5.09041">
        <ele>399.52223333982</ele>
        <time>2012-09-29T10:05:19Z</time>
      </trkpt>
      <trkpt lat="44.67888" lon="5.09036">
        <ele>400.55789962676</ele>
        <time>2012-09-29T10:05:25Z</time>
      </trkpt>
      <trkpt lat="44.67883" lon="5.09031">
        <ele>406.77408035895</ele>
        <time>2012-09-29T10:05:30Z</time>
      </trkpt>
      <trkpt lat="44.67881" lon="5.09021">
        <ele>408.67456733493</ele>
        <time>2012-09-29T10:05:36Z</time>
      </trkpt>
      <trkpt lat="44.6788" lon="5.09011">
        <ele>408.76103331736</ele>
        <time>2012-09-29T10:05:43Z</time>
      </trkpt>
      <trkpt lat="44.67877" lon="5.08995">
        <ele>408.58810207687</ele>
        <time>2012-09-29T10:05:50Z</time>
      </trkpt>
      <trkpt lat="44.67867" lon="5.08984">
        <ele>411.61165291848</ele>
        <time>2012-09-29T10:05:56Z</time>
      </trkpt>
      <trkpt lat="44.67852" lon="5.08984">
        <ele>412.13007993997</ele>
        <time>2012-09-29T10:06:02Z</time>
      </trkpt>
      <trkpt lat="44.6784" lon="5.08985">
        <ele>406.3423680162</ele>
        <time>2012-09-29T10:06:08Z</time>
      </trkpt>
      <trkpt lat="44.67831" lon="5.08983">
        <ele>415.84632384214</ele>
        <time>2012-09-29T10:06:15Z</time>
      </trkpt>
      <trkpt lat="44.67817" lon="5.08978">
        <ele>415.50075431435</ele>
        <time>2012-09-29T10:06:21Z</time>
      </trkpt>
      <trkpt lat="44.67809" lon="5.08972">
        <ele>420.25585717305</ele>
        <time>2012-09-29T10:06:27Z</time>
      </trkpt>
      <trkpt lat="44.678" lon="5.0897">
        <ele>421.12099271699</ele>
        <time>2012-09-29T10:06:33Z</time>
      </trkpt>
      <trkpt lat="44.67789" lon="5.08966">
        <ele>419.39132193627</ele>
        <time>2012-09-29T10:06:39Z</time>
      </trkpt>
      <trkpt lat="44.67776" lon="5.08961">
        <ele>425.53225313899</ele>
        <time>2012-09-29T10:06:46Z</time>
      </trkpt>
      <trkpt lat="44.67764" lon="5.08954">
        <ele>422.07225048078</ele>
        <time>2012-09-29T10:06:53Z</time>
      </trkpt>
      <trkpt lat="44.67757" lon="5.08946">
        <ele>428.64793466884</ele>
        <time>2012-09-29T10:06:59Z</time>
      </trkpt>
      <trkpt lat="44.67747" lon="5.08939">
        <ele>428.56130188524</ele>
        <time>2012-09-29T10:07:05Z</time>
      </trkpt>
      <trkpt lat="44.67741" lon="5.08936">
        <ele>432.19680630706</ele>
        <time>2012-09-29T10:07:10Z</time>
      </trkpt>
      <trkpt lat="44.67731" lon="5.08928">
        <ele>433.5824497899</ele>
        <time>2012-09-29T10:07:16Z</time>
      </trkpt>
      <trkpt lat="44.67724" lon="5.08922">
        <ele>430.11921833081</ele>
        <time>2012-09-29T10:07:22Z</time>
      </trkpt>
      <trkpt lat="44.67716" lon="5.08914">
        <ele>427.17633262847</ele>
        <time>2012-09-29T10:07:28Z</time>
      </trkpt>
      <trkpt lat="44.67708" lon="5.08906">
        <ele>437.73943996942</ele>
        <time>2012-09-29T10:07:33Z</time>
      </trkpt>
      <trkpt lat="44.67709" lon="5.08901">
        <ele>434.44817508486</ele>
        <time>2012-09-29T10:07:39Z</time>
      </trkpt>
      <trkpt lat="44.67711" lon="5.08894">
        <ele>441.46492172134</ele>
        <time>2012-09-29T10:07:45Z</time>
      </trkpt>
      <trkpt lat="44.67709" lon="5.08882">
        <ele>437.04631569291</ele>
        <time>2012-09-29T10:07:50Z</time>
      </trkpt>
      <trkpt lat="44.67708" lon="5.0887">
        <ele>440.68481238146</ele>
        <time>2012-09-29T10:07:57Z</time>
      </trkpt>
      <trkpt lat="44.67706" lon="5.08856">
        <ele>443.80507482439</ele>
        <time>2012-09-29T10:08:04Z</time>
      </trkpt>
      <trkpt lat="44.67707" lon="5.08848">
        <ele>443.45803848017</ele>
        <time>2012-09-29T10:08:11Z</time>
      </trkpt>
      <trkpt lat="44.67713" lon="5.08845">
        <ele>449.52703869163</ele>
        <time>2012-09-29T10:08:18Z</time>
      </trkpt>
      <trkpt lat="44.67719" lon="5.08841">
        <ele>451.95585103609</ele>
        <time>2012-09-29T10:08:23Z</time>
      </trkpt>
      <trkpt lat="44.67726" lon="5.08825">
        <ele>452.99679448926</ele>
        <time>2012-09-29T10:08:29Z</time>
      </trkpt>
      <trkpt lat="44.67727" lon="5.08803">
        <ele>447.01253959774</ele>
        <time>2012-09-29T10:08:34Z</time>
      </trkpt>
      <trkpt lat="44.67729" lon="5.08788">
        <ele>444.75842683705</ele>
        <time>2012-09-29T10:08:41Z</time>
      </trkpt>
      <trkpt lat="44.6773" lon="5.08777">
        <ele>454.64525817685</ele>
        <time>2012-09-29T10:08:47Z</time>
      </trkpt>
      <trkpt lat="44.67731" lon="5.08766">
        <ele>459.93928119493</ele>
        <time>2012-09-29T10:08:52Z</time>
      </trkpt>
      <trkpt lat="44.67731" lon="5.08754">
        <ele>460.54704413067</ele>
        <time>2012-09-29T10:08:58Z</time>
      </trkpt>
      <trkpt lat="44.67732" lon="5.0874">
        <ele>457.24849291928</ele>
        <time>2012-09-29T10:09:03Z</time>
      </trkpt>
      <trkpt lat="44.67732" lon="5.08727">
        <ele>458.81074933542</ele>
        <time>2012-09-29T10:09:08Z</time>
      </trkpt>
      <trkpt lat="44.67734" lon="5.08716">
        <ele>458.02932665636</ele>
        <time>2012-09-29T10:09:14Z</time>
      </trkpt>
      <trkpt lat="44.67737" lon="5.08707">
        <ele>466.36525976953</ele>
        <time>2012-09-29T10:09:20Z</time>
      </trkpt>
      <trkpt lat="44.67738" lon="5.08699">
        <ele>467.23427218423</ele>
        <time>2012-09-29T10:09:25Z</time>
      </trkpt>
      <trkpt lat="44.67737" lon="5.08691">
        <ele>468.88448398444</ele>
        <time>2012-09-29T10:09:30Z</time>
      </trkpt>
      <trkpt lat="44.67735" lon="5.08675">
        <ele>470.79645109217</ele>
        <time>2012-09-29T10:09:36Z</time>
      </trkpt>
      <trkpt lat="44.67734" lon="5.08655">
        <ele>465.93104611706</ele>
        <time>2012-09-29T10:09:43Z</time>
      </trkpt>
      <trkpt lat="44.67731" lon="5.08649">
        <ele>466.79949171426</ele>
        <time>2012-09-29T10:09:50Z</time>
      </trkpt>
      <trkpt lat="44.67729" lon="5.08652">
        <ele>469.84068838593</ele>
        <time>2012-09-29T10:09:56Z</time>
      </trkpt>
      <trkpt lat="44.67721" lon="5.0866">
        <ele>477.66389419836</ele>
        <time>2012-09-29T10:10:03Z</time>
      </trkpt>
      <trkpt lat="44.67712" lon="5.08671">
        <ele>473.75181424946</ele>
        <time>2012-09-29T10:10:08Z</time>
      </trkpt>
      <trkpt lat="44.67706" lon="5.08678">
        <ele>477.57684859402</ele>
        <time>2012-09-29T10:10:14Z</time>
      </trkpt>
      <trkpt lat="44.67706" lon="5.08677">
        <ele>474.96847544512</ele>
        <time>2012-09-29T10:10:21Z</time>
      </trkpt>
      <trkpt lat="44.67707" lon="5.08671">
        <ele>482.62193027493</ele>
        <time>2012-09-29T10:10:27Z</time>
      </trkpt>
      <trkpt lat="44.6771" lon="5.08665">
        <ele>486.27655150341</ele>
        <time>2012-09-29T10:10:32Z</time>
      </trkpt>
      <trkpt lat="44.67717" lon="5.08648">
        <ele>480.70829904923</ele>
        <time>2012-09-29T10:10:39Z</time>
      </trkpt>
      <trkpt lat="44.67721" lon="5.08626">
        <ele>484.27513925911</ele>
        <time>2012-09-29T10:10:44Z</time>
      </trkpt>
      <trkpt lat="44.67725" lon="5.08609">
        <ele>475.75118340556</ele>
        <time>2012-09-29T10:10:50Z</time>
      </trkpt>
      <trkpt lat="44.67726" lon="5.08591">
        <ele>479.40336813868</ele>
        <time>2012-09-29T10:10:56Z</time>
      </trkpt>
      <trkpt lat="44.67728" lon="5.0857">
        <ele>481.83923126574</ele>
        <time>2012-09-29T10:11:02Z</time>
      </trkpt>
      <trkpt lat="44.67734" lon="5.08551">
        <ele>491.41305771044</ele>
        <time>2012-09-29T10:11:07Z</time>
      </trkpt>
      <trkpt lat="44.67737" lon="5.08529">
        <ele>488.8883204931</ele>
        <time>2012-09-29T10:11:13Z</time>
      </trkpt>
      <trkpt lat="44.67742" lon="5.08511">
        <ele>493.76457975965</ele>
        <time>2012-09-29T10:11:19Z</time>
      </trkpt>
      <trkpt lat="44.67748" lon="5.085">
        <ele>489.75870305115</ele>
        <time>2012-09-29T10:11:25Z</time>
      </trkpt>
      <trkpt lat="44.67753" lon="5.08488">
        <ele>493.32921002913</ele>
        <time>2012-09-29T10:11:31Z</time>
      </trkpt>
      <trkpt lat="44.67757" lon="5.08472">
        <ele>498.64314839142</ele>
        <time>2012-09-29T10:11:38Z</time>
      </trkpt>
      <trkpt lat="44.67762" lon="5.08463">
        <ele>500.64735432937</ele>
        <time>2012-09-29T10:11:43Z</time>
      </trkpt>
      <trkpt lat="44.6777" lon="5.08461">
        <ele>501.51873109199</ele>
        <time>2012-09-29T10:11:48Z</time>
      </trkpt>
      <trkpt lat="44.67777" lon="5.0846">
        <ele>502.3034588476</ele>
        <time>2012-09-29T10:11:55Z</time>
      </trkpt>
      <trkpt lat="44.67785" lon="5.08461">
        <ele>497.59758427956</ele>
        <time>2012-09-29T10:12:02Z</time>
      </trkpt>
      <trkpt lat="44.67799" lon="5.08456">
        <ele>503.52402883428</ele>
        <time>2012-09-29T10:12:09Z</time>
      </trkpt>
      <trkpt lat="44.67815" lon="5.08459">
        <ele>494.80975485432</ele>
        <time>2012-09-29T10:12:14Z</time>
      </trkpt>
      <trkpt lat="44.67832" lon="5.08474">
        <ele>498.90429007213</ele>
        <time>2012-09-29T10:12:20Z</time>
      </trkpt>
      <trkpt lat="44.67849" lon="5.08482">
        <ele>505.00603993032</ele>
        <time>2012-09-29T10:12:27Z</time>
      </trkpt>
      <trkpt lat="44.67865" lon="5.08497">
        <ele>497.94591658622</ele>
        <time>2012-09-29T10:12:34Z</time>
      </trkpt>
      <trkpt lat="44.6788" lon="5.08513">
        <ele>499.16597025092</ele>
        <time>2012-09-29T10:12:41Z</time>
      </trkpt>
      <trkpt lat="44.67897" lon="5.08528">
        <ele>495.68063788349</ele>
        <time>2012-09-29T10:12:47Z</time>
      </trkpt>
      <trkpt lat="44.67909" lon="5.08541">
        <ele>503.00098570934</ele>
        <time>2012-09-29T10:12:52Z</time>
      </trkpt>
      <trkpt lat="44.67924" lon="5.08554">
        <ele>499.42712518762</ele>
        <time>2012-09-29T10:12:59Z</time>
      </trkpt>
      <trkpt lat="44.67931" lon="5.08571">
        <ele>500.4728750453</ele>
        <time>2012-09-29T10:13:05Z</time>
      </trkpt>
      <trkpt lat="44.67942" lon="5.08585">
        <ele>493.32921002913</ele>
        <time>2012-09-29T10:13:10Z</time>
      </trkpt>
      <trkpt lat="44.67956" lon="5.08595">
        <ele>496.72600741933</ele>
        <time>2012-09-29T10:13:17Z</time>
      </trkpt>
      <trkpt lat="44.67978" lon="5.08615">
        <ele>494.28715405116</ele>
        <time>2012-09-29T10:13:23Z</time>
      </trkpt>
      <trkpt lat="44.67995" lon="5.08633">
        <ele>492.54516565165</ele>
        <time>2012-09-29T10:13:30Z</time>
      </trkpt>
      <trkpt lat="44.68012" lon="5.08645">
        <ele>485.84149809741</ele>
        <time>2012-09-29T10:13:36Z</time>
      </trkpt>
      <trkpt lat="44.68026" lon="5.08663">
        <ele>487.14724468823</ele>
        <time>2012-09-29T10:13:41Z</time>
      </trkpt>
      <trkpt lat="44.68046" lon="5.08679">
        <ele>479.75108581502</ele>
        <time>2012-09-29T10:13:47Z</time>
      </trkpt>
      <trkpt lat="44.68064" lon="5.08692">
        <ele>474.27337448646</ele>
        <time>2012-09-29T10:13:53Z</time>
      </trkpt>
      <trkpt lat="44.68077" lon="5.08707">
        <ele>471.49184802918</ele>
        <time>2012-09-29T10:13:59Z</time>
      </trkpt>
      <trkpt lat="44.681" lon="5.08718">
        <ele>470.62247658744</ele>
        <time>2012-09-29T10:14:05Z</time>
      </trkpt>
      <trkpt lat="44.68113" lon="5.08737">
        <ele>473.57778984999</ele>
        <time>2012-09-29T10:14:12Z</time>
      </trkpt>
      <trkpt lat="44.68129" lon="5.08759">
        <ele>471.05688792771</ele>
        <time>2012-09-29T10:14:19Z</time>
      </trkpt>
      <trkpt lat="44.68144" lon="5.08759">
        <ele>468.18979321791</ele>
        <time>2012-09-29T10:14:25Z</time>
      </trkpt>
      <trkpt lat="44.68157" lon="5.08767">
        <ele>467.06035779549</ele>
        <time>2012-09-29T10:14:31Z</time>
      </trkpt>
      <trkpt lat="44.68179" lon="5.08776">
        <ele>458.72386280238</ele>
        <time>2012-09-29T10:14:37Z</time>
      </trkpt>
      <trkpt lat="44.68197" lon="5.08773">
        <ele>462.54385324282</ele>
        <time>2012-09-29T10:14:43Z</time>
      </trkpt>
      <trkpt lat="44.68209" lon="5.0876">
        <ele>461.32812775246</ele>
        <time>2012-09-29T10:14:49Z</time>
      </trkpt>
      <trkpt lat="44.68218" lon="5.0876">
        <ele>450.6545547925</ele>
        <time>2012-09-29T10:14:55Z</time>
      </trkpt>
      <trkpt lat="44.68225" lon="5.08776">
        <ele>444.41188746958</ele>
        <time>2012-09-29T10:15:00Z</time>
      </trkpt>
      <trkpt lat="44.68237" lon="5.08793">
        <ele>457.16161955148</ele>
        <time>2012-09-29T10:15:06Z</time>
      </trkpt>
      <trkpt lat="44.68252" lon="5.08806">
        <ele>453.08363277151</ele>
        <time>2012-09-29T10:15:11Z</time>
      </trkpt>
      <trkpt lat="44.68268" lon="5.08816">
        <ele>446.05897918835</ele>
        <time>2012-09-29T10:15:17Z</time>
      </trkpt>
      <trkpt lat="44.68284" lon="5.08822">
        <ele>452.56314352529</ele>
        <time>2012-09-29T10:15:23Z</time>
      </trkpt>
      <trkpt lat="44.68303" lon="5.08838">
        <ele>445.97220004343</ele>
        <time>2012-09-29T10:15:29Z</time>
      </trkpt>
      <trkpt lat="44.6832" lon="5.08851">
        <ele>442.85128195508</ele>
        <time>2012-09-29T10:15:36Z</time>
      </trkpt>
      <trkpt lat="44.68337" lon="5.08861">
        <ele>437.13301976601</ele>
        <time>2012-09-29T10:15:42Z</time>
      </trkpt>
      <trkpt lat="44.68349" lon="5.08874">
        <ele>432.80293637041</ele>
        <time>2012-09-29T10:15:47Z</time>
      </trkpt>
      <trkpt lat="44.68362" lon="5.08886">
        <ele>431.24461460898</ele>
        <time>2012-09-29T10:15:53Z</time>
      </trkpt>
      <trkpt lat="44.68374" lon="5.08896">
        <ele>434.10198195394</ele>
        <time>2012-09-29T10:15:59Z</time>
      </trkpt>
      <trkpt lat="44.68393" lon="5.08912">
        <ele>430.03257319105</ele>
        <time>2012-09-29T10:16:06Z</time>
      </trkpt>
      <trkpt lat="44.68408" lon="5.08923">
        <ele>425.09975535502</ele>
        <time>2012-09-29T10:16:13Z</time>
      </trkpt>
      <trkpt lat="44.68426" lon="5.08932">
        <ele>427.60944567258</ele>
        <time>2012-09-29T10:16:19Z</time>
      </trkpt>
      <trkpt lat="44.68449" lon="5.08944">
        <ele>426.57106120094</ele>
        <time>2012-09-29T10:16:26Z</time>
      </trkpt>
      <trkpt lat="44.68467" lon="5.08961">
        <ele>423.71577866779</ele>
        <time>2012-09-29T10:16:33Z</time>
      </trkpt>
      <trkpt lat="44.68482" lon="5.08969">
        <ele>421.9856728946</ele>
        <time>2012-09-29T10:16:39Z</time>
      </trkpt>
      <trkpt lat="44.68497" lon="5.08952">
        <ele>414.63661735188</ele>
        <time>2012-09-29T10:16:45Z</time>
      </trkpt>
      <trkpt lat="44.68507" lon="5.08928">
        <ele>420.94785423379</ele>
        <time>2012-09-29T10:16:50Z</time>
      </trkpt>
      <trkpt lat="44.68515" lon="5.0891">
        <ele>420.94785423379</ele>
        <time>2012-09-29T10:16:55Z</time>
      </trkpt>
      <trkpt lat="44.68525" lon="5.08905">
        <ele>419.04510591456</ele>
        <time>2012-09-29T10:17:01Z</time>
      </trkpt>
      <trkpt lat="44.68534" lon="5.08899">
        <ele>428.30140789935</ele>
        <time>2012-09-29T10:17:06Z</time>
      </trkpt>
      <trkpt lat="44.68547" lon="5.08888">
        <ele>427.34957566419</ele>
        <time>2012-09-29T10:17:13Z</time>
      </trkpt>
      <trkpt lat="44.68573" lon="5.08883">
        <ele>423.80237077268</ele>
        <time>2012-09-29T10:17:20Z</time>
      </trkpt>
      <trkpt lat="44.68593" lon="5.08874">
        <ele>426.22460418279</ele>
        <time>2012-09-29T10:17:26Z</time>
      </trkpt>
      <trkpt lat="44.68612" lon="5.08872">
        <ele>420.08326101835</ele>
        <time>2012-09-29T10:17:32Z</time>
      </trkpt>
      <trkpt lat="44.68634" lon="5.08869">
        <ele>418.35376416618</ele>
        <time>2012-09-29T10:17:39Z</time>
      </trkpt>
      <trkpt lat="44.68657" lon="5.08867">
        <ele>417.92156716781</ele>
        <time>2012-09-29T10:17:45Z</time>
      </trkpt>
      <trkpt lat="44.68675" lon="5.08862">
        <ele>428.64793466884</ele>
        <time>2012-09-29T10:17:51Z</time>
      </trkpt>
      <trkpt lat="44.6869" lon="5.08864">
        <ele>429.16721837104</ele>
        <time>2012-09-29T10:17:57Z</time>
      </trkpt>
      <trkpt lat="44.68702" lon="5.08866">
        <ele>420.51554857037</ele>
        <time>2012-09-29T10:18:02Z</time>
      </trkpt>
      <trkpt lat="44.68706" lon="5.08875">
        <ele>423.54259663818</ele>
        <time>2012-09-29T10:18:08Z</time>
      </trkpt>
      <trkpt lat="44.6871" lon="5.089">
        <ele>411.69814351091</ele>
        <time>2012-09-29T10:18:13Z</time>
      </trkpt>
      <trkpt lat="44.68713" lon="5.08923">
        <ele>415.24171665369</ele>
        <time>2012-09-29T10:18:19Z</time>
      </trkpt>
      <trkpt lat="44.68721" lon="5.08941">
        <ele>410.05652808685</ele>
        <time>2012-09-29T10:18:25Z</time>
      </trkpt>
      <trkpt lat="44.68738" lon="5.08937">
        <ele>412.47606403858</ele>
        <time>2012-09-29T10:18:30Z</time>
      </trkpt>
      <trkpt lat="44.6876" lon="5.08929">
        <ele>397.36484111651</ele>
        <time>2012-09-29T10:18:36Z</time>
      </trkpt>
      <trkpt lat="44.68774" lon="5.08943">
        <ele>407.72401651422</ele>
        <time>2012-09-29T10:18:41Z</time>
      </trkpt>
      <trkpt lat="44.68782" lon="5.08965">
        <ele>399.78087678323</ele>
        <time>2012-09-29T10:18:46Z</time>
      </trkpt>
      <trkpt lat="44.6879" lon="5.08987">
        <ele>391.06747682832</ele>
        <time>2012-09-29T10:18:52Z</time>
      </trkpt>
      <trkpt lat="44.68796" lon="5.09007">
        <ele>399.60809592326</ele>
        <time>2012-09-29T10:18:58Z</time>
      </trkpt>
      <trkpt lat="44.68799" lon="5.09032">
        <ele>392.36127930357</ele>
        <time>2012-09-29T10:19:03Z</time>
      </trkpt>
      <trkpt lat="44.688" lon="5.09056">
        <ele>379.86323509578</ele>
        <time>2012-09-29T10:19:09Z</time>
      </trkpt>
      <trkpt lat="44.68806" lon="5.0908">
        <ele>392.36127930357</ele>
        <time>2012-09-29T10:19:14Z</time>
      </trkpt>
      <trkpt lat="44.68814" lon="5.09094">
        <ele>383.30964226168</ele>
        <time>2012-09-29T10:19:19Z</time>
      </trkpt>
      <trkpt lat="44.68826" lon="5.09113">
        <ele>383.99864095459</ele>
        <time>2012-09-29T10:19:25Z</time>
      </trkpt>
      <trkpt lat="44.6884" lon="5.09135">
        <ele>378.39909679418</ele>
        <time>2012-09-29T10:19:31Z</time>
      </trkpt>
      <trkpt lat="44.68853" lon="5.09156">
        <ele>376.15991867858</ele>
        <time>2012-09-29T10:19:36Z</time>
      </trkpt>
      <trkpt lat="44.68856" lon="5.09176">
        <ele>376.41850318857</ele>
        <time>2012-09-29T10:19:42Z</time>
      </trkpt>
      <trkpt lat="44.68851" lon="5.09197">
        <ele>369.5314334495</ele>
        <time>2012-09-29T10:19:48Z</time>
      </trkpt>
      <trkpt lat="44.68842" lon="5.09216">
        <ele>373.8350511694</ele>
        <time>2012-09-29T10:19:54Z</time>
      </trkpt>
      <trkpt lat="44.6883" lon="5.09233">
        <ele>380.29384165562</ele>
        <time>2012-09-29T10:20:00Z</time>
      </trkpt>
      <trkpt lat="44.68816" lon="5.09254">
        <ele>378.57152312571</ele>
        <time>2012-09-29T10:20:07Z</time>
      </trkpt>
      <trkpt lat="44.688" lon="5.09274">
        <ele>376.15991867858</ele>
        <time>2012-09-29T10:20:14Z</time>
      </trkpt>
      <trkpt lat="44.68785" lon="5.09272">
        <ele>374.43776381568</ele>
        <time>2012-09-29T10:20:21Z</time>
      </trkpt>
      <trkpt lat="44.68771" lon="5.09264">
        <ele>370.39232873625</ele>
        <time>2012-09-29T10:20:26Z</time>
      </trkpt>
      <trkpt lat="44.68755" lon="5.09259">
        <ele>366.52017749788</ele>
        <time>2012-09-29T10:20:32Z</time>
      </trkpt>
      <trkpt lat="44.6874" lon="5.09258">
        <ele>365.48791890607</ele>
        <time>2012-09-29T10:20:38Z</time>
      </trkpt>
      <trkpt lat="44.68728" lon="5.0926">
        <ele>361.01563988321</ele>
        <time>2012-09-29T10:20:44Z</time>
      </trkpt>
      <trkpt lat="44.68717" lon="5.09267">
        <ele>363.68145204047</ele>
        <time>2012-09-29T10:20:50Z</time>
      </trkpt>
      <trkpt lat="44.68711" lon="5.09289">
        <ele>355.25649592313</ele>
        <time>2012-09-29T10:20:56Z</time>
      </trkpt>
      <trkpt lat="44.68709" lon="5.09306">
        <ele>355.60005527168</ele>
        <time>2012-09-29T10:21:02Z</time>
      </trkpt>
      <trkpt lat="44.68705" lon="5.09321">
        <ele>353.79584056128</ele>
        <time>2012-09-29T10:21:08Z</time>
      </trkpt>
      <trkpt lat="44.68699" lon="5.09334">
        <ele>349.8439278824</ele>
        <time>2012-09-29T10:21:13Z</time>
      </trkpt>
      <trkpt lat="44.68694" lon="5.09349">
        <ele>352.59285614646</ele>
        <time>2012-09-29T10:21:19Z</time>
      </trkpt>
      <trkpt lat="44.68695" lon="5.09369">
        <ele>349.07071057604</ele>
        <time>2012-09-29T10:21:24Z</time>
      </trkpt>
      <trkpt lat="44.68703" lon="5.09392">
        <ele>344.52012285485</ele>
        <time>2012-09-29T10:21:30Z</time>
      </trkpt>
      <trkpt lat="44.68706" lon="5.09411">
        <ele>336.11076601145</ele>
        <time>2012-09-29T10:21:36Z</time>
      </trkpt>
      <trkpt lat="44.68695" lon="5.09425">
        <ele>333.79489020869</ele>
        <time>2012-09-29T10:21:41Z</time>
      </trkpt>
      <trkpt lat="44.68685" lon="5.09435">
        <ele>337.74067046302</ele>
        <time>2012-09-29T10:21:46Z</time>
      </trkpt>
      <trkpt lat="44.68674" lon="5.09446">
        <ele>330.96513777825</ele>
        <time>2012-09-29T10:21:52Z</time>
      </trkpt>
      <trkpt lat="44.68665" lon="5.0946">
        <ele>335.59614027835</ele>
        <time>2012-09-29T10:21:58Z</time>
      </trkpt>
      <trkpt lat="44.68657" lon="5.0949">
        <ele>332.1656076574</ele>
        <time>2012-09-29T10:22:05Z</time>
      </trkpt>
      <trkpt lat="44.6865" lon="5.09517">
        <ele>326.16517459142</ele>
        <time>2012-09-29T10:22:11Z</time>
      </trkpt>
      <trkpt lat="44.68644" lon="5.0954">
        <ele>323.68053219966</ele>
        <time>2012-09-29T10:22:17Z</time>
      </trkpt>
      <trkpt lat="44.68643" lon="5.0956">
        <ele>320.3396790028</ele>
        <time>2012-09-29T10:22:22Z</time>
      </trkpt>
      <trkpt lat="44.68648" lon="5.09593">
        <ele>317.34271760491</ele>
        <time>2012-09-29T10:22:28Z</time>
      </trkpt>
      <trkpt lat="44.68656" lon="5.09621">
        <ele>315.45895462836</ele>
        <time>2012-09-29T10:22:34Z</time>
      </trkpt>
      <trkpt lat="44.68656" lon="5.09646">
        <ele>318.37017926174</ele>
        <time>2012-09-29T10:22:41Z</time>
      </trkpt>
      <trkpt lat="44.68638" lon="5.09659">
        <ele>313.66120847031</ele>
        <time>2012-09-29T10:22:46Z</time>
      </trkpt>
      <trkpt lat="44.68621" lon="5.09669">
        <ele>314.60314460327</ele>
        <time>2012-09-29T10:22:51Z</time>
      </trkpt>
      <trkpt lat="44.68606" lon="5.09679">
        <ele>309.98153142838</ele>
        <time>2012-09-29T10:22:58Z</time>
      </trkpt>
      <trkpt lat="44.68587" lon="5.09688">
        <ele>308.69852247708</ele>
        <time>2012-09-29T10:23:03Z</time>
      </trkpt>
      <trkpt lat="44.68571" lon="5.09699">
        <ele>306.81633292868</ele>
        <time>2012-09-29T10:23:10Z</time>
      </trkpt>
      <trkpt lat="44.68558" lon="5.09708">
        <ele>303.3102649259</ele>
        <time>2012-09-29T10:23:15Z</time>
      </trkpt>
      <trkpt lat="44.68539" lon="5.09718">
        <ele>308.18525902361</ele>
        <time>2012-09-29T10:23:21Z</time>
      </trkpt>
      <trkpt lat="44.68524" lon="5.09729">
        <ele>303.13908940805</ele>
        <time>2012-09-29T10:23:26Z</time>
      </trkpt>
      <trkpt lat="44.68508" lon="5.09737">
        <ele>299.29204053538</ele>
        <time>2012-09-29T10:23:32Z</time>
      </trkpt>
      <trkpt lat="44.685" lon="5.09756">
        <ele>308.69852247708</ele>
        <time>2012-09-29T10:23:37Z</time>
      </trkpt>
      <trkpt lat="44.68495" lon="5.09783">
        <ele>302.4549374941</ele>
        <time>2012-09-29T10:23:44Z</time>
      </trkpt>
      <trkpt lat="44.68498" lon="5.09811">
        <ele>304.42193095703</ele>
        <time>2012-09-29T10:23:50Z</time>
      </trkpt>
      <trkpt lat="44.68506" lon="5.09842">
        <ele>297.24100494103</ele>
        <time>2012-09-29T10:23:56Z</time>
      </trkpt>
      <trkpt lat="44.68511" lon="5.09865">
        <ele>295.36141988531</ele>
        <time>2012-09-29T10:24:01Z</time>
      </trkpt>
      <trkpt lat="44.68522" lon="5.09886">
        <ele>298.26647191791</ele>
        <time>2012-09-29T10:24:07Z</time>
      </trkpt>
      <trkpt lat="44.68532" lon="5.0991">
        <ele>285.96704903509</ele>
        <time>2012-09-29T10:24:14Z</time>
      </trkpt>
      <trkpt lat="44.68541" lon="5.09933">
        <ele>288.27224049995</ele>
        <time>2012-09-29T10:24:20Z</time>
      </trkpt>
      <trkpt lat="44.6855" lon="5.09958">
        <ele>286.99139939788</ele>
        <time>2012-09-29T10:24:26Z</time>
      </trkpt>
      <trkpt lat="44.68558" lon="5.09982">
        <ele>287.24776336613</ele>
        <time>2012-09-29T10:24:32Z</time>
      </trkpt>
      <trkpt lat="44.68565" lon="5.10005">
        <ele>294.079701128</ele>
        <time>2012-09-29T10:24:38Z</time>
      </trkpt>
      <trkpt lat="44.68577" lon="5.10021">
        <ele>292.79866245612</ele>
        <time>2012-09-29T10:24:44Z</time>
      </trkpt>
      <trkpt lat="44.68592" lon="5.10024">
        <ele>294.67778202874</ele>
        <time>2012-09-29T10:24:49Z</time>
      </trkpt>
      <trkpt lat="44.68604" lon="5.10029">
        <ele>296.38670059678</ele>
        <time>2012-09-29T10:24:54Z</time>
      </trkpt>
      <trkpt lat="44.68621" lon="5.10037">
        <ele>293.65267061672</ele>
        <time>2012-09-29T10:25:00Z</time>
      </trkpt>
      <trkpt lat="44.68639" lon="5.10044">
        <ele>293.65267061672</ele>
        <time>2012-09-29T10:25:06Z</time>
      </trkpt>
      <trkpt lat="44.6865" lon="5.10054">
        <ele>299.29204053538</ele>
        <time>2012-09-29T10:25:11Z</time>
      </trkpt>
      <trkpt lat="44.68642" lon="5.10055">
        <ele>299.54870941932</ele>
        <time>2012-09-29T10:25:17Z</time>
      </trkpt>
      <trkpt lat="44.68628" lon="5.10052">
        <ele>292.62766074407</ele>
        <time>2012-09-29T10:25:23Z</time>
      </trkpt>
      <trkpt lat="44.68614" lon="5.10054">
        <ele>298.52311536233</ele>
        <time>2012-09-29T10:25:29Z</time>
      </trkpt>
      <trkpt lat="44.68598" lon="5.10055">
        <ele>299.20700732956</ele>
        <time>2012-09-29T10:25:35Z</time>
      </trkpt>
      <trkpt lat="44.68582" lon="5.10057">
        <ele>299.89042279412</ele>
        <time>2012-09-29T10:25:42Z</time>
      </trkpt>
      <trkpt lat="44.68566" lon="5.10065">
        <ele>305.70440959377</ele>
        <time>2012-09-29T10:25:48Z</time>
      </trkpt>
      <trkpt lat="44.68552" lon="5.10072">
        <ele>306.47439072738</ele>
        <time>2012-09-29T10:25:54Z</time>
      </trkpt>
      <trkpt lat="44.6854" lon="5.10086">
        <ele>306.13245982802</ele>
        <time>2012-09-29T10:25:59Z</time>
      </trkpt>
      <trkpt lat="44.68527" lon="5.10095">
        <ele>308.52725778163</ele>
        <time>2012-09-29T10:26:06Z</time>
      </trkpt>
      <trkpt lat="44.68511" lon="5.101">
        <ele>305.27689904991</ele>
        <time>2012-09-29T10:26:13Z</time>
      </trkpt>
      <trkpt lat="44.68499" lon="5.10105">
        <ele>306.30316284906</ele>
        <time>2012-09-29T10:26:18Z</time>
      </trkpt>
      <trkpt lat="44.68499" lon="5.1012">
        <ele>310.751830994</ele>
        <time>2012-09-29T10:26:24Z</time>
      </trkpt>
      <trkpt lat="44.68512" lon="5.1013">
        <ele>308.78415588811</ele>
        <time>2012-09-29T10:26:29Z</time>
      </trkpt>
      <trkpt lat="44.68519" lon="5.1014">
        <ele>306.13245982802</ele>
        <time>2012-09-29T10:26:35Z</time>
      </trkpt>
      <trkpt lat="44.68517" lon="5.10146">
        <ele>310.92313252428</ele>
        <time>2012-09-29T10:26:41Z</time>
      </trkpt>
      <trkpt lat="44.68506" lon="5.1015">
        <ele>312.97688271611</ele>
        <time>2012-09-29T10:26:46Z</time>
      </trkpt>
      <trkpt lat="44.68493" lon="5.10153">
        <ele>316.14396715371</ele>
        <time>2012-09-29T10:26:52Z</time>
      </trkpt>
      <trkpt lat="44.68482" lon="5.10158">
        <ele>316.22966222606</ele>
        <time>2012-09-29T10:26:57Z</time>
      </trkpt>
      <trkpt lat="44.68474" lon="5.10158">
        <ele>315.45895462836</ele>
        <time>2012-09-29T10:27:02Z</time>
      </trkpt>
      <trkpt lat="44.68469" lon="5.10164">
        <ele>325.8225921164</ele>
        <time>2012-09-29T10:27:07Z</time>
      </trkpt>
      <trkpt lat="44.68465" lon="5.10175">
        <ele>325.73681751758</ele>
        <time>2012-09-29T10:27:12Z</time>
      </trkpt>
      <trkpt lat="44.68461" lon="5.10185">
        <ele>325.05116931839</ele>
        <time>2012-09-29T10:27:20Z</time>
      </trkpt>
      <trkpt lat="44.68453" lon="5.10199">
        <ele>331.22259385791</ele>
        <time>2012-09-29T10:27:25Z</time>
      </trkpt>
      <trkpt lat="44.68444" lon="5.10209">
        <ele>325.65104363025</ele>
        <time>2012-09-29T10:27:31Z</time>
      </trkpt>
      <trkpt lat="44.68431" lon="5.10216">
        <ele>328.47934188573</ele>
        <time>2012-09-29T10:27:36Z</time>
      </trkpt>
      <trkpt lat="44.68423" lon="5.1022">
        <ele>337.74067046302</ele>
        <time>2012-09-29T10:27:42Z</time>
      </trkpt>
      <trkpt lat="44.68415" lon="5.10227">
        <ele>332.42257027988</ele>
        <time>2012-09-29T10:27:49Z</time>
      </trkpt>
      <trkpt lat="44.68419" lon="5.10239">
        <ele>331.99395390348</ele>
        <time>2012-09-29T10:27:54Z</time>
      </trkpt>
      <trkpt lat="44.68432" lon="5.10254">
        <ele>339.11317286133</ele>
        <time>2012-09-29T10:28:02Z</time>
      </trkpt>
      <trkpt lat="44.68444" lon="5.10268">
        <ele>340.31458930479</ele>
        <time>2012-09-29T10:28:09Z</time>
      </trkpt>
      <trkpt lat="44.68456" lon="5.10273">
        <ele>341.43024049907</ele>
        <time>2012-09-29T10:28:15Z</time>
      </trkpt>
      <trkpt lat="44.68468" lon="5.10278">
        <ele>347.00977931009</ele>
        <time>2012-09-29T10:28:21Z</time>
      </trkpt>
      <trkpt lat="44.68482" lon="5.10278">
        <ele>346.92382874391</ele>
        <time>2012-09-29T10:28:27Z</time>
      </trkpt>
      <trkpt lat="44.68499" lon="5.10269">
        <ele>340.74355079777</ele>
        <time>2012-09-29T10:28:33Z</time>
      </trkpt>
      <trkpt lat="44.68511" lon="5.10268">
        <ele>346.06541047741</ele>
        <time>2012-09-29T10:28:38Z</time>
      </trkpt>
      <trkpt lat="44.68522" lon="5.10268">
        <ele>336.71075877202</ele>
        <time>2012-09-29T10:28:44Z</time>
      </trkpt>
      <trkpt lat="44.68534" lon="5.10273">
        <ele>340.14280019446</ele>
        <time>2012-09-29T10:28:50Z</time>
      </trkpt>
      <trkpt lat="44.68551" lon="5.10273">
        <ele>344.52012285485</ele>
        <time>2012-09-29T10:28:55Z</time>
      </trkpt>
      <trkpt lat="44.68569" lon="5.10265">
        <ele>344.34826383808</ele>
        <time>2012-09-29T10:29:01Z</time>
      </trkpt>
      <trkpt lat="44.68585" lon="5.10259">
        <ele>349.32861798685</ele>
        <time>2012-09-29T10:29:07Z</time>
      </trkpt>
      <trkpt lat="44.68596" lon="5.10256">
        <ele>350.4452426139</ele>
        <time>2012-09-29T10:29:12Z</time>
      </trkpt>
      <trkpt lat="44.68608" lon="5.10256">
        <ele>348.29807526926</ele>
        <time>2012-09-29T10:29:18Z</time>
      </trkpt>
      <trkpt lat="44.6862" lon="5.10259">
        <ele>351.99141644838</ele>
        <time>2012-09-29T10:29:23Z</time>
      </trkpt>
      <trkpt lat="44.68632" lon="5.10259">
        <ele>354.22536194748</ele>
        <time>2012-09-29T10:29:28Z</time>
      </trkpt>
      <trkpt lat="44.68645" lon="5.10258">
        <ele>349.32861798685</ele>
        <time>2012-09-29T10:29:34Z</time>
      </trkpt>
      <trkpt lat="44.68655" lon="5.10256">
        <ele>357.83478110145</ele>
        <time>2012-09-29T10:29:41Z</time>
      </trkpt>
      <trkpt lat="44.68668" lon="5.10259">
        <ele>358.2644704056</ele>
        <time>2012-09-29T10:29:47Z</time>
      </trkpt>
      <trkpt lat="44.68677" lon="5.10258">
        <ele>359.29600752998</ele>
        <time>2012-09-29T10:29:52Z</time>
      </trkpt>
      <trkpt lat="44.68687" lon="5.10258">
        <ele>358.52260737019</ele>
        <time>2012-09-29T10:29:57Z</time>
      </trkpt>
      <trkpt lat="44.68701" lon="5.10265">
        <ele>355.17047674442</ele>
        <time>2012-09-29T10:30:03Z</time>
      </trkpt>
      <trkpt lat="44.68721" lon="5.10264">
        <ele>359.3820610587</ele>
        <time>2012-09-29T10:30:08Z</time>
      </trkpt>
      <trkpt lat="44.68738" lon="5.10257">
        <ele>360.6719004298</ele>
        <time>2012-09-29T10:30:14Z</time>
      </trkpt>
      <trkpt lat="44.68752" lon="5.10255">
        <ele>356.80338983191</ele>
        <time>2012-09-29T10:30:19Z</time>
      </trkpt>
      <trkpt lat="44.68766" lon="5.10256">
        <ele>351.99141644838</ele>
        <time>2012-09-29T10:30:25Z</time>
      </trkpt>
      <trkpt lat="44.6878" lon="5.10257">
        <ele>349.15667899787</ele>
        <time>2012-09-29T10:30:30Z</time>
      </trkpt>
      <trkpt lat="44.68787" lon="5.10259">
        <ele>352.93632695076</ele>
        <time>2012-09-29T10:30:36Z</time>
      </trkpt>
      <trkpt lat="44.68795" lon="5.1026">
        <ele>357.14700061498</ele>
        <time>2012-09-29T10:30:41Z</time>
      </trkpt>
      <trkpt lat="44.6881" lon="5.10263">
        <ele>358.35051534394</ele>
        <time>2012-09-29T10:30:46Z</time>
      </trkpt>
      <trkpt lat="44.68829" lon="5.10267">
        <ele>355.85812568405</ele>
        <time>2012-09-29T10:30:52Z</time>
      </trkpt>
      <trkpt lat="44.68845" lon="5.10274">
        <ele>356.97545609351</ele>
        <time>2012-09-29T10:30:58Z</time>
      </trkpt>
      <trkpt lat="44.68866" lon="5.10284">
        <ele>356.02965165765</ele>
        <time>2012-09-29T10:31:04Z</time>
      </trkpt>
      <trkpt lat="44.68891" lon="5.10302">
        <ele>356.28773279912</ele>
        <time>2012-09-29T10:31:10Z</time>
      </trkpt>
      <trkpt lat="44.68914" lon="5.10316">
        <ele>355.60005527168</ele>
        <time>2012-09-29T10:31:15Z</time>
      </trkpt>
      <trkpt lat="44.68932" lon="5.10328">
        <ele>353.88132385866</ele>
        <time>2012-09-29T10:31:21Z</time>
      </trkpt>
      <trkpt lat="44.6895" lon="5.10344">
        <ele>348.46999997481</ele>
        <time>2012-09-29T10:31:26Z</time>
      </trkpt>
      <trkpt lat="44.68963" lon="5.10349">
        <ele>344.86332547886</ele>
        <time>2012-09-29T10:31:32Z</time>
      </trkpt>
      <trkpt lat="44.68977" lon="5.1035">
        <ele>348.72736821748</ele>
        <time>2012-09-29T10:31:38Z</time>
      </trkpt>
      <trkpt lat="44.68992" lon="5.10355">
        <ele>347.52497360056</ele>
        <time>2012-09-29T10:31:43Z</time>
      </trkpt>
      <trkpt lat="44.69009" lon="5.1036">
        <ele>341.85924829221</ele>
        <time>2012-09-29T10:31:49Z</time>
      </trkpt>
      <trkpt lat="44.69024" lon="5.10361">
        <ele>339.62797370874</ele>
        <time>2012-09-29T10:31:55Z</time>
      </trkpt>
      <trkpt lat="44.69037" lon="5.10367">
        <ele>333.10870747521</ele>
        <time>2012-09-29T10:32:00Z</time>
      </trkpt>
      <trkpt lat="44.6905" lon="5.10375">
        <ele>333.53737006855</ele>
        <time>2012-09-29T10:32:06Z</time>
      </trkpt>
      <trkpt lat="44.69066" lon="5.10384">
        <ele>340.57175455863</ele>
        <time>2012-09-29T10:32:12Z</time>
      </trkpt>
      <trkpt lat="44.6908" lon="5.10386">
        <ele>341.77334054407</ele>
        <time>2012-09-29T10:32:18Z</time>
      </trkpt>
      <trkpt lat="44.69095" lon="5.1039">
        <ele>341.17253009217</ele>
        <time>2012-09-29T10:32:25Z</time>
      </trkpt>
      <trkpt lat="44.69113" lon="5.10395">
        <ele>338.42663705629</ele>
        <time>2012-09-29T10:32:30Z</time>
      </trkpt>
      <trkpt lat="44.69124" lon="5.10398">
        <ele>345.80758448113</ele>
        <time>2012-09-29T10:32:36Z</time>
      </trkpt>
      <trkpt lat="44.69136" lon="5.10402">
        <ele>345.89352576529</ele>
        <time>2012-09-29T10:32:41Z</time>
      </trkpt>
      <trkpt lat="44.69149" lon="5.10404">
        <ele>347.18168258676</ele>
        <time>2012-09-29T10:32:47Z</time>
      </trkpt>
      <trkpt lat="44.69166" lon="5.10408">
        <ele>351.47599946711</ele>
        <time>2012-09-29T10:32:53Z</time>
      </trkpt>
      <trkpt lat="44.69179" lon="5.10409">
        <ele>350.61720304171</ele>
        <time>2012-09-29T10:32:59Z</time>
      </trkpt>
      <trkpt lat="44.69192" lon="5.1041">
        <ele>348.21211398894</ele>
        <time>2012-09-29T10:33:04Z</time>
      </trkpt>
      <trkpt lat="44.6921" lon="5.10413">
        <ele>351.47599946711</ele>
        <time>2012-09-29T10:33:09Z</time>
      </trkpt>
      <trkpt lat="44.6923" lon="5.1041">
        <ele>342.54601211663</ele>
        <time>2012-09-29T10:33:15Z</time>
      </trkpt>
      <trkpt lat="44.69249" lon="5.10406">
        <ele>335.68147319076</ele>
        <time>2012-09-29T10:33:22Z</time>
      </trkpt>
      <trkpt lat="44.69268" lon="5.10402">
        <ele>345.46435050274</ele>
        <time>2012-09-29T10:33:27Z</time>
      </trkpt>
      <trkpt lat="44.69281" lon="5.10397">
        <ele>344.09100461354</ele>
        <time>2012-09-29T10:33:33Z</time>
      </trkpt>
      <trkpt lat="44.69299" lon="5.10391">
        <ele>341.17253009217</ele>
        <time>2012-09-29T10:33:39Z</time>
      </trkpt>
      <trkpt lat="44.69319" lon="5.10386">
        <ele>336.53955309877</ele>
        <time>2012-09-29T10:33:44Z</time>
      </trkpt>
      <trkpt lat="44.69336" lon="5.10385">
        <ele>339.02728793143</ele>
        <time>2012-09-29T10:33:49Z</time>
      </trkpt>
      <trkpt lat="44.69353" lon="5.10387">
        <ele>331.39371150607</ele>
        <time>2012-09-29T10:33:55Z</time>
      </trkpt>
      <trkpt lat="44.69371" lon="5.10386">
        <ele>336.7966244586</ele>
        <time>2012-09-29T10:34:00Z</time>
      </trkpt>
      <trkpt lat="44.6939" lon="5.10377">
        <ele>331.30841397577</ele>
        <time>2012-09-29T10:34:06Z</time>
      </trkpt>
      <trkpt lat="44.69408" lon="5.10369">
        <ele>328.47934188573</ele>
        <time>2012-09-29T10:34:11Z</time>
      </trkpt>
      <trkpt lat="44.69425" lon="5.10363">
        <ele>331.05095575917</ele>
        <time>2012-09-29T10:34:16Z</time>
      </trkpt>
      <trkpt lat="44.69441" lon="5.10358">
        <ele>315.97257913903</ele>
        <time>2012-09-29T10:34:22Z</time>
      </trkpt>
      <trkpt lat="44.69455" lon="5.1036">
        <ele>329.33630104801</ele>
        <time>2012-09-29T10:34:27Z</time>
      </trkpt>
      <trkpt lat="44.69473" lon="5.10354">
        <ele>326.93668050333</ele>
        <time>2012-09-29T10:34:33Z</time>
      </trkpt>
      <trkpt lat="44.69494" lon="5.10341">
        <ele>325.30847818752</ele>
        <time>2012-09-29T10:34:40Z</time>
      </trkpt>
      <trkpt lat="44.6951" lon="5.1033">
        <ele>330.87932050963</ele>
        <time>2012-09-29T10:34:45Z</time>
      </trkpt>
      <trkpt lat="44.69521" lon="5.10315">
        <ele>321.45317682108</ele>
        <time>2012-09-29T10:34:50Z</time>
      </trkpt>
      <trkpt lat="44.69532" lon="5.10294">
        <ele>321.02501488162</ele>
        <time>2012-09-29T10:34:56Z</time>
      </trkpt>
      <trkpt lat="44.69543" lon="5.10273">
        <ele>317.85643567436</ele>
        <time>2012-09-29T10:35:01Z</time>
      </trkpt>
      <trkpt lat="44.69549" lon="5.10253">
        <ele>317.51360572759</ele>
        <time>2012-09-29T10:35:07Z</time>
      </trkpt>
      <trkpt lat="44.6956" lon="5.10238">
        <ele>321.96709911328</ele>
        <time>2012-09-29T10:35:13Z</time>
      </trkpt>
      <trkpt lat="44.69574" lon="5.10226">
        <ele>315.37326594131</ele>
        <time>2012-09-29T10:35:19Z</time>
      </trkpt>
      <trkpt lat="44.6959" lon="5.10211">
        <ele>314.17526614323</ele>
        <time>2012-09-29T10:35:26Z</time>
      </trkpt>
      <trkpt lat="44.69606" lon="5.10195">
        <ele>303.99447340474</ele>
        <time>2012-09-29T10:35:31Z</time>
      </trkpt>
      <trkpt lat="44.69618" lon="5.10186">
        <ele>306.38877643396</ele>
        <time>2012-09-29T10:35:37Z</time>
      </trkpt>
      <trkpt lat="44.69634" lon="5.10172">
        <ele>305.5337164521</ele>
        <time>2012-09-29T10:35:43Z</time>
      </trkpt>
      <trkpt lat="44.69646" lon="5.10158">
        <ele>305.10569099021</ele>
        <time>2012-09-29T10:35:50Z</time>
      </trkpt>
      <trkpt lat="44.69662" lon="5.10151">
        <ele>296.89937905086</ele>
        <time>2012-09-29T10:35:57Z</time>
      </trkpt>
      <trkpt lat="44.69679" lon="5.10143">
        <ele>302.28429795609</ele>
        <time>2012-09-29T10:36:02Z</time>
      </trkpt>
      <trkpt lat="44.69693" lon="5.10136">
        <ele>297.24100494103</ele>
        <time>2012-09-29T10:36:08Z</time>
      </trkpt>
      <trkpt lat="44.69711" lon="5.10133">
        <ele>291.0048491761</ele>
        <time>2012-09-29T10:36:14Z</time>
      </trkpt>
      <trkpt lat="44.69726" lon="5.10124">
        <ele>276.5817179612</ele>
        <time>2012-09-29T10:36:20Z</time>
      </trkpt>
      <trkpt lat="44.69741" lon="5.10111">
        <ele>286.65011169257</ele>
        <time>2012-09-29T10:36:26Z</time>
      </trkpt>
      <trkpt lat="44.69757" lon="5.10099">
        <ele>284.94280004327</ele>
        <time>2012-09-29T10:36:32Z</time>
      </trkpt>
      <trkpt lat="44.69775" lon="5.10081">
        <ele>287.5890707802</ele>
        <time>2012-09-29T10:36:37Z</time>
      </trkpt>
      <trkpt lat="44.69784" lon="5.10063">
        <ele>282.80918665478</ele>
        <time>2012-09-29T10:36:43Z</time>
      </trkpt>
      <trkpt lat="44.69788" lon="5.10039">
        <ele>283.83322452051</ele>
        <time>2012-09-29T10:36:49Z</time>
      </trkpt>
      <trkpt lat="44.69792" lon="5.10012">
        <ele>284.51614636551</ele>
        <time>2012-09-29T10:36:54Z</time>
      </trkpt>
      <trkpt lat="44.69798" lon="5.09987">
        <ele>275.89931936544</ele>
        <time>2012-09-29T10:37:01Z</time>
      </trkpt>
      <trkpt lat="44.69811" lon="5.09969">
        <ele>279.14046257152</ele>
        <time>2012-09-29T10:37:06Z</time>
      </trkpt>
      <trkpt lat="44.69826" lon="5.09953">
        <ele>266.69315805474</ele>
        <time>2012-09-29T10:37:11Z</time>
      </trkpt>
      <trkpt lat="44.69838" lon="5.09939">
        <ele>269.84662766444</ele>
        <time>2012-09-29T10:37:17Z</time>
      </trkpt>
      <trkpt lat="44.69852" lon="5.09924">
        <ele>270.86938400883</ele>
        <time>2012-09-29T10:37:23Z</time>
      </trkpt>
      <trkpt lat="44.69868" lon="5.09909">
        <ele>262.26390308738</ele>
        <time>2012-09-29T10:37:29Z</time>
      </trkpt>
      <trkpt lat="44.69881" lon="5.09892">
        <ele>261.92290976501</ele>
        <time>2012-09-29T10:37:36Z</time>
      </trkpt>
      <trkpt lat="44.69896" lon="5.09873">
        <ele>259.53886923749</ele>
        <time>2012-09-29T10:37:42Z</time>
      </trkpt>
      <trkpt lat="44.69912" lon="5.09862">
        <ele>256.30385504174</ele>
        <time>2012-09-29T10:37:48Z</time>
      </trkpt>
      <trkpt lat="44.6993" lon="5.09854">
        <ele>251.79335704251</ele>
        <time>2012-09-29T10:37:54Z</time>
      </trkpt>
      <trkpt lat="44.69943" lon="5.09851">
        <ele>250.68784721758</ele>
        <time>2012-09-29T10:38:00Z</time>
      </trkpt>
      <trkpt lat="44.69946" lon="5.0983">
        <ele>247.62533405153</ele>
        <time>2012-09-29T10:38:06Z</time>
      </trkpt>
    </trkseg>
  </trk>
</gpx>